[[{"header":{"parameterUnit":"m.s-1","parameterCategory":1,"la1":30.6,"la2":29.2853,"lo1":-89.7004,"lo2":-87.6739,"dy":0.0162,"dx":0.0183,"nx":112,"ny":82,"refTime":"2023-04-12T06:00:00:Z","depth":0,"parameterNumber":2,"parameterNumberName":"U-component_of_WINDS"},"data":[0.0,0.0,0.0,0.0,0.0,0.0,0.0,0.0,0.0,0.0,0.0,0.0,0.0,0.0,0.0,0.0,0.0,0.0,0.0,0.0,0.0,0.0,0.0,0.0,0.0,0.0,0.0,0.0,0.0,0.0,0.0,0.0,0.0,0.0,0.0,0.0,0.0,0.0,0.0,0.0,0.0,0.0,0.0,0.0,0.0,0.0,0.0,0.0,0.0,0.0,0.0,0.0,0.0,0.0,0.0,0.0,0.0,0.0,0.0,0.0,0.0,0.0,0.0,0.0,0.0,0.0,0.0,0.0,0.0,0.0,0.0,0.0,0.0,0.0,0.0,0.0,0.0,0.0,0.0,0.0,0.0,0.0,0.0,0.0,0.0,0.0,0.0,0.0,0.0,0.0,0.0,5.1601,5.1719,5.1797,5.1797,5.1797,5.1797,5.1797,0.0,0.0,0.0,0.0,0.0,0.0,0.0,0.0,0.0,0.0,0.0,0.0,0.0,0.0,0.0,0.0,0.0,0.0,0.0,0.0,0.0,0.0,0.0,0.0,0.0,0.0,0.0,0.0,0.0,0.0,0.0,0.0,0.0,0.0,0.0,0.0,0.0,0.0,0.0,0.0,0.0,0.0,0.0,0.0,0.0,0.0,0.0,0.0,0.0,0.0,0.0,0.0,0.0,0.0,0.0,0.0,0.0,0.0,0.0,0.0,0.0,0.0,0.0,0.0,0.0,0.0,0.0,0.0,0.0,0.0,0.0,0.0,0.0,0.0,0.0,0.0,0.0,0.0,0.0,0.0,0.0,0.0,0.0,0.0,0.0,0.0,0.0,0.0,0.0,0.0,0.0,0.0,0.0,0.0,0.0,0.0,0.0,0.0,0.0,0.0,0.0,0.0,0.0,0.0,5.168,5.2422,5.3164,5.3594,5.3594,5.3594,5.3594,5.3594,0.0,0.0,0.0,0.0,0.0,0.0,0.0,0.0,0.0,0.0,0.0,0.0,0.0,0.0,0.0,0.0,0.0,0.0,0.0,0.0,0.0,0.0,0.0,0.0,0.0,0.0,0.0,0.0,0.0,0.0,0.0,0.0,0.0,0.0,0.0,0.0,0.0,0.0,0.0,0.0,0.0,0.0,0.0,0.0,0.0,0.0,0.0,0.0,0.0,0.0,0.0,0.0,0.0,0.0,0.0,0.0,0.0,0.0,0.0,0.0,0.0,0.0,0.0,0.0,0.0,0.0,0.0,0.0,0.0,0.0,0.0,0.0,0.0,0.0,0.0,0.0,0.0,0.0,0.0,0.0,0.0,0.0,0.0,0.0,0.0,0.0,0.0,0.0,0.0,0.0,0.0,0.0,0.0,0.0,0.0,0.0,0.0,0.0,0.0,0.0,0.0,0.0,0.0,5.2539,5.2969,5.3359,5.375,5.3984,5.3984,5.3984,5.3984,5.3984,5.3242,0.0,0.0,0.0,0.0,0.0,0.0,0.0,0.0,0.0,0.0,0.0,0.0,0.0,0.0,0.0,0.0,0.0,0.0,0.0,0.0,0.0,0.0,0.0,0.0,0.0,0.0,0.0,0.0,0.0,0.0,0.0,0.0,0.0,0.0,0.0,0.0,0.0,0.0,0.0,0.0,0.0,0.0,0.0,0.0,0.0,0.0,0.0,0.0,0.0,0.0,0.0,0.0,0.0,0.0,0.0,0.0,0.0,0.0,0.0,0.0,0.0,0.0,0.0,0.0,0.0,0.0,0.0,0.0,0.0,0.0,0.0,0.0,0.0,0.0,0.0,0.0,0.0,0.0,0.0,0.0,0.0,0.0,0.0,0.0,0.0,0.0,0.0,0.0,0.0,0.0,0.0,0.0,0.0,0.0,0.0,0.0,0.0,0.0,0.0,0.0,0.0,0.0,5.3789,5.4297,5.4297,5.4492,5.4609,5.4609,5.4609,5.4609,5.4609,5.4609,0.0,0.0,0.0,0.0,0.0,0.0,0.0,0.0,0.0,0.0,0.0,0.0,0.0,0.0,0.0,0.0,0.0,0.0,0.0,0.0,0.0,0.0,0.0,0.0,0.0,0.0,0.0,0.0,0.0,0.0,0.0,0.0,0.0,0.0,0.0,0.0,0.0,0.0,0.0,0.0,0.0,0.0,0.0,0.0,0.0,0.0,0.0,0.0,0.0,0.0,0.0,0.0,0.0,0.0,0.0,0.0,0.0,0.0,0.0,0.0,0.0,0.0,0.0,0.0,0.0,0.0,0.0,0.0,0.0,0.0,0.0,0.0,0.0,0.0,0.0,0.0,0.0,0.0,0.0,0.0,0.0,0.0,0.0,0.0,0.0,0.0,0.0,0.0,0.0,0.0,0.0,0.0,0.0,0.0,0.0,0.0,0.0,0.0,0.0,0.0,0.0,0.0,5.4687,5.5195,5.5195,5.5937,5.6406,5.6406,5.6406,5.6406,5.6406,5.6406,0.0,0.0,0.0,0.0,0.0,0.0,0.0,0.0,0.0,0.0,0.0,0.0,0.0,0.0,0.0,0.0,0.0,0.0,0.0,0.0,0.0,0.0,0.0,0.0,0.0,0.0,0.0,0.0,0.0,0.0,0.0,0.0,0.0,0.0,0.0,0.0,0.0,0.0,0.0,0.0,0.0,0.0,0.0,0.0,0.0,0.0,0.0,0.0,0.0,0.0,0.0,0.0,0.0,0.0,0.0,0.0,0.0,0.0,0.0,0.0,0.0,0.0,0.0,0.0,0.0,0.0,0.0,0.0,0.0,0.0,0.0,0.0,0.0,0.0,0.0,0.0,0.0,0.0,0.0,0.0,0.0,0.0,0.0,0.0,0.0,0.0,0.0,0.0,0.0,0.0,0.0,0.0,0.0,0.0,0.0,0.0,0.0,0.0,0.0,0.0,0.0,0.0,5.6055,5.6914,0.0,5.7695,5.8203,5.8203,5.8203,5.8203,5.8203,0.0,0.0,0.0,0.0,0.0,0.0,0.0,0.0,0.0,0.0,0.0,0.0,0.0,0.0,0.0,0.0,0.0,0.0,0.0,0.0,0.0,0.0,0.0,0.0,0.0,0.0,0.0,0.0,0.0,0.0,0.0,0.0,0.0,0.0,0.0,0.0,0.0,0.0,0.0,0.0,0.0,0.0,0.0,0.0,0.0,0.0,0.0,0.0,0.0,0.0,0.0,0.0,0.0,0.0,0.0,0.0,0.0,0.0,0.0,0.0,0.0,0.0,0.0,0.0,0.0,0.0,0.0,0.0,0.0,0.0,0.0,0.0,0.0,0.0,0.0,0.0,0.0,0.0,0.0,0.0,0.0,0.0,0.0,0.0,0.0,0.0,0.0,0.0,0.0,0.0,0.0,0.0,0.0,0.0,0.0,0.0,0.0,0.0,0.0,0.0,0.0,0.0,5.6094,5.7422,5.832,0.0,5.8828,5.9219,5.9219,5.9143,5.9208,5.9453,0.0,0.0,0.0,0.0,0.0,0.0,0.0,0.0,0.0,0.0,0.0,0.0,0.0,0.0,0.0,0.0,0.0,0.0,0.0,0.0,0.0,0.0,0.0,0.0,0.0,0.0,0.0,0.0,0.0,0.0,0.0,0.0,0.0,0.0,0.0,0.0,0.0,0.0,0.0,0.0,0.0,0.0,0.0,0.0,0.0,0.0,0.0,0.0,0.0,0.0,0.0,0.0,0.0,0.0,0.0,0.0,0.0,0.0,0.0,0.0,0.0,0.0,0.0,0.0,0.0,0.0,0.0,0.0,0.0,0.0,0.0,0.0,0.0,0.0,0.0,0.0,0.0,0.0,0.0,0.0,0.0,0.0,0.0,0.0,0.0,0.0,0.0,0.0,0.0,0.0,0.0,0.0,0.0,0.0,0.0,0.0,0.0,0.0,0.0,0.0,0.0,0.0,5.7812,5.8672,5.9219,5.9219,5.9219,5.9219,5.9219,5.905,5.9236,0.0,0.0,0.0,0.0,0.0,0.0,0.0,0.0,0.0,0.0,0.0,0.0,0.0,0.0,0.0,0.0,0.0,0.0,0.0,0.0,0.0,0.0,0.0,0.0,0.0,0.0,0.0,0.0,0.0,0.0,0.0,0.0,0.0,0.0,0.0,0.0,0.0,0.0,0.0,0.0,0.0,0.0,0.0,0.0,0.0,0.0,0.0,0.0,0.0,0.0,0.0,0.0,0.0,0.0,0.0,0.0,0.0,0.0,0.0,0.0,0.0,0.0,0.0,0.0,0.0,0.0,0.0,0.0,0.0,0.0,0.0,0.0,0.0,0.0,0.0,0.0,0.0,0.0,0.0,0.0,0.0,0.0,0.0,0.0,0.0,0.0,0.0,0.0,0.0,0.0,0.0,0.0,0.0,0.0,0.0,0.0,0.0,0.0,0.0,0.0,0.0,0.0,0.0,5.8711,5.9531,6.0008,5.9904,6.0469,6.0784,6.0687,6.0626,6.0676,6.0903,0.0,0.0,0.0,0.0,0.0,0.0,0.0,0.0,0.0,0.0,0.0,0.0,0.0,0.0,0.0,0.0,0.0,0.0,0.0,0.0,0.0,0.0,0.0,0.0,0.0,0.0,0.0,0.0,0.0,0.0,0.0,0.0,0.0,0.0,0.0,0.0,0.0,0.0,0.0,0.0,0.0,0.0,0.0,0.0,0.0,0.0,0.0,0.0,0.0,0.0,0.0,0.0,0.0,0.0,0.0,0.0,0.0,0.0,0.0,0.0,0.0,0.0,0.0,0.0,0.0,0.0,0.0,0.0,0.0,0.0,0.0,0.0,0.0,0.0,0.0,0.0,0.0,0.0,0.0,0.0,0.0,0.0,0.0,0.0,0.0,0.0,0.0,0.0,0.0,0.0,0.0,0.0,0.0,0.0,0.0,0.0,0.0,0.0,0.0,0.0,0.0,0.0,5.9609,6.039,6.0876,6.0801,6.1573,6.2023,6.1903,6.1834,6.1811,6.1798,0.0,0.0,0.0,0.0,0.0,0.0,0.0,0.0,0.0,0.0,0.0,0.0,0.0,0.0,0.0,0.0,0.0,0.0,0.0,0.0,0.0,0.0,0.0,0.0,0.0,0.0,0.0,0.0,0.0,0.0,0.0,0.0,0.0,0.0,0.0,0.0,0.0,0.0,0.0,0.0,0.0,0.0,0.0,0.0,0.0,0.0,0.0,0.0,0.0,0.0,0.0,0.0,0.0,0.0,0.0,0.0,0.0,0.0,0.0,0.0,0.0,0.0,0.0,0.0,0.0,0.0,0.0,0.0,0.0,0.0,0.0,0.0,0.0,0.0,0.0,0.0,0.0,0.0,0.0,0.0,0.0,0.0,0.0,0.0,0.0,0.0,0.0,0.0,0.0,0.0,0.0,0.0,0.0,0.0,0.0,0.0,0.0,0.0,0.0,0.0,0.0,0.0,6.0625,6.1403,6.1907,6.1911,6.2576,6.2998,6.2858,6.2743,6.2639,6.2598,0.0,0.0,0.0,0.0,0.0,0.0,0.0,0.0,0.0,0.0,0.0,0.0,0.0,0.0,0.0,0.0,0.0,0.0,0.0,0.0,0.0,0.0,0.0,0.0,0.0,0.0,0.0,0.0,0.0,0.0,0.0,0.0,0.0,0.0,0.0,0.0,0.0,0.0,0.0,0.0,0.0,0.0,0.0,0.0,0.0,0.0,0.0,0.0,0.0,0.0,0.0,0.0,0.0,0.0,0.0,0.0,0.0,0.0,0.0,0.0,5.0494,0.0,0.0,0.0,0.0,0.0,0.0,0.0,0.0,0.0,0.0,0.0,0.0,0.0,0.0,0.0,0.0,0.0,0.0,0.0,0.0,0.0,0.0,0.0,0.0,0.0,0.0,0.0,0.0,0.0,0.0,0.0,0.0,0.0,0.0,0.0,0.0,0.0,0.0,0.0,0.0,0.0,6.2344,6.3094,6.3527,6.3367,6.3414,6.3394,6.3218,6.316,6.3134,6.3134,0.0,0.0,0.0,0.0,0.0,0.0,0.0,0.0,0.0,0.0,0.0,0.0,0.0,0.0,0.0,0.0,0.0,0.0,0.0,0.0,0.0,0.0,0.0,0.0,0.0,0.0,0.0,0.0,0.0,0.0,0.0,0.0,0.0,0.0,0.0,0.0,0.0,0.0,0.0,0.0,0.0,0.0,0.0,0.0,0.0,0.0,0.0,0.0,0.0,0.0,0.0,0.0,0.0,0.0,0.0,0.0,0.0,0.0,0.0,0.0,0.0,5.1051,0.0,0.0,0.0,0.0,0.0,0.0,0.0,0.0,0.0,0.0,0.0,0.0,0.0,0.0,0.0,0.0,0.0,0.0,0.0,0.0,0.0,0.0,0.0,0.0,0.0,0.0,0.0,0.0,0.0,0.0,0.0,0.0,0.0,0.0,0.0,0.0,0.0,0.0,0.0,0.0,6.3467,6.3782,6.3935,6.3799,6.41,6.4225,6.4032,6.4009,6.3977,6.3932,6.3545,0.0,0.0,0.0,0.0,0.0,0.0,0.0,0.0,0.0,0.0,0.0,0.0,0.0,0.0,0.0,0.0,0.0,0.0,0.0,0.0,0.0,0.0,0.0,0.0,0.0,0.0,0.0,0.0,0.0,0.0,0.0,0.0,0.0,0.0,0.0,0.0,0.0,0.0,0.0,0.0,0.0,0.0,0.0,0.0,0.0,0.0,0.0,0.0,0.0,0.0,0.0,0.0,0.0,5.2257,5.259,5.3191,5.3191,5.3188,5.314,5.195,5.1175,5.0737,0.0,0.0,0.0,0.0,0.0,0.0,0.0,0.0,0.0,0.0,0.0,0.0,0.0,0.0,0.0,0.0,0.0,0.0,0.0,0.0,0.0,0.0,0.0,0.0,0.0,5.8293,5.8647,0.0,0.0,0.0,0.0,0.0,0.0,0.0,0.0,0.0,0.0,0.0,0.0,6.4475,6.4433,6.4491,6.4634,6.525,6.5606,6.5449,6.5436,6.5371,6.5279,6.4583,6.4122,0.0,0.0,0.0,0.0,0.0,0.0,0.0,0.0,0.0,0.0,0.0,0.0,0.0,0.0,0.0,0.0,0.0,0.0,0.0,0.0,0.0,0.0,0.0,0.0,0.0,0.0,0.0,0.0,0.0,0.0,0.0,0.0,4.7699,4.793,0.0,0.0,0.0,0.0,0.0,0.0,0.0,0.0,0.0,0.0,0.0,0.0,0.0,0.0,5.27,5.2815,5.2931,5.3044,5.3041,5.3123,5.321,5.321,5.319,5.3189,5.2992,0.0,5.0817,5.2315,0.0,0.0,0.0,0.0,0.0,0.0,0.0,0.0,0.0,0.0,0.0,0.0,0.0,0.0,0.0,0.0,0.0,0.0,0.0,0.0,0.0,0.0,5.8392,5.8346,5.9103,5.9961,0.0,5.9527,5.8834,5.9734,0.0,0.0,0.0,0.0,0.0,0.0,0.0,0.0,6.5907,6.6557,6.7172,6.7885,6.7962,6.7965,6.7926,6.793,6.7933,6.7891,6.7776,6.7394,6.6631,6.5939,0.0,0.0,0.0,0.0,0.0,0.0,0.0,0.0,0.0,0.0,0.0,0.0,0.0,0.0,0.0,0.0,0.0,0.0,0.0,0.0,0.0,0.0,0.0,0.0,0.0,0.0,0.0,0.0,0.0,4.7889,4.8276,4.8779,4.8817,4.9163,0.0,0.0,0.0,0.0,0.0,0.0,0.0,0.0,0.0,5.262,5.262,5.2813,5.32,5.32,5.3662,5.4626,5.4626,5.5103,5.6056,5.6056,5.6084,5.606,5.5723,5.5127,5.4422,5.3894,5.5606,5.8453,0.0,0.0,0.0,0.0,0.0,5.6362,5.6165,5.6085,0.0,0.0,0.0,0.0,0.0,0.0,0.0,0.0,0.0,0.0,0.0,0.0,0.0,6.0426,6.1198,6.1956,6.2286,6.1797,6.1437,0.0,6.2366,6.2706,6.3149,0.0,0.0,0.0,0.0,0.0,6.7552,6.7801,6.8084,6.8465,6.8426,6.8391,6.8391,6.8391,6.8391,6.8391,6.8391,6.8237,6.7859,6.7471,6.7125,0.0,0.0,0.0,0.0,0.0,0.0,0.0,0.0,0.0,0.0,0.0,0.0,0.0,0.0,0.0,0.0,0.0,0.0,0.0,0.0,0.0,0.0,0.0,0.0,0.0,0.0,0.0,0.0,4.8622,4.9009,4.9666,4.9743,5.0051,0.0,0.0,0.0,0.0,0.0,0.0,5.2233,5.2851,5.3392,5.3815,5.3854,5.4046,5.4508,5.4508,5.5123,5.636,5.6365,5.7038,5.8303,5.8316,5.8308,5.8278,5.7842,5.771,5.7705,5.5855,5.7179,6.0217,5.8512,5.8259,5.8833,5.8434,5.8316,5.8316,5.8316,5.8316,5.8316,5.8316,0.0,5.8624,5.8624,0.0,0.0,0.0,0.0,5.9882,6.0453,6.1098,6.1716,6.2281,6.2858,6.3429,6.3852,6.3971,6.3894,0.0,6.3954,6.4217,6.4321,0.0,0.0,0.0,0.0,6.8612,6.8846,6.8773,6.8818,6.9007,6.9048,6.9048,6.9048,6.9048,6.9048,6.9048,6.9048,6.893,6.8737,6.8737,6.8622,6.8391,0.0,0.0,0.0,0.0,0.0,0.0,0.0,0.0,0.0,0.0,0.0,0.0,0.0,0.0,0.0,0.0,0.0,0.0,0.0,0.0,0.0,0.0,0.0,0.0,0.0,0.0,0.0,0.0,0.0,5.0632,5.0632,0.0,0.0,0.0,0.0,5.3008,5.3123,5.3123,5.3123,5.3162,5.3931,5.5513,5.5552,5.6357,5.8047,5.8047,5.8085,5.8162,5.8185,5.8223,5.8283,5.8297,5.8308,5.8292,5.8286,5.8525,5.8965,5.8326,5.8508,5.9152,5.9072,5.8753,5.8355,5.8316,5.8316,5.8316,5.8316,5.8316,5.8316,5.8316,5.8816,5.9432,5.9432,6.0592,0.0,0.0,6.2474,6.3083,6.3121,6.3157,6.3195,6.3237,6.3275,6.3737,6.54,6.5785,6.5285,0.0,6.4666,6.5785,6.5782,0.0,6.8273,6.8273,6.8353,6.8699,6.9549,6.9625,6.9937,7.0706,7.0783,7.0783,7.0783,7.0783,7.0783,7.0783,7.0783,7.0437,6.9664,6.9625,6.9241,6.843,6.8314,0.0,0.0,0.0,0.0,0.0,0.0,0.0,0.0,0.0,0.0,0.0,0.0,0.0,0.0,0.0,0.0,0.0,0.0,0.0,0.0,0.0,0.0,0.0,0.0,0.0,0.0,0.0,0.0,5.1392,5.1469,0.0,0.0,5.2736,5.2851,5.3162,5.4203,5.4818,5.4818,5.5854,5.6777,5.7357,5.7357,5.7662,5.8278,5.8316,5.855,5.9058,5.9067,5.9372,5.9938,6.0475,6.0426,5.9966,6.0674,6.1118,6.1313,6.1888,6.1337,6.0156,5.9564,5.9594,5.9896,5.9896,5.9896,5.9973,6.0553,6.0745,6.0822,6.1355,6.1698,6.1968,6.1968,6.2394,6.2858,6.2858,6.3086,6.3314,6.3314,6.4125,6.4974,6.4974,6.5817,6.6737,6.7356,6.751,6.7317,6.6699,6.7083,6.751,6.751,6.8471,6.9241,6.9241,6.9664,7.0129,7.0437,7.0475,7.0591,7.086,7.0898,7.0898,7.0898,7.0898,7.0898,7.0898,7.0898,7.0783,7.0475,7.0475,7.0321,7.001,6.951,6.9241,0.0,0.0,0.0,0.0,0.0,0.0,0.0,0.0,0.0,0.0,0.0,0.0,0.0,0.0,0.0,0.0,0.0,0.0,0.0,0.0,0.0,0.0,0.0,0.0,0.0,0.0,5.1741,5.2274,5.2349,5.2697,5.3546,5.3895,5.4164,5.4472,5.578,5.6588,5.6588,5.7662,5.8432,5.8701,5.8701,5.8855,5.9127,5.9443,5.9836,6.0384,6.0659,6.1085,6.1657,6.2252,6.2192,6.1694,6.2442,6.2777,6.2822,6.3586,6.3027,6.1571,6.1015,6.1124,6.1627,6.1627,6.1627,6.1743,6.2284,6.2515,6.2592,6.3121,6.3314,6.3314,6.3314,6.3702,6.4163,6.4163,6.4583,6.5006,6.5006,6.5894,6.6744,6.6744,6.7587,6.8468,6.8776,6.8853,6.8933,6.9199,6.9007,6.8853,6.8853,6.9549,7.009,7.009,7.0552,7.0898,7.0898,7.0898,7.0898,7.0898,7.0898,7.0898,7.0898,7.0898,7.0898,7.0898,7.0898,7.0898,7.0898,7.0898,7.0898,7.0898,7.0398,6.9972,6.9702,0.0,0.0,0.0,0.0,0.0,0.0,0.0,0.0,0.0,0.0,0.0,0.0,0.0,0.0,0.0,0.0,0.0,0.0,0.0,0.0,0.0,0.0,0.0,5.2041,5.2659,5.3238,5.3277,5.3277,5.3623,5.4511,5.5321,5.6132,5.6981,5.786,5.8355,5.8355,5.8393,5.8778,5.955,5.9624,6.0012,6.0861,6.1734,6.213,6.2169,6.2924,6.3318,6.3315,6.3315,6.3341,6.3396,6.3438,6.346,6.3491,6.3465,6.3468,6.3468,6.3352,6.3314,6.3314,6.3314,6.3314,6.3391,6.3391,6.3429,6.3468,6.3468,6.3468,6.3468,6.3468,6.4625,6.5977,6.5977,6.7164,6.8391,6.8391,6.843,6.843,6.843,6.8468,6.8699,6.9549,6.9741,6.9975,7.0744,7.0283,6.9741,6.9741,7.0398,7.0898,7.0898,7.0898,0.0,7.0898,7.0898,7.0898,7.0937,7.0937,7.0937,7.0937,7.0937,7.0937,7.0898,7.0898,7.0898,7.0898,7.0898,7.0898,7.0898,7.0898,7.0514,6.9741,0.0,0.0,0.0,0.0,0.0,0.0,0.0,0.0,0.0,0.0,0.0,0.0,0.0,0.0,0.0,0.0,0.0,0.0,0.0,0.0,0.0,0.0,5.3857,5.2967,5.3044,5.3662,5.4859,5.5013,5.5588,5.7124,5.747,5.7662,5.7934,5.8701,5.9162,5.9162,6.0361,6.1172,6.1364,6.1935,6.2352,6.2624,6.2838,6.2959,6.298,6.3181,6.3282,6.3328,6.3763,6.4398,6.524,6.6054,6.6849,6.7558,6.7164,6.7006,6.6737,6.4275,6.3314,6.3314,6.3314,6.4086,6.5205,6.5205,6.5971,6.7006,6.7006,6.7006,6.7006,6.7006,6.7317,6.7702,6.7702,6.8045,6.8391,6.8391,6.8856,6.9356,6.9356,6.9779,7.0283,7.0514,7.0552,7.0629,7.086,7.0706,7.0552,7.0552,7.0744,7.0898,7.0898,7.0898,0.0,7.0898,7.0898,7.1129,7.1787,7.1825,7.1825,7.1825,7.1825,7.1556,7.0937,7.0898,7.0898,7.0898,7.0898,7.0898,7.0898,7.0898,7.0783,0.0,0.0,0.0,0.0,0.0,0.0,0.0,0.0,0.0,0.0,0.0,0.0,0.0,0.0,0.0,0.0,0.0,0.0,0.0,0.0,0.0,0.0,5.4975,5.5513,5.5354,5.5011,5.5283,5.6626,5.678,5.7203,5.8201,5.8585,5.8932,5.9319,6.013,6.0745,6.1086,6.205,6.2589,6.2589,6.3048,6.3314,6.3314,6.4001,6.4398,6.4386,6.5113,6.5304,6.5118,6.5474,6.598,0.0,6.7801,6.8517,6.8828,6.8548,6.8391,0.0,0.0,0.0,0.0,0.0,6.6083,6.6936,6.6936,6.7587,6.8391,6.8391,6.8391,6.8391,6.8391,6.866,6.8933,6.8933,6.9202,6.9433,6.9433,6.9818,7.0206,7.0206,7.0552,7.0898,7.0898,7.0898,7.0898,7.0898,0.0,0.0,7.1363,7.1129,7.0898,7.0898,7.1206,7.144,7.144,7.1745,7.2164,7.2706,7.2745,7.2745,7.2745,7.2745,0.0,0.0,0.0,7.1822,7.1479,7.144,0.0,0.0,0.0,7.0898,7.0898,0.0,0.0,0.0,6.9206,6.9167,0.0,0.0,0.0,0.0,0.0,0.0,0.0,0.0,0.0,0.0,0.0,0.0,0.0,0.0,0.0,0.0,5.6632,5.744,5.8316,5.7783,5.7555,5.8355,5.8432,5.8508,5.8704,5.9355,6.0165,6.1015,6.1787,6.2554,6.3275,0.0,0.0,0.0,0.0,6.3778,6.3855,6.5405,6.62,6.62,6.7612,6.8055,6.7605,6.7487,6.7546,6.7852,6.8926,6.9129,6.8699,6.8699,6.8699,6.866,6.8468,6.8391,6.8391,6.8391,6.8468,6.8545,6.8545,0.0,0.0,6.8699,6.8699,6.8699,6.8699,6.9202,6.986,6.986,7.036,7.0898,7.0898,7.0898,7.0898,7.0898,7.0898,7.0898,7.0898,7.0898,7.0937,7.1014,7.1052,7.1321,7.221,7.1629,7.1091,7.1168,7.186,7.2364,7.2364,7.3011,7.3546,7.3623,0.0,0.0,7.3623,7.3623,7.3584,7.3507,7.3507,7.3164,7.2364,7.2364,7.1979,7.1206,7.1091,7.1052,7.1052,7.0937,7.0898,7.0898,7.0898,7.0898,0.0,0.0,0.0,0.0,0.0,0.0,0.0,0.0,0.0,0.0,0.0,0.0,0.0,0.0,0.0,5.7665,5.7931,5.8319,5.9162,5.9127,5.9088,5.9239,5.9278,5.9819,6.1248,6.1518,6.1938,6.274,6.2968,6.3121,6.3275,6.3971,0.0,6.5359,6.6016,6.6715,6.742,6.7763,6.7936,6.7933,0.0,0.0,6.7567,6.6642,6.72,6.8963,7.0094,7.0492,7.0437,7.0437,7.0437,7.0283,6.8933,6.8391,6.8391,6.8391,6.8853,6.9433,6.9433,6.9856,7.0437,7.0437,7.0437,7.0437,7.0437,7.0514,0.0,7.0667,7.0783,7.0898,7.0898,7.0898,7.0898,7.0898,7.0898,7.0898,7.0898,7.0898,7.1091,7.1825,7.194,7.2248,7.3088,7.2514,7.2206,7.2895,7.3122,7.3241,7.3241,7.3392,7.3738,7.4395,7.4472,7.4472,7.4472,7.4472,7.4199,7.3546,7.3507,7.343,7.3241,7.3241,7.3164,7.3011,7.2325,7.194,7.194,7.1248,7.0898,7.0898,7.0898,7.0898,0.0,0.0,0.0,0.0,0.0,0.0,0.0,0.0,0.0,0.0,0.0,5.6016,0.0,0.0,5.7937,5.8778,5.8893,5.9358,6.063,6.0784,6.0784,6.0784,6.0784,6.1284,6.2589,6.2704,6.3051,6.3894,6.4355,6.4782,6.5166,6.6048,6.6702,6.7125,6.7523,6.7956,6.8385,6.8819,6.8979,6.879,6.9112,6.9232,6.9232,6.8655,6.9012,7.0067,7.0632,7.0909,7.0898,7.0898,7.0898,7.0821,6.9972,6.9664,6.9664,6.9664,6.9937,7.0283,7.0283,7.0552,7.0898,7.0898,7.0898,7.0898,7.0898,7.0898,7.0898,7.0898,7.0898,7.0898,7.0898,7.0898,7.0898,7.0898,7.1245,7.1556,7.1556,7.1898,7.2318,7.2783,7.286,7.3129,7.3972,7.3741,7.3476,7.3511,7.3853,7.4084,7.4084,7.4472,7.4895,7.5319,7.5357,7.5357,7.5357,7.5357,7.5165,7.478,7.4742,7.4549,7.4126,7.4084,7.3892,7.3507,7.3088,7.286,7.286,7.2395,7.2203,7.2203,7.2203,7.1741,0.0,0.0,0.0,0.0,0.0,0.0,0.0,0.0,5.4548,5.5904,5.6747,5.7514,5.8357,5.8547,5.8855,5.9858,6.0012,6.055,6.2095,6.2326,6.2403,6.2557,6.2441,6.2669,6.3468,6.3702,6.4163,6.5013,6.5897,6.667,6.7324,6.801,6.8468,6.8664,6.8645,6.8729,6.8879,6.9582,6.981,6.9527,7.044,7.0898,7.0898,7.0898,7.0898,7.0898,7.0898,7.0898,7.0898,7.0898,7.0898,7.0898,7.0898,7.0898,7.0898,7.0898,7.0898,7.0898,7.0898,7.0898,7.0898,7.0898,7.0898,7.0898,7.0898,7.0898,7.0898,7.0898,7.0898,7.0937,7.1091,7.1168,7.1206,7.136,7.1937,7.2441,7.2441,7.3011,7.3546,7.3699,7.3738,7.4007,7.4819,7.4934,7.4742,7.4088,7.4549,7.4934,7.4934,7.5553,7.6015,7.6015,7.6015,7.6015,7.6015,7.6015,7.6015,7.6015,7.6015,7.5707,7.4972,7.4934,7.4665,7.4007,7.3815,7.3738,7.3738,7.3584,7.3507,7.3507,7.3507,7.2738,4.9459,4.9963,5.0555,5.0683,5.1328,5.2325,0.0,0.0,5.597,5.7663,5.8085,5.8393,5.9204,5.9355,5.9896,6.1556,6.1826,6.213,6.3048,6.316,6.3432,6.4243,6.3625,6.3509,6.4355,6.5166,6.5939,6.6747,6.7628,6.816,6.8237,6.8353,6.8744,6.9527,6.9569,6.9912,7.0594,7.0716,7.0755,7.0706,7.0821,7.0898,7.0898,7.0898,7.0898,7.0898,7.0898,7.0898,7.0898,7.0898,7.0898,7.0898,7.0898,7.0898,7.0898,7.0898,7.0898,7.0898,7.0898,7.0898,7.0898,7.0898,7.0898,7.0898,7.0898,7.0898,7.0898,7.0898,7.0898,7.1091,7.1863,7.2056,7.2248,7.3049,7.3276,7.3353,7.3353,7.343,7.3699,7.4434,7.4588,7.4857,7.5707,7.5861,7.5822,7.5745,7.5784,7.5861,7.5861,7.5938,7.6015,7.6015,7.6015,7.6015,7.6015,7.6015,7.6015,7.6015,7.6015,7.5976,7.5861,7.5861,7.5822,7.5707,7.4972,7.4588,7.4546,7.3853,7.3507,7.3507,7.3507,7.3392,5.0293,5.088,5.161,0.0,5.2816,5.3764,5.517,5.5769,5.6487,5.8228,5.8601,5.8936,6.0056,6.0668,6.1248,0.0,6.2477,6.3089,6.3932,6.4474,6.5128,6.5977,6.6163,6.6202,6.6054,6.6859,6.7471,6.7818,6.8664,6.9164,6.9164,6.9587,7.0014,7.0405,7.0405,7.0559,7.0898,7.0898,7.0898,7.0898,7.0898,7.0898,7.0898,7.0898,7.0898,7.0898,7.0898,7.0898,7.0898,7.0898,7.0898,7.0898,7.0898,7.0898,7.0898,7.0898,7.0898,7.0898,7.0898,7.0898,7.0898,7.0898,7.0898,7.0975,7.1517,7.1671,7.1748,7.228,7.2395,7.2511,7.2857,7.2976,7.3049,7.3392,7.3853,7.4199,7.4199,7.4588,7.5049,7.5396,7.5472,7.5745,7.6595,7.6749,7.6903,7.7365,7.7057,7.6749,7.6749,7.7172,7.7442,7.7442,7.7442,7.7442,7.7442,7.7442,7.7442,7.7442,7.7442,7.7442,7.7442,7.7019,7.6749,7.6749,7.5899,7.5472,7.5472,7.5126,7.4934,7.4934,7.4934,7.4934,5.1384,0.0,0.0,5.3403,5.4142,5.5064,5.6293,5.6672,5.7171,5.8664,5.9249,5.9793,6.0799,6.1646,6.2369,6.2734,6.3474,6.4317,6.5166,6.5925,6.6628,6.7388,6.8077,6.828,6.7631,6.8296,6.8776,6.8776,6.9549,7.001,7.001,7.0591,7.0898,7.0898,7.0898,7.0898,7.0898,7.0898,7.0898,7.0898,7.0898,7.0898,7.0898,7.0898,7.1171,7.1601,7.1601,7.1636,7.1626,7.1626,7.1626,7.1626,7.1626,7.1626,7.1626,7.1626,7.1475,7.1286,7.1514,7.1626,7.1626,7.1626,7.1626,7.1741,7.2364,7.2556,7.2706,7.3315,7.3507,7.3546,7.3776,7.3815,7.3892,7.4126,7.4626,7.5049,7.5049,7.5745,7.6361,7.6361,7.6553,7.6903,7.7519,7.7634,7.783,7.8407,7.8211,7.7903,7.7676,7.8138,7.8484,7.8484,7.8484,7.8484,7.8484,7.8484,7.8484,7.8484,7.8484,7.8484,7.8484,7.7946,7.7634,7.7634,7.7019,7.6672,7.6672,7.648,7.6361,7.6365,7.6092,7.6015,0.0,0.0,5.4326,5.4363,5.4955,5.589,5.7188,5.7809,5.8375,5.9222,6.0375,6.1259,6.1353,6.2025,6.3014,6.4302,6.5243,6.6093,6.6901,6.7343,6.7733,6.8313,6.8598,6.8768,0.0,6.9296,6.9667,6.9667,7.0398,7.086,7.086,7.0898,7.0898,7.0898,7.0898,7.0898,7.0898,7.0898,7.0898,7.0898,7.0898,7.0898,7.0898,7.0898,7.1839,7.3402,7.3402,7.3423,7.343,7.343,7.343,7.343,7.343,7.343,7.343,7.343,7.2899,7.2287,7.3126,7.343,7.343,7.343,7.343,7.343,7.343,7.3469,7.3469,7.3507,7.3507,7.3661,7.4472,7.4665,7.4895,7.5707,7.5938,7.5976,7.5976,7.6634,7.7253,7.7253,7.7907,7.8446,7.8446,7.8446,7.8484,7.8484,7.9208,7.9438,7.8561,7.8484,7.8484,7.8484,7.8484,7.8484,7.8484,7.8484,7.8484,7.8484,7.8484,7.8484,7.8484,7.8484,7.8446,7.8446,7.8446,7.8407,7.8407,7.7634,7.7253,7.7249,7.6399,7.6015,5.4588,0.0,5.5322,5.5868,5.6198,5.6658,5.763,5.8369,5.9017,5.9597,6.0504,6.1281,6.161,6.2603,6.3722,6.4747,6.5634,6.6464,6.7317,6.7998,6.8346,6.8152,6.9048,0.0,0.0,0.0,0.0,6.9976,7.0236,7.0501,7.0881,7.0898,7.0898,7.0898,7.0898,7.0898,7.0898,7.0898,7.1203,7.1776,7.1165,7.092,7.092,7.092,7.1231,7.1899,7.4162,7.5145,7.5092,7.434,7.3825,7.3507,7.3507,7.3507,7.3546,7.4084,7.4126,7.3818,7.3584,7.3507,7.3507,7.3507,7.3507,7.3584,7.4123,7.4318,7.4434,7.5011,7.5165,7.5203,7.5476,7.5553,7.563,7.5938,7.6438,7.6865,7.6865,7.7519,7.8099,7.8099,7.8292,7.8677,7.9246,7.9361,7.9554,8.0131,7.9977,7.9896,8.0169,8.0212,8.0212,8.0212,8.0212,8.0212,8.0212,8.0212,8.0212,8.0212,8.0212,8.0212,8.0212,7.9669,7.9361,7.9361,7.8788,7.8484,7.8484,7.8215,7.8099,7.8099,7.7788,7.7673,5.5475,5.58,5.6161,5.6669,5.7036,5.744,5.8253,5.8966,5.9558,5.9989,6.1065,6.205,6.2366,6.3611,6.4831,6.558,6.6394,6.7107,6.7652,6.8304,6.864,6.8482,6.9102,6.937,0.0,0.0,0.0,6.9806,6.9811,6.9942,7.0319,7.0503,7.0622,7.0622,7.1115,7.1346,7.1356,7.1664,7.2126,7.2657,7.2087,7.1839,7.1842,7.2437,7.271,7.2821,7.5043,7.5988,7.5943,7.5228,7.4714,7.4395,7.4395,7.4395,7.4472,7.4972,7.5165,7.5088,7.4588,7.4395,7.4395,7.4395,7.4395,7.4472,7.5011,7.5165,7.528,7.5822,7.6207,7.648,7.648,7.6669,7.6903,7.6903,7.7326,7.7715,7.7715,7.8365,7.8981,7.8981,7.9211,7.9596,8.0165,8.0242,8.0435,8.1016,8.0627,8.0477,8.1016,8.1093,8.1093,8.1093,8.1093,8.1093,8.1093,8.1093,8.1093,8.1093,8.1093,8.1093,8.1093,8.055,8.0242,8.0242,7.9712,7.9442,7.9442,7.9134,7.8981,7.8981,7.8638,7.8484,5.5695,5.6271,5.6853,5.6853,5.7483,5.8253,5.9049,5.9594,6.0088,6.0459,6.2145,6.3557,0.0,0.0,6.6172,6.6729,6.7465,6.797,6.8007,6.8305,6.8677,0.0,0.0,0.0,0.0,0.0,0.0,6.9247,0.0,6.9277,6.9362,6.9826,7.0154,7.0197,7.1478,7.2173,7.2174,7.3023,7.3484,7.3484,7.3583,7.3632,7.3674,7.5281,7.5992,7.6009,7.6009,7.5998,7.6015,7.6015,7.6015,7.6015,7.6015,7.6015,7.6015,7.6015,7.6015,7.6053,7.6053,7.6053,7.6015,7.6015,7.6015,7.6015,7.6053,7.6053,7.6092,7.613,7.6711,7.7365,7.7365,7.7946,7.8484,7.8484,7.8523,7.8561,7.8561,7.9246,7.9858,7.9858,8.0516,8.1093,8.1093,8.1093,8.1093,8.1093,8.1131,8.1131,8.1093,8.1093,8.1093,8.1093,8.1093,8.1093,8.1093,8.1093,8.1093,8.1093,8.1093,8.1093,8.1093,8.1093,8.1093,8.1093,8.1093,8.1093,8.1093,8.0281,7.9858,7.9858,7.9019,7.8638,5.7231,5.7525,5.7703,5.7703,5.8284,5.8939,5.9153,6.0238,6.1376,6.2059,6.3143,6.4144,0.0,0.0,0.0,6.7027,6.7294,0.0,6.8288,6.8461,0.0,6.8154,0.0,6.8326,6.7943,6.7906,0.0,0.0,6.8828,6.915,7.0158,7.0307,7.0664,7.1261,7.1654,7.1838,7.183,7.2674,7.313,7.3139,7.466,7.5379,7.5387,7.5822,7.5991,7.5984,7.5984,7.598,7.6015,7.6015,7.6015,7.6015,7.6015,7.6015,7.6015,7.6015,7.6403,7.698,7.698,7.6557,7.6015,7.6015,7.6015,7.613,7.6788,7.698,7.7096,7.7673,7.8023,7.8176,7.8176,7.8369,7.8484,7.8484,7.9019,7.9477,7.9477,8.0169,8.0785,8.0785,8.0939,8.1093,8.1093,8.1093,8.1093,8.1093,8.1593,8.1785,8.117,8.1093,8.1093,8.1093,8.1093,8.1093,8.1093,8.1093,8.1093,8.1093,8.1093,8.1093,8.1093,8.1093,8.1093,8.1093,8.1093,8.1093,8.1093,8.09,8.0785,8.0746,8.0554,8.0442,5.7886,5.8002,5.807,5.8431,5.8866,5.9374,6.0077,6.1221,6.2358,6.3209,6.431,0.0,0.0,0.0,0.0,0.0,0.0,0.0,6.8086,6.816,6.8021,0.0,6.7975,0.0,6.7741,6.8027,6.8394,0.0,6.8765,6.9167,7.0256,7.0544,7.086,7.1347,7.1957,7.2436,7.2833,7.3328,7.3555,7.356,7.4548,7.5169,7.5497,7.5858,7.6018,7.5988,0.0,7.6005,7.606,7.679,7.6976,7.6777,7.7015,7.7096,7.7096,7.7096,7.7403,7.783,7.783,7.7519,7.7096,7.7096,7.7096,7.7172,7.7676,7.783,7.7907,7.8369,7.8788,7.9058,7.9058,7.9365,7.9635,7.9635,8.0015,8.0358,8.0358,8.0742,8.1093,8.1093,8.1093,8.1208,8.1554,8.1631,8.1747,8.2135,8.2597,8.2712,8.2251,8.2212,8.2212,8.2212,8.2212,8.2212,8.2212,8.2212,8.2212,8.2212,8.1823,8.1631,8.1631,8.1285,8.1093,8.1093,8.1093,8.1093,8.1093,8.1093,8.1093,8.1093,8.1093,8.1093,5.8002,5.8076,5.8321,5.9049,5.938,5.9893,6.141,6.2395,6.3239,6.4206,0.0,6.6512,6.6623,6.7217,6.77,6.77,0.0,6.77,6.77,6.77,6.77,6.77,6.7787,6.7854,6.7864,6.8603,6.9104,6.92,6.9237,6.9531,7.0214,7.0704,7.0986,7.11,7.2298,7.3314,7.4055,7.406,7.406,7.406,7.3885,7.4161,7.4814,7.5485,7.5761,7.5782,0.0,0.0,7.6789,7.8054,7.8313,7.7921,7.8257,7.8362,7.8408,7.8465,7.8561,7.8673,7.8673,7.8754,7.8792,7.8561,7.8484,7.8523,7.8638,7.8673,7.8715,7.8792,7.94,7.9973,7.9973,8.0516,8.1093,8.1093,8.1093,8.1093,8.1093,8.117,8.1246,8.1246,8.1362,8.1631,8.2362,8.2481,8.2712,8.3486,8.3717,8.3751,8.3751,8.3674,8.3601,8.3601,8.3601,8.3601,8.3601,8.3601,8.3601,8.3601,8.2905,8.2481,8.2481,8.1789,8.1439,8.1439,8.1439,8.1362,8.1246,8.1246,8.1208,8.1093,8.1093,8.1093,5.8002,5.8505,5.9049,5.9153,6.0193,6.1447,6.2395,6.3246,0.0,0.0,6.6292,6.6696,6.7363,6.7627,6.77,6.77,0.0,0.0,0.0,0.0,6.77,0.0,0.0,0.0,0.0,0.0,0.0,0.0,0.0,7.0951,7.1076,7.1201,7.1542,7.2194,7.2472,7.2676,7.2809,7.2809,7.2809,7.2816,7.3909,7.4512,7.4649,7.4622,7.458,7.4542,7.3542,0.0,8.0173,7.9383,7.9015,7.8862,7.8075,7.7761,7.7811,7.8315,7.8981,7.9588,7.9588,8.0054,8.04,7.8984,7.8484,7.8638,7.9361,7.9588,7.9704,8.0439,8.0746,8.0862,8.0862,8.0977,8.1093,8.1093,8.1093,8.1093,8.1093,8.1631,8.2093,8.2093,8.2674,8.3212,8.337,8.3366,8.3447,8.3563,8.4209,8.4666,8.4666,8.4059,8.3601,8.3601,8.3601,8.3601,8.3601,8.3601,8.3601,8.3601,8.3447,8.3366,8.3366,8.3255,8.3178,8.3178,8.3178,8.2828,8.2093,8.2093,8.1747,8.1093,8.1093,8.1093,5.8505,5.8902,5.941,6.023,6.1043,6.193,6.3172,0.0,0.0,0.0,6.6849,6.7253,6.7627,6.77,0.0,6.77,6.77,0.0,0.0,0.0,0.0,0.0,0.0,0.0,0.0,0.0,0.0,0.0,0.0,7.191,7.191,7.191,7.2115,7.2488,7.2488,7.2716,7.312,7.312,7.334,7.3773,7.4428,7.4744,7.4758,7.494,7.4867,7.4638,7.4898,0.0,7.909,7.8452,7.8206,7.8263,7.8603,7.8809,7.899,7.9626,8.0131,8.0477,8.0477,8.0742,8.0977,8.0135,7.9865,7.9942,8.0362,8.0477,8.055,8.0977,8.1093,8.1093,8.1093,8.1093,8.1093,8.1093,8.14,8.1708,8.1708,8.2366,8.2982,8.2982,8.3328,8.3755,8.4209,8.4286,8.4401,8.4824,8.5247,8.5512,8.5512,8.517,8.4901,8.4901,8.4901,8.4901,8.4901,8.4901,8.4901,8.4901,8.4516,8.4286,8.4286,8.3828,8.3601,8.3601,8.3601,8.3405,8.2982,8.2982,8.2789,8.2404,8.2404,8.2404,5.9049,5.9453,6.0009,6.1269,6.1857,6.2518,6.4023,6.4971,0.0,0.0,6.7253,6.77,6.77,0.0,6.77,0.0,6.77,6.77,6.77,6.7867,6.8202,0.0,0.0,0.0,0.0,0.0,0.0,0.0,0.0,0.0,7.2496,7.2679,7.2753,7.2753,7.2929,7.3303,7.3964,7.3964,7.4258,7.4903,7.505,7.5168,7.5168,7.5763,7.5793,7.5491,7.6764,0.0,0.0,7.7291,7.7286,7.7428,7.8749,7.949,7.9844,8.0483,8.0758,8.0876,8.0876,8.0979,8.1093,8.1093,8.1093,8.1093,8.1093,8.1093,8.1093,8.1093,8.1093,8.1093,8.1093,8.1246,8.14,8.1593,8.2131,8.2597,8.2597,8.3251,8.3866,8.3866,8.402,8.4366,8.5051,8.5166,8.5359,8.6012,8.6089,8.6089,8.6089,8.6089,8.6089,8.6089,8.6089,8.6089,8.6089,8.6089,8.6089,8.6089,8.5512,8.5166,8.5166,8.4516,8.4136,8.4136,8.4136,8.4059,8.3866,8.3866,8.3789,8.3601,8.3601,8.3601,5.919,6.0266,6.1416,6.1563,6.2738,6.4096,6.5001,0.0,0.0,6.74,6.7664,6.77,6.77,6.77,0.0,0.0,0.0,6.77,6.77,6.8311,6.8829,6.8895,0.0,0.0,0.0,0.0,0.0,0.0,0.0,0.0,7.2532,7.3193,7.3604,7.3604,7.4287,7.472,7.4801,7.4801,7.4837,7.4903,7.5645,7.5983,7.6019,7.6783,7.7142,7.7105,7.7255,0.0,0.0,7.728,7.7303,7.7311,7.7476,7.8014,7.8793,7.9221,7.9738,8.0187,8.0187,8.0599,8.1093,8.1093,8.1093,8.1093,8.1093,8.1093,8.1093,8.1093,8.1093,8.1093,8.1093,8.1631,8.2404,8.3178,8.3447,8.3486,8.3486,8.417,8.4782,8.4782,8.5359,8.5897,8.5974,8.5974,8.6012,8.6089,8.6089,8.6089,8.6089,8.6089,8.6089,8.6089,8.6089,8.6089,8.6089,8.6089,8.6089,8.6089,8.6012,8.5974,8.5974,8.5901,8.5863,8.5863,8.5863,8.5512,8.4782,8.4782,8.4362,8.3601,8.3601,8.3601,5.9783,6.075,6.171,6.2212,6.3215,6.4316,6.5111,0.0,6.6733,6.7517,6.77,6.77,6.77,6.77,6.77,0.0,0.0,0.0,6.8341,6.8689,6.9245,7.0237,7.0908,0.0,0.0,0.0,0.0,0.0,0.0,0.0,7.3957,7.425,7.4434,7.4434,7.4727,7.5124,7.5608,7.5608,7.5865,7.6335,7.6665,7.6812,7.6812,7.7134,7.7281,7.7281,7.7281,0.0,0.0,7.7281,7.7281,7.7313,7.7295,7.794,7.8929,7.9566,8.0304,8.099,8.099,8.1182,8.141,8.141,8.141,8.1456,8.1734,8.2174,8.2597,8.2597,8.2597,8.2597,8.2597,8.2828,8.3178,8.3524,8.3982,8.4362,8.4362,8.5051,8.5628,8.5628,8.5897,8.6089,8.6089,8.6089,8.6089,8.6089,8.6089,8.6089,8.6089,8.6089,8.6089,8.6089,8.6089,8.6089,8.6089,8.6089,8.6089,8.6089,8.6089,8.6089,8.6089,8.6089,8.6089,8.6089,8.6089,8.5936,8.5628,8.5628,8.5435,8.5093,8.5093,8.5093,6.0523,6.1337,6.2144,6.2982,6.3833,6.4677,0.0,6.6292,6.7033,6.759,6.77,6.77,6.77,6.77,6.77,6.77,6.7894,6.8262,6.8829,6.9318,7.0032,0.0,0.0,0.0,0.0,0.0,0.0,0.0,0.0,0.0,0.0,7.5491,7.5491,7.5278,7.5498,7.5894,7.6452,7.6452,7.6738,7.7281,7.7281,7.7281,7.7281,7.7281,7.7472,7.7781,0.0,0.0,0.0,7.7314,7.7314,7.7295,7.7312,7.8378,7.9957,8.0037,8.0609,8.1301,8.1301,8.1561,8.1917,8.1917,8.2198,8.2649,8.2975,8.3196,8.3351,8.3522,8.3601,8.3678,8.3905,8.3982,8.4059,8.429,8.4824,8.5243,8.5243,8.5705,8.6089,8.6089,8.6089,8.6089,8.6089,8.6089,8.6089,8.6089,8.6089,8.6089,8.6089,8.6089,8.6089,8.6089,8.6089,8.6089,8.6089,8.6089,8.6089,8.6089,8.6089,8.6089,8.6089,8.6089,8.6089,8.6089,8.6089,8.6089,8.6089,8.6089,8.6089,8.6089,8.6089,8.6089,6.138,6.2175,6.3013,6.3876,6.4677,6.5515,6.6292,6.7106,6.77,6.77,6.77,6.77,6.77,6.77,6.77,6.77,6.8353,6.8881,6.8895,7.028,7.1281,0.0,0.0,0.0,0.0,0.0,0.0,0.0,0.0,0.0,0.0,7.6848,7.6922,7.613,7.6848,7.7281,7.7289,7.7289,7.7281,7.7281,7.7281,7.7281,7.7281,7.7281,7.7936,0.0,0.0,0.0,0.0,7.728,7.728,7.728,7.7288,7.9292,8.1989,8.0381,8.014,8.0614,8.0614,8.15,8.2574,8.2574,8.3618,8.4885,8.4854,8.3806,8.2745,8.3397,8.3601,8.3789,8.4666,8.4897,8.5089,8.5897,8.6089,8.6089,8.6089,8.6089,8.6089,8.6089,8.6089,8.6089,8.6089,8.6089,8.6089,8.6089,8.6089,8.6089,8.6089,8.6089,8.6089,8.6089,8.6089,8.6089,8.6089,8.6089,8.6089,8.6089,8.6089,8.6089,8.6089,8.6089,8.6089,8.6089,8.6089,8.6089,8.6089,8.6089,8.6089,8.6089,8.6089,8.6089,6.138,6.2628,6.3766,6.4023,6.5124,6.6182,6.6439,6.7106,6.77,6.77,6.77,6.77,6.77,6.77,6.77,6.77,6.8382,6.9104,0.0,0.0,0.0,7.2034,0.0,0.0,0.0,0.0,0.0,0.0,0.0,0.0,0.0,7.7179,7.7179,7.6922,7.7179,7.7281,7.7281,7.7281,7.7281,7.7318,7.7913,7.8185,7.8214,7.8772,0.0,0.0,0.0,0.0,0.0,8.0194,8.0646,8.0638,8.064,8.1275,8.2135,8.1611,8.1547,8.1678,8.1678,8.1977,8.2321,8.2321,8.2678,8.3155,8.3609,8.4344,8.5022,8.5244,8.5324,8.5363,8.5666,8.5705,8.5782,8.6051,8.6089,8.6089,8.6089,8.6089,8.6089,8.6089,8.6089,8.6089,8.6089,8.6089,8.6089,8.6089,8.6089,8.6089,8.6089,8.6089,8.6089,8.6089,8.6089,8.6089,8.6089,8.6089,8.6089,8.6089,8.6089,8.6089,8.6089,8.6089,8.6089,8.6089,8.6089,8.6089,8.6089,8.6089,8.6089,8.6089,8.6089,8.6089,6.1814,6.3062,6.417,6.4494,6.5521,6.6586,6.6886,6.7327,6.77,6.77,6.77,6.77,6.77,6.77,6.7814,6.8101,6.8846,6.9629,7.046,0.0,0.0,0.0,0.0,0.0,0.0,0.0,0.0,0.0,0.0,0.0,0.0,7.7281,7.7281,7.7281,7.7281,7.7281,7.7281,7.7619,7.7803,7.781,7.8662,7.9037,7.9074,7.9559,0.0,0.0,0.0,0.0,0.0,8.1772,8.2188,8.2217,8.219,8.2202,8.2194,8.2211,8.2194,8.2194,8.2194,8.2204,8.2235,8.248,8.274,8.3038,8.3447,8.4588,8.5714,8.5714,8.5881,8.6089,8.6089,8.6089,8.6089,8.6089,8.6089,8.6089,8.6089,8.6089,8.6089,8.6089,8.6089,8.6089,8.6089,8.6089,8.6089,8.6089,8.6089,8.6089,8.6089,8.6089,8.6089,8.6089,8.6089,8.6089,8.6089,8.6089,8.6089,8.6089,8.6089,8.6089,8.6089,8.6089,8.6089,8.6089,8.6089,8.6089,8.6089,8.6089,8.6089,8.6089,8.6089,8.6089,0.0,6.3539,6.4353,6.5111,6.5955,6.6776,6.7517,6.77,0.0,6.77,6.77,6.77,6.77,6.77,6.7973,6.8755,6.9585,7.0378,7.1186,7.1998,0.0,0.0,0.0,0.0,0.0,0.0,0.0,0.0,0.0,0.0,0.0,7.7281,7.7318,7.7391,7.7391,7.7391,7.7391,7.8259,7.8699,7.8707,7.9515,7.989,7.989,7.9918,0.0,0.0,0.0,0.0,0.0,8.2194,8.2194,8.2194,8.2194,8.2194,8.2194,8.2194,8.2194,8.2194,8.2194,8.2192,8.2294,8.291,8.3556,8.4048,8.4048,8.4525,8.5053,8.5053,8.5495,8.5958,8.5958,8.5958,8.5958,8.5958,8.5958,8.5967,8.6035,8.6043,8.6052,8.6085,8.6089,8.6089,8.6089,8.6089,8.6089,8.6089,8.6089,8.6089,8.6089,8.6089,8.6089,8.6089,8.6089,8.6089,8.6089,8.6089,8.6089,8.6089,8.6089,8.6089,8.6089,8.6089,8.6089,8.6089,8.6089,8.6089,8.6089,8.6089,8.6089,8.6089,8.6089,8.6089,6.3399,0.0,6.5074,6.5251,6.6366,6.748,0.0,6.77,0.0,0.0,0.0,6.77,6.77,6.77,6.796,6.8781,6.9595,7.0392,7.1198,0.0,0.0,0.0,0.0,0.0,0.0,0.0,0.0,0.0,0.0,0.0,0.0,7.7281,7.7619,7.8259,7.8288,7.8288,7.8288,7.9111,7.9515,7.9515,8.0314,8.0718,8.0755,8.135,0.0,0.0,0.0,0.0,8.2194,8.2194,8.2194,8.2194,8.2194,8.2194,8.2194,8.2194,8.2194,8.2194,8.2194,8.2206,8.2218,8.2381,8.2552,8.2678,8.2678,8.3495,8.4414,8.4414,8.4525,8.4634,8.4634,8.4634,8.4634,8.4634,8.4634,8.4757,8.5255,8.5345,8.5499,8.5984,8.6089,8.6089,8.6089,8.6089,8.6089,8.6089,8.6089,8.6089,8.6089,8.6089,8.6089,8.6089,8.6089,8.6089,8.6089,8.6089,8.6089,8.6089,8.6089,8.6089,8.6089,8.6089,8.6089,8.6089,8.6089,8.6089,8.6089,8.6089,8.6089,8.6089,8.6089,8.6089,6.3729,6.4677,6.5405,6.5772,6.6776,6.77,6.77,0.0,0.0,0.0,0.0,0.0,6.77,0.0,0.0,6.932,7.012,7.1058,0.0,0.0,0.0,0.0,0.0,0.0,0.0,0.0,0.0,0.0,0.0,0.0,0.0,7.7693,7.8104,7.8589,7.9323,7.9507,7.9147,7.9955,8.0359,8.0359,8.1158,8.1562,8.1562,8.2011,8.2194,0.0,0.0,0.0,8.2194,8.2194,8.2194,8.2194,8.2194,8.2194,8.2194,8.2194,8.2194,8.2194,8.2194,8.2194,8.2194,8.2194,8.2194,8.2194,8.2194,8.2724,8.3366,8.3664,8.3953,8.4264,8.4542,8.4617,8.469,8.4995,8.5058,8.5179,8.5495,8.5556,8.5673,8.6043,8.6089,8.6089,8.6089,8.6089,8.6089,8.6089,8.6089,8.6089,8.6089,8.6089,8.6089,8.6089,8.6089,8.6089,8.6089,8.6089,8.6089,8.6089,8.6089,8.6089,8.6089,8.6089,8.6089,8.6089,8.6089,8.6089,8.6089,8.6089,8.6089,8.6089,8.6089,8.6089,6.4016,6.4787,6.5478,6.6292,6.7106,6.77,6.77,0.0,0.0,0.0,0.0,0.0,0.0,0.0,0.0,0.0,0.0,0.0,0.0,0.0,0.0,0.0,0.0,0.0,0.0,0.0,0.0,0.0,0.0,0.0,0.0,7.8214,7.8699,7.8956,8.0277,8.0718,8.0183,8.0828,8.1187,8.1195,8.1856,8.2194,8.2194,8.2194,8.2194,0.0,0.0,0.0,8.2194,8.2194,8.2194,8.2194,8.2194,8.2194,8.2194,8.2194,8.2194,8.2194,8.2194,8.2194,8.2194,8.2194,8.2194,8.2194,8.2194,8.2194,8.2311,8.2906,8.3454,8.4017,8.451,8.4647,8.4812,8.536,8.5504,8.5528,8.5641,8.5659,8.57,8.5924,8.5855,8.5828,8.5937,8.595,8.595,8.595,8.6048,8.6089,8.6089,8.6089,8.6089,8.6089,8.6089,8.6089,8.6089,8.6089,8.6089,8.6089,8.6089,8.6089,8.6089,8.6089,8.6089,8.6089,8.6089,8.6089,8.6089,8.6089,8.6089,8.6089,8.6089,8.6089,6.4707,6.5221,6.5478,6.6292,6.7106,6.77,0.0,0.0,0.0,0.0,0.0,0.0,0.0,0.0,0.0,0.0,0.0,0.0,0.0,0.0,0.0,0.0,0.0,0.0,0.0,0.0,0.0,0.0,0.0,0.0,0.0,7.8516,7.9213,8.06,8.0857,8.1269,8.1827,8.1937,8.2011,8.2011,8.2158,8.2194,8.2194,8.2194,8.2194,0.0,0.0,8.2194,8.2194,8.2194,8.2194,8.2194,8.2194,8.2194,8.2194,8.2194,8.2194,8.2194,8.2194,8.2194,8.2194,8.2194,8.2194,8.2194,8.2194,8.2194,8.2219,8.2319,8.2447,8.2544,8.2624,8.2662,8.2656,8.2785,8.2816,8.2958,8.3536,8.3633,8.3979,8.502,8.4828,8.4645,8.5162,8.5237,8.5237,8.5237,8.5723,8.6089,8.6089,8.6089,8.6089,8.6089,8.6089,8.6089,8.6089,8.6089,8.6089,8.6089,8.6089,8.6089,8.6089,8.6089,8.6089,8.6089,8.6089,8.6089,8.6089,8.6089,8.6089,8.6089,8.6089,8.6089,6.4958,6.5608,6.6135,6.6966,6.7444,6.77,0.0,0.0,0.0,0.0,0.0,0.0,0.0,0.0,0.0,0.0,0.0,0.0,0.0,0.0,0.0,0.0,0.0,0.0,0.0,0.0,0.0,0.0,0.0,0.0,0.0,0.0,8.0241,8.0967,8.1415,8.1819,8.2194,8.2194,8.2194,8.2194,8.2194,8.2194,8.2194,8.2194,8.2194,8.2194,0.0,8.2194,8.2194,8.2194,8.2194,8.2194,8.2194,8.2194,8.2194,8.2194,8.2194,8.2194,8.2194,8.2194,8.2194,8.2194,8.2194,8.2194,8.2194,8.2194,8.2194,8.2194,8.2194,8.2263,8.2647,8.2725,8.2838,8.3189,8.3289,8.3387,8.3684,8.372,8.3908,8.4508,8.439,8.4288,8.4571,8.4617,8.4617,8.4617,8.4893,8.5205,8.5518,8.5556,8.5696,8.6064,8.6089,8.6089,8.6089,8.6089,8.6089,8.6089,8.6089,8.6089,8.6089,8.6089,8.6089,8.6089,8.6089,8.6089,8.6089,8.6089,8.6089,8.6089,8.6089,8.6089,6.5094,6.5891,6.6675,6.7487,0.0,0.0,0.0,0.0,0.0,0.0,0.0,0.0,0.0,0.0,0.0,0.0,0.0,0.0,0.0,0.0,0.0,0.0,0.0,0.0,0.0,0.0,0.0,0.0,0.0,0.0,0.0,0.0,8.1077,8.1269,8.1893,8.2194,8.2194,8.2194,8.2194,8.2194,8.2194,8.2194,8.2194,8.2194,8.2194,8.2194,8.2194,8.2194,8.2194,8.2194,8.2194,8.2194,8.2194,8.2194,8.2194,8.2194,8.2194,8.2194,8.2194,8.2194,8.2194,8.2194,8.2194,8.2194,8.2194,8.2194,8.2194,8.2194,8.2194,8.2311,8.2838,8.2965,8.3111,8.3617,8.3713,8.3713,8.3713,8.3713,8.3766,8.3928,8.3824,8.3766,8.3928,8.396,8.396,8.396,8.4092,8.4372,8.4828,8.4882,8.509,8.5613,8.565,8.5696,8.5846,8.5992,8.6089,8.6089,8.6089,8.6089,8.6089,8.6089,8.6089,8.6089,8.6089,8.6089,8.6089,8.6089,8.6089,8.6089,8.6089,8.6089,6.5072,6.5887,6.6675,0.0,0.0,0.0,0.0,0.0,0.0,0.0,0.0,0.0,0.0,0.0,0.0,0.0,0.0,0.0,0.0,0.0,0.0,0.0,0.0,0.0,0.0,0.0,0.0,0.0,0.0,0.0,0.0,0.0,0.0,8.2084,8.2158,8.2194,8.2194,8.2194,8.2194,8.2194,8.2194,8.2194,8.2194,8.2194,8.2194,8.2194,8.2194,8.2194,8.2194,8.2194,8.2194,8.2194,8.2194,8.2194,8.2194,8.2194,8.2194,8.2194,8.2194,8.2194,8.2194,8.2194,8.2194,8.2194,8.2194,8.2194,8.2194,8.2194,8.2194,8.2203,8.2267,8.2284,8.2263,8.2327,8.2343,8.2343,8.2343,8.2343,8.2536,8.3139,8.2763,8.2552,8.3161,8.3282,8.3282,8.3282,8.3785,8.4209,8.4258,8.4264,8.4282,8.4331,8.4337,8.4565,8.5131,8.5728,8.6089,8.6089,8.6089,8.6089,8.6089,8.6089,8.6089,8.6089,8.6089,8.6089,8.6089,8.6089,8.6089,8.6089,8.6089,8.6089,6.5837,6.6639,0.0,0.0,0.0,0.0,0.0,0.0,0.0,0.0,0.0,0.0,0.0,0.0,0.0,0.0,0.0,0.0,0.0,0.0,0.0,0.0,0.0,0.0,0.0,0.0,0.0,0.0,0.0,0.0,0.0,0.0,0.0,8.2194,8.2194,8.2194,8.2194,8.2194,8.2194,8.2194,8.2194,8.2194,8.2194,8.2194,8.2194,8.2194,8.2194,8.2194,8.2194,8.2194,8.2194,8.2194,8.2194,8.2194,8.2194,8.2194,8.2194,8.2194,8.2194,8.2194,8.2194,8.2194,8.2194,8.2194,8.2194,8.2194,8.2194,8.2194,8.2194,8.2194,8.2194,8.2194,8.2194,8.2194,8.2194,8.2194,8.2194,8.2194,8.2255,8.2544,8.2375,8.23,8.2544,8.2562,8.2562,8.2562,8.2793,8.3096,8.3529,8.3583,8.3757,8.4154,8.4191,8.4288,8.4513,8.4751,8.5069,8.5432,8.5855,8.6089,8.6089,8.6089,8.6089,8.6089,8.6089,8.6089,8.6089,8.6089,8.6089,8.6089,8.6089,8.6089,6.6284,6.7079,6.77,0.0,0.0,0.0,0.0,0.0,0.0,0.0,0.0,0.0,0.0,0.0,0.0,0.0,0.0,0.0,0.0,0.0,0.0,0.0,0.0,0.0,0.0,0.0,0.0,0.0,0.0,0.0,0.0,0.0,0.0,0.0,8.2194,8.2194,8.2194,8.2194,8.2194,8.2194,8.2194,8.2194,8.2194,8.2194,8.2194,8.2194,8.2194,8.2194,8.2194,8.2194,8.2194,8.2194,8.2194,8.2194,8.2194,8.2194,8.2194,8.2194,8.2194,8.2194,8.2194,8.2194,8.2194,8.2194,8.2194,8.2194,8.2194,8.2194,8.2194,8.2194,8.2194,8.2194,8.2194,8.2194,8.2194,8.2194,8.2194,8.2194,8.2194,8.2194,8.2194,8.2194,8.2194,8.2194,8.2194,8.2194,8.2194,8.2367,8.2831,8.2861,8.3075,8.3522,8.3777,8.387,8.3894,8.4067,8.4378,8.479,8.5255,8.5673,8.6081,8.6089,8.6089,8.6089,8.6089,8.6089,8.6089,8.6089,8.6089,8.6089,8.6089,8.6089,6.6287,6.7099,0.0,0.0,0.0,0.0,0.0,0.0,0.0,0.0,0.0,0.0,0.0,0.0,0.0,0.0,0.0,0.0,0.0,0.0,0.0,0.0,0.0,0.0,0.0,0.0,0.0,0.0,0.0,0.0,0.0,0.0,0.0,0.0,8.2194,8.2194,8.2194,8.2194,8.2194,8.2194,8.2194,8.2194,8.2194,8.2194,8.2194,8.2194,8.2194,8.2194,8.2194,8.2194,8.2194,8.2194,8.2194,8.2194,8.2194,8.2194,8.2194,8.2194,8.2194,8.2194,8.2194,8.2194,8.2194,8.2194,8.2194,8.2194,8.2194,8.2194,8.2194,8.2194,8.2194,8.2194,8.2194,8.2194,8.2194,8.2194,8.2194,8.2194,8.2194,8.2194,8.2194,8.2194,8.2194,8.2194,8.2194,8.2194,8.2194,8.2194,8.2194,8.2194,8.2194,8.2194,8.2793,8.3189,8.3189,8.3785,8.4179,8.4185,8.4185,8.474,8.6048,8.6085,8.6085,8.6089,8.6089,8.6089,8.6089,8.6089,8.6089,8.6089,8.6089,8.6089,6.6969,6.7537,0.0,0.0,0.0,0.0,0.0,0.0,0.0,0.0,0.0,0.0,0.0,0.0,0.0,0.0,0.0,0.0,0.0,0.0,0.0,0.0,0.0,0.0,0.0,0.0,0.0,0.0,0.0,0.0,0.0,0.0,0.0,0.0,8.2194,8.2194,8.2194,8.2194,8.2194,8.2194,8.2194,8.2194,8.2194,8.2194,8.2194,8.2194,8.2194,8.2194,8.2194,8.2194,8.2194,8.2194,8.2194,8.2194,8.2194,8.2194,8.2194,8.2194,8.2194,8.2194,8.2194,8.2194,8.2194,8.2194,8.2194,8.2194,8.2194,8.2194,8.2194,8.2194,8.2194,8.2194,8.2194,8.2194,8.2194,8.2194,8.2194,8.2194,8.2194,8.2194,8.2194,8.2194,8.2194,8.2194,8.2194,8.2194,8.2194,8.2194,8.2194,8.2194,8.2194,8.2194,8.2383,8.2497,8.2497,8.2685,8.2994,8.3461,8.3495,8.408,8.5345,8.5389,8.5636,8.6085,8.6089,8.6089,8.6089,8.6089,8.6089,8.6089,8.6089,8.6089,6.7347,0.0,0.0,0.0,0.0,0.0,0.0,0.0,0.0,0.0,0.0,0.0,0.0,0.0,0.0,0.0,0.0,0.0,0.0,0.0,0.0,0.0,0.0,0.0,0.0,0.0,0.0,0.0,0.0,0.0,0.0,0.0,0.0,0.0,8.2194,8.2194,8.2194,8.2194,8.2194,8.2194,8.2194,8.2194,8.2194,8.2194,8.2194,8.2194,8.2194,8.2194,8.2194,8.2194,8.2194,8.2194,8.2194,8.2194,8.2194,8.2194,8.2194,8.2194,8.2194,8.2194,8.2194,8.2194,8.2194,8.2194,8.2194,8.2194,8.2194,8.2194,8.2194,8.2194,8.2194,8.2194,8.2194,8.2194,8.2194,8.2194,8.2194,8.2194,8.2194,8.2194,8.2194,8.2194,8.2194,8.2194,8.2194,8.2194,8.2194,8.2194,8.2194,8.2194,8.2194,8.2194,8.2194,8.2194,8.2194,8.2194,8.2375,8.2778,8.28,8.3385,8.4696,8.4746,8.5053,8.5687,8.57,8.5833,8.6089,8.6089,8.6089,8.6089,8.6089,8.6089,6.7487,0.0,0.0,0.0,0.0,0.0,0.0,0.0,0.0,0.0,0.0,0.0,0.0,0.0,0.0,0.0,0.0,0.0,0.0,0.0,0.0,0.0,0.0,0.0,0.0,0.0,0.0,0.0,0.0,0.0,0.0,0.0,0.0,8.2194,8.2194,8.2194,8.2194,8.2194,8.2194,0.0,8.2194,8.2194,8.2194,8.2194,8.2194,8.2194,8.2194,8.2194,8.2194,8.2194,8.2194,8.2194,8.2194,8.2194,8.2194,8.2194,8.2194,8.2194,8.2194,8.2194,8.2194,8.2194,8.2194,8.2194,8.2194,8.2194,8.2194,8.2194,8.2194,8.2194,8.2194,8.2194,8.2194,8.2194,8.2194,8.2194,8.2194,8.2194,8.2194,8.2194,8.2194,8.2194,8.2194,8.2194,8.2194,8.2194,8.2194,8.2194,8.2194,8.2194,8.2194,8.2194,8.2194,8.2194,8.2194,8.2268,8.2296,8.2296,8.2378,8.2954,8.4179,8.4205,8.4513,8.5177,8.5268,8.5619,8.6205,8.6282,8.632,8.632,8.632,8.632,0.0,6.77,0.0,0.0,0.0,0.0,0.0,0.0,0.0,0.0,0.0,0.0,0.0,0.0,0.0,0.0,0.0,0.0,0.0,0.0,0.0,0.0,0.0,0.0,0.0,0.0,0.0,0.0,0.0,0.0,8.2194,8.2194,0.0,8.2194,8.2194,8.2194,8.2194,8.2194,8.2194,0.0,8.2194,8.2194,8.2194,8.2194,8.2194,8.2194,8.2194,8.2194,8.2194,8.2194,8.2194,8.2194,8.2194,8.2194,8.2194,8.2194,8.2194,8.2194,8.2194,8.2194,8.2194,8.2194,8.2194,8.2194,8.2194,8.2194,8.2194,8.2194,8.2194,8.2194,8.2194,8.2194,8.2194,8.2194,8.2194,8.2194,8.2194,8.2194,8.2194,8.2194,8.2194,8.2194,8.2194,8.2194,8.2194,8.2194,8.2194,8.2194,8.2194,8.2194,8.2194,8.2194,8.2194,8.2194,8.2194,8.2774,8.3132,8.3132,8.372,8.4224,8.4513,8.4312,8.4718,8.585,8.6564,8.6996,8.7132,8.7829,8.8137,8.8137,8.8137,8.8137,0.0,0.0,0.0,0.0,0.0,0.0,0.0,0.0,0.0,0.0,0.0,0.0,0.0,0.0,0.0,0.0,0.0,0.0,0.0,0.0,0.0,0.0,0.0,0.0,0.0,0.0,0.0,0.0,0.0,8.2194,8.2194,8.2194,8.2194,8.2194,8.2194,8.2194,8.2194,8.2194,8.2194,8.2194,8.2194,8.2194,8.2194,8.2194,8.2194,8.2194,8.2194,8.2194,8.2194,8.2194,8.2194,8.2194,8.2194,8.2194,8.2194,8.2194,8.2194,8.2194,8.2194,8.2194,8.2194,8.2194,8.2194,8.2194,8.2194,8.2194,8.2194,8.2194,8.2194,8.2194,8.2194,8.2194,8.2304,8.27,8.248,8.2194,8.2194,8.2194,8.2194,8.2194,8.2194,8.2194,8.2194,8.2517,8.2765,8.2765,8.3104,8.3361,8.3361,8.3361,8.3361,8.3361,8.3361,8.3361,8.3361,8.372,8.3976,8.3976,8.4389,8.4755,8.5086,8.4943,8.5178,8.5838,8.6605,8.7187,8.7514,8.8298,8.8718,8.8718,8.8718,8.8718,0.0,0.0,0.0,0.0,0.0,0.0,0.0,0.0,0.0,0.0,0.0,0.0,0.0,0.0,0.0,0.0,0.0,0.0,0.0,0.0,0.0,0.0,0.0,0.0,0.0,0.0,0.0,0.0,0.0,8.2194,8.2194,8.2194,8.2194,8.2194,8.2194,8.2194,8.2194,8.2194,8.2194,8.2194,8.2194,8.2194,8.2194,8.2194,8.2194,8.2194,8.2194,8.2194,8.2194,8.2194,8.2194,8.2194,8.2194,8.2194,8.2194,8.2194,8.2194,8.2194,8.2194,8.2194,8.2194,8.2194,8.2194,8.2194,8.2194,8.2215,8.2243,8.2406,8.2525,8.259,8.259,8.259,8.2774,8.3463,8.3096,8.259,8.259,8.259,8.259,8.259,8.259,8.259,8.259,8.3169,8.3609,8.3609,8.416,8.4609,8.4609,8.4609,8.4609,8.4609,8.4609,8.4609,8.4609,8.4719,8.4792,8.4792,8.4939,8.5255,8.5824,8.5855,8.5855,8.5855,8.65,8.7075,8.7661,8.8403,8.8772,8.8772,8.8772,8.8818,0.0,0.0,0.0,0.0,0.0,0.0,0.0,0.0,0.0,0.0,0.0,0.0,0.0,0.0,0.0,0.0,0.0,0.0,0.0,0.0,0.0,0.0,0.0,0.0,0.0,0.0,0.0,0.0,8.2194,8.2194,8.2194,8.2194,8.2194,8.2194,8.2194,8.2194,8.2194,8.2194,8.2194,8.2194,8.2194,8.2194,8.2194,8.2194,8.2194,8.2194,8.2194,8.2194,8.2194,8.2194,8.2194,8.2194,8.2194,8.2194,8.2194,8.2194,8.2194,8.2194,8.2194,8.2194,8.2194,8.2194,8.2194,8.2194,8.2194,8.2202,8.241,8.3324,8.3928,8.4278,8.4278,8.4278,8.4315,8.4417,8.4352,8.4278,8.4278,8.4278,8.4278,8.4278,8.4278,8.4278,8.4278,8.4389,8.4454,8.4454,8.4527,8.4609,8.4609,8.4609,8.4609,8.4609,8.4609,8.4609,8.4609,8.5241,8.5645,8.5645,8.6297,8.6707,8.6827,8.6827,8.6827,8.6827,8.7369,8.7694,8.7783,8.8646,8.9042,8.9042,8.9042,8.9345,6.77,6.77,6.8008,0.0,6.9836,0.0,0.0,0.0,0.0,0.0,0.0,0.0,0.0,0.0,0.0,0.0,0.0,0.0,0.0,0.0,0.0,0.0,0.0,0.0,0.0,0.0,0.0,0.0,8.2194,8.2194,8.2194,8.2194,8.2194,8.2194,8.2194,8.2194,8.2194,8.2194,8.2194,8.2194,8.2194,8.2194,8.2194,8.2194,8.2194,8.2194,8.2194,8.2194,8.2194,8.2194,8.2194,8.2194,8.2194,8.2194,8.2194,8.2194,8.2194,8.2194,8.2194,8.2194,8.2186,8.2194,8.2214,8.2206,8.2193,8.2217,8.2673,8.4958,8.576,8.5809,8.519,8.5063,8.5091,8.5241,8.5278,8.5416,8.5857,8.5224,8.4609,8.4609,8.4609,8.4609,8.4609,8.4976,8.5278,8.5278,8.5673,8.5922,8.5922,8.5922,8.5922,8.5922,8.5922,8.5922,8.5922,8.6261,8.6481,8.6481,8.6803,8.6986,8.6986,8.6986,8.6986,8.6986,8.7643,8.7956,8.7963,8.8728,8.9115,8.9115,8.9115,8.9238,0.0,0.0,6.8325,6.9737,7.0241,7.0784,0.0,0.0,0.0,0.0,0.0,0.0,0.0,0.0,0.0,0.0,0.0,0.0,0.0,0.0,0.0,0.0,0.0,0.0,0.0,0.0,0.0,0.0,8.2194,8.2194,8.2194,8.2194,8.2194,8.2194,8.2194,8.2194,8.2194,8.2194,8.2194,8.2194,8.2194,8.2194,8.2194,8.2194,8.2194,8.2194,8.2194,8.2194,8.2194,8.2194,8.2194,8.2194,8.2194,8.2194,8.2194,8.2194,8.2194,8.2231,8.2525,8.2435,8.2211,8.2213,8.276,8.3413,8.3419,8.3422,8.3904,8.6312,8.6996,8.6807,8.6015,8.5815,8.5871,8.6057,8.6114,8.6261,8.6876,8.6069,8.5224,8.5224,8.5224,8.5224,8.5224,8.571,8.6114,8.6114,8.6628,8.6986,8.6986,8.6986,8.6986,8.6986,8.6986,8.6986,8.6986,8.6986,8.6986,8.6986,8.6986,8.6986,8.6986,8.6986,8.6986,8.6986,8.7538,8.782,8.782,8.8323,8.8565,8.8565,8.8565,8.8663,0.0,6.8245,0.0,6.9898,7.0657,0.0,0.0,0.0,0.0,0.0,0.0,0.0,0.0,0.0,0.0,0.0,0.0,0.0,0.0,0.0,0.0,0.0,0.0,0.0,0.0,0.0,0.0,0.0,8.2194,8.2194,8.2194,8.2194,8.2194,8.2194,8.2194,8.2194,8.2194,8.2194,8.2194,8.2194,8.2194,8.2194,8.2194,8.2194,8.2194,8.2194,8.2194,8.2194,8.2194,8.2194,8.2194,8.2194,8.2194,8.2194,8.2194,8.2194,8.2194,8.2341,8.3349,8.3054,8.2205,8.2195,8.4245,8.6736,8.6764,8.6742,8.6793,8.6957,8.7007,8.6995,8.6921,8.6913,8.6913,8.6913,8.6949,8.6949,8.6986,8.6949,8.6876,8.6876,8.6876,8.6876,8.6876,8.6913,8.6949,8.6949,8.6986,8.6986,8.6986,8.6986,8.6986,8.6986,8.6986,8.6986,8.6986,8.6986,8.6986,8.6986,8.6986,8.6986,8.6986,8.6986,8.6986,8.6986,8.7029,8.7055,8.7055,8.7106,8.7124,8.7124,8.7124,8.7472,0.0,0.0,0.0,6.9891,7.0694,7.1493,7.2327,7.2488,7.2855,7.4213,7.4691,7.5307,0.0,0.0,0.0,0.0,0.0,0.0,0.0,0.0,0.0,0.0,0.0,0.0,0.0,0.0,0.0,0.0,0.0,8.2194,8.2194,8.2194,8.2194,8.2194,8.2194,8.2194,8.2194,8.2194,8.2194,8.2194,8.2194,8.2194,8.2194,8.2194,8.2194,8.2194,8.2194,8.2194,8.2194,8.2194,8.2194,8.2194,8.2194,8.2194,8.226,8.2774,8.2986,8.2932,8.2825,8.3199,8.3898,8.4959,8.6052,8.6991,8.6996,8.699,8.7001,8.7001,8.7012,8.6986,8.6986,8.6986,8.6986,8.6986,8.6986,8.6986,8.6986,8.6986,8.6986,8.6986,8.6986,8.6986,8.6986,8.6986,8.6986,8.6986,8.6986,8.6986,8.6986,8.6986,8.6986,8.6986,8.6986,8.6986,8.6986,8.6986,8.6986,8.6986,8.6986,8.6986,8.6986,8.6986,8.6986,8.6986,8.6986,8.6986,8.6986,8.6986,8.6986,8.6986,8.6986,8.7121,6.7657,0.0,0.0,0.0,0.0,7.183,7.2371,0.0,7.3266,7.4617,7.5131,7.5718,7.7061,7.7281,7.7281,0.0,0.0,0.0,0.0,0.0,0.0,0.0,0.0,0.0,0.0,0.0,0.0,0.0,0.0,0.0,8.2194,8.2194,8.2194,8.2194,8.2194,8.2194,8.2194,8.2194,8.2194,8.2194,8.2194,8.2194,8.2194,8.2194,8.2194,8.2194,8.2194,8.2194,8.2194,8.2194,8.2194,8.2231,8.248,8.259,8.27,8.3499,8.392,8.3985,8.3467,8.4223,8.5577,8.664,8.7016,8.7007,8.7003,8.6986,8.6986,8.6986,8.6986,8.6986,8.6986,8.6986,8.6986,8.6986,8.6986,8.6986,8.6986,8.6986,8.6986,8.6986,8.6986,8.6986,8.6986,8.6986,8.6986,8.6986,8.6986,8.6986,8.6986,8.6986,8.6986,8.6986,8.6986,8.6986,8.6986,8.6986,8.6986,8.6986,8.6986,8.6986,8.6986,8.6986,8.6986,8.6986,8.6986,8.6986,8.6986,8.6986,8.6986,8.6986,8.6986,8.6986,0.0,0.0,0.0,0.0,0.0,0.0,7.2488,0.0,7.3927,7.472,7.5535,7.635,7.7134,7.7281,7.7281,7.7281,7.7281,7.7281,0.0,0.0,0.0,0.0,0.0,0.0,0.0,0.0,0.0,0.0,8.2194,8.2194,8.2194,8.2194,8.2194,8.2194,8.2194,8.2194,8.2194,8.2194,8.2194,8.2194,8.2194,8.2194,8.2194,8.2194,8.2194,8.2194,8.2194,8.2194,8.2194,8.2194,8.2223,8.2296,8.3096,8.3418,8.3536,8.4352,8.4973,8.5419,8.5445,8.612,8.7013,8.6984,8.6986,8.6986,8.6986,8.6986,8.6986,8.6986,8.6986,8.6986,8.6986,8.6986,8.6986,8.6986,8.6986,8.6986,8.6986,8.6986,8.6986,8.6986,8.6986,8.6986,8.6986,8.6986,8.6986,8.6986,8.6986,8.6986,8.6986,8.6986,8.6986,8.6986,8.6986,8.6986,8.6986,8.6986,8.6986,8.6986,8.6986,8.6986,8.6986,8.6986,8.6986,8.6986,8.6986,8.6986,8.6986,8.6986,8.6986,8.6986,8.6986,8.6986,6.8223,0.0,0.0,0.0,0.0,0.0,0.0,0.0,7.392,7.4734,7.5541,7.635,7.7134,7.7281,7.7281,7.7281,7.7281,7.7281,7.7281,7.8067,0.0,0.0,0.0,0.0,0.0,0.0,0.0,0.0,8.2194,8.2194,8.2194,8.2194,8.2194,8.2194,8.2194,8.2194,8.2194,8.2194,8.2194,8.2194,8.2194,8.2194,8.2194,8.2194,8.2194,8.2194,8.2194,8.2194,8.2194,8.2194,8.2553,8.3096,8.3316,8.3756,8.4389,8.5159,8.5453,8.5527,8.628,8.6746,8.6984,8.6995,8.6986,8.6986,8.6986,8.6986,8.6986,8.6986,8.6986,8.6986,8.6986,8.6986,8.6986,8.6986,8.6986,8.6986,8.6986,8.6986,8.6986,8.6986,8.6986,8.6986,8.6986,8.6986,8.6986,8.6986,8.6986,8.6986,8.6986,8.6986,8.6986,8.6986,8.6986,8.6986,8.6986,8.6986,8.6986,8.6986,8.6986,8.6986,8.6986,8.6986,8.6986,8.6986,8.6986,8.6986,8.6986,8.6986,8.6986,8.6986,8.6986,8.6986,0.0,0.0,0.0,0.0,0.0,0.0,7.2488,7.3377,7.4316,0.0,7.582,7.6738,7.7215,7.7281,7.7281,7.7281,7.7281,7.7281,7.7281,7.8324,7.9258,7.9743,0.0,0.0,0.0,8.2194,8.2194,8.2194,8.2194,8.2194,8.2194,8.2194,8.2194,8.2194,8.2194,8.2194,8.2194,8.2194,8.2194,8.2194,8.2194,8.2194,8.2194,8.2194,8.2194,8.2194,8.2194,8.2194,8.2231,8.2553,8.2986,8.3418,8.3756,8.438,8.5196,8.6004,8.6215,8.6162,8.6794,8.6986,8.6986,8.6986,8.6986,8.6986,8.6986,8.6986,8.6986,8.6986,8.6986,8.6986,8.6986,8.6986,8.6986,8.6986,8.6986,8.6986,8.6986,8.6986,8.6986,8.6986,8.6986,8.6986,8.6986,8.6986,8.6986,8.6986,8.6986,8.6986,8.6986,8.6986,8.6986,8.6986,8.6986,8.6986,8.6986,8.6986,8.6986,8.6986,8.6986,8.6986,8.6986,8.6986,8.6986,8.6986,8.6986,8.6986,8.6986,8.6986,8.6986,8.6986,8.6986,8.6986,0.0,0.0,0.0,0.0,0.0,0.0,7.2576,7.3648,7.4665,0.0,7.6062,7.7027,7.725,7.7212,7.715,7.715,7.7227,7.7281,7.7281,7.8736,7.9816,7.9816,8.1203,8.2194,8.2194,8.2194,8.2194,8.2194,8.2194,8.2194,8.2194,8.2194,8.2194,8.2194,8.2194,8.2194,8.2194,8.2194,8.2194,8.2194,8.2194,8.2194,8.2194,8.2194,8.2194,8.2194,8.2194,8.2194,8.226,8.3059,8.3454,8.3609,8.4417,8.5233,8.6012,8.6729,8.6986,8.6986,8.6986,8.6986,8.6986,8.6986,8.6986,8.6986,8.6986,8.6986,8.6986,8.6986,8.6986,8.6986,8.6986,8.6986,8.6986,8.6986,8.6986,8.6986,8.6986,8.6986,8.6986,8.6986,8.6986,8.6986,8.6986,8.6986,8.6986,8.6986,8.6986,8.6986,8.6986,8.6986,8.6986,8.6986,8.6986,8.6986,8.6986,8.6986,8.6986,8.6986,8.6986,8.6986,8.6986,8.6986,8.6986,8.6986,8.6986,8.6986,8.6986,8.6986,8.6986,8.6986,8.6986,8.6986,0.0,0.0,0.0,0.0,0.0,0.0,7.3155,7.2999,7.3183,0.0,7.5339,7.5378,7.6996,7.6628,7.6077,7.6077,7.6777,7.7281,7.7281,7.8736,7.9816,7.9816,8.1203,8.2194,8.2194,8.2194,8.2194,8.2194,8.2194,8.2194,8.2194,8.2194,8.2194,8.2194,8.2194,8.2194,8.2194,8.2194,8.2194,8.2194,8.2194,8.2194,8.2194,8.2194,8.2194,8.2194,8.2194,8.2194,8.226,8.3059,8.3793,8.4462,8.5233,8.604,8.6766,8.6949,8.6986,8.6986,8.6986,8.6986,8.6986,8.6986,8.6986,8.6986,8.6986,8.6986,8.6986,8.6986,8.6986,8.6986,8.6986,8.6986,8.6986,8.6986,8.6986,8.6986,8.6986,8.6986,8.6986,8.6986,8.6986,8.6986,8.6986,8.6986,8.6986,8.6986,8.6986,8.6986,8.6986,8.6986,8.6986,8.6986,8.6986,8.6986,8.6986,8.6986,8.6986,8.6986,8.6986,8.6986,8.6986,8.6986,8.6986,8.6986,8.6986,8.6986,8.6986,8.6986,8.6986,8.6986,8.6986,8.6986,0.0,0.0,0.0,7.1698,0.0,0.0,0.0,7.2802,7.2766,7.5514,7.5531,7.5361,7.6355,7.6555,7.6371,7.5891,7.6628,7.7281,7.7281,7.8398,7.9331,7.9743,8.0873,8.1746,8.2158,8.2194,8.2194,8.2194,8.2194,8.2194,8.2194,8.2194,8.2194,8.2194,8.2194,8.2194,8.2194,8.2194,8.2194,8.2194,8.2194,8.2194,8.2194,8.2194,8.2194,8.2194,8.2194,8.2194,8.2296,8.3499,8.4233,8.4682,8.5498,8.6297,8.6986,8.6986,8.6986,8.6986,8.6986,8.6986,8.6986,8.6986,8.6986,8.6986,8.6986,8.6986,8.6986,8.6986,8.6986,8.6986,8.6986,8.6986,8.6986,8.6986,8.6986,8.6986,8.6986,8.6986,8.6986,8.6986,8.6986,8.6986,8.6986,8.6986,8.6986,8.6986,8.6986,8.6986,8.6986,8.6986,8.6986,8.6986,8.6986,8.6986,8.6986,8.6986,8.6986,8.6986,8.6986,8.6986,8.6986,8.6986,8.6986,8.6986,8.6986,8.6986,8.6986,8.6986,8.6986,8.6986,8.6986,8.6986,0.0,0.0,0.0,0.0,0.0,7.132,0.0,0.0,0.0,7.5678,7.5755,7.5325,7.5727,0.0,0.0,7.546,0.0,0.0,0.0,7.7673,0.0,7.9669,8.0498,8.1342,8.2121,8.2194,8.2194,8.2194,8.2194,8.2194,8.2194,8.2194,8.2194,8.2194,8.2194,8.2194,8.2194,8.2194,8.2194,8.2194,8.2194,8.2194,8.2194,8.2194,8.2194,8.2194,8.2194,8.2194,8.2333,8.3948,8.4609,8.4682,8.5673,8.6444,8.6986,8.6986,8.6986,8.6986,8.6986,8.6986,8.6986,8.6986,8.6986,8.6986,8.6986,8.6986,8.6986,8.6986,8.6986,8.6986,8.6986,8.6986,8.6986,8.6986,8.6986,8.6986,8.6986,8.6986,8.6986,8.6986,8.6986,8.6986,8.6986,8.6986,8.6986,8.6986,8.6986,8.6986,8.6986,8.6986,8.6986,8.6986,8.6986,8.6986,8.6986,8.6986,8.6986,8.6986,8.6986,8.6986,8.6986,8.6986,8.6986,8.6986,8.6986,8.6986,8.6986,8.6986,8.6986,8.6986,8.6986,8.6986,0.0,0.0,0.0,0.0,7.0478,0.0,0.0,0.0,7.1915,7.6284,0.0,0.0,0.0,0.0,0.0,0.0,0.0,0.0,7.5011,7.6372,7.8031,7.9588,8.0498,8.1342,8.2121,8.2194,8.2194,8.2194,8.2194,8.2194,8.2194,8.2194,8.2194,8.2194,8.2194,8.2194,8.2194,8.2194,8.2194,8.2194,8.2194,8.2194,8.2194,8.2194,8.2194,8.2194,8.2194,8.2194,8.2333,8.3948,8.4609,8.4747,8.6252,8.6913,8.6986,8.6986,8.6986,8.6986,8.6986,8.6986,8.6986,8.6986,8.6986,8.6986,8.6986,8.6986,8.6986,8.6986,8.6986,8.6986,8.6986,8.6986,8.6986,8.6986,8.6986,8.6986,8.6986,8.6986,8.6986,8.6986,8.6986,8.6986,8.6986,8.6986,8.6986,8.6986,8.6986,8.6986,8.6986,8.6986,8.6986,8.6986,8.6986,8.6986,8.6986,8.6986,8.6986,8.6986,8.6986,8.6986,8.6986,8.6986,8.6986,8.6986,8.6986,8.6986,8.6986,8.6986,8.6986,8.6986,8.6986,8.6986,0.0,0.0,0.0,0.0,0.0,0.0,0.0,0.0,7.1472,0.0,0.0,0.0,0.0,0.0,0.0,0.0,7.4553,0.0,0.0,0.0,7.7913,0.0,0.0,0.0,8.2084,8.2194,8.2194,8.2194,8.2194,8.2194,8.2194,8.2194,8.2194,8.2194,8.2194,8.2194,8.2194,8.2194,8.2194,8.2194,8.2194,8.2194,8.2194,8.2194,8.2194,8.2194,8.2194,8.2194,8.2296,8.3613,8.4318,8.4756,8.6362,8.6986,8.6986,8.6986,8.6986,8.6986,8.6986,8.6986,8.6986,8.6986,8.6986,8.6986,8.6986,8.6986,8.6986,8.6986,8.6986,8.6986,8.6986,8.6986,8.6986,8.6986,8.6986,8.6986,8.6986,8.6986,8.6986,8.6986,8.6986,8.6986,8.6986,8.6986,8.6986,8.6986,8.6986,8.6986,8.6986,8.6986,8.6986,8.6986,8.6986,8.6986,8.6986,8.6986,8.6986,8.6986,8.6986,8.6986,8.6986,8.6986,8.6986,8.6986,8.6986,8.6986,8.6986,8.6986,8.6986,8.6986,8.6986,8.6986,6.7366,0.0,0.0,0.0,0.0,0.0,0.0,0.0,0.0,0.0,0.0,0.0,0.0,0.0,0.0,0.0,0.0,7.5508,0.0,7.6686,0.0,0.0,0.0,0.0,0.0,8.2194,8.2194,8.2194,8.2194,8.2194,8.2194,8.2194,8.2194,8.2194,8.2194,8.2194,8.2194,8.2194,8.2194,8.2194,8.2194,8.2194,8.2194,8.2194,8.2194,8.2194,8.2194,8.2194,8.226,8.3033,8.3856,8.4756,8.6362,8.6986,8.6986,8.6986,8.6986,8.6986,8.6986,8.6986,8.6986,8.6986,8.6986,8.6986,8.6986,8.6986,8.6986,8.6986,8.6986,8.6986,8.6986,8.6986,8.6986,8.6986,8.6986,8.6986,8.6986,8.6986,8.6986,8.6986,8.6986,8.6986,8.6986,8.6986,8.6986,8.6986,8.6986,8.6986,8.6986,8.6986,8.6986,8.6986,8.6986,8.6986,8.6986,8.6986,8.6986,8.6986,8.6986,8.6986,8.6986,8.6986,8.6986,8.6986,8.6986,8.6986,8.6986,8.6986,8.6986,8.6986,8.6986,8.6986,0.0,0.0,0.0,6.9197,0.0,0.0,0.0,0.0,7.2071,0.0,0.0,0.0,0.0,0.0,0.0,0.0,0.0,0.0,0.0,0.0,0.0,0.0,0.0,0.0,0.0,8.2194,8.2194,8.2194,8.2194,8.2194,8.2194,8.2194,8.2194,8.2194,8.2194,8.2194,8.2194,8.2194,8.2194,8.2194,8.2194,8.2194,8.2194,8.2194,8.2194,8.2194,8.2194,8.2194,8.2215,8.2245,8.3194,8.4756,8.6362,8.6986,8.6986,8.6986,8.6986,8.6986,8.6986,8.6986,8.6986,8.6986,8.6986,8.6986,8.6986,8.6986,8.6986,8.6986,8.6986,8.6986,8.6986,8.6986,8.6986,8.6986,8.6986,8.6986,8.6986,8.6986,8.6986,8.6986,8.6986,8.6986,8.6986,8.6986,8.6986,8.6986,8.6986,8.6986,8.6986,8.6986,8.6986,8.6986,8.6986,8.6986,8.6986,8.6986,8.6986,8.6986,8.6986,8.6986,8.6986,8.6986,8.6986,8.6986,8.6986,8.6986,8.6986,8.6986,8.6986,8.6986,8.6986,8.6986,0.0,0.0,6.8083,6.8335,0.0,0.0,0.0,0.0,0.0,0.0,0.0,0.0,0.0,0.0,0.0,0.0,0.0,0.0,0.0,0.0,0.0,0.0,0.0,0.0,0.0,0.0,8.2194,8.2194,8.2194,8.2194,8.2194,8.2194,8.2194,8.2194,8.2194,8.2194,8.2194,8.2194,8.2194,8.2194,8.2194,8.2194,8.2194,8.2194,8.2194,8.2194,8.2194,8.2194,8.2215,8.22,8.3774,8.6247,8.6781,8.6986,8.6986,8.6986,8.6986,8.6986,8.6986,8.6986,8.6986,8.6986,8.6986,8.6986,8.6986,8.6986,8.6986,8.6986,8.6986,8.6986,8.6986,8.6986,8.6986,8.6986,8.6986,8.6986,8.6986,8.6986,8.6986,8.6986,8.6986,8.6986,8.6986,8.6986,8.6986,8.6986,8.6986,8.6986,8.6986,8.6986,8.6986,8.6986,8.6986,8.6986,8.6986,8.6986,8.6986,8.6986,8.6986,8.6986,8.6986,8.6986,8.6986,8.6986,8.6986,8.6986,8.6986,8.6986,8.6986,8.6986,8.6986,8.6986,6.7203,6.7742,0.0,6.8648,6.9456,0.0,7.0524,0.0,0.0,0.0,0.0,0.0,0.0,0.0,0.0,0.0,0.0,0.0,0.0,7.688,0.0,0.0,0.0,0.0,0.0,8.2048,8.2194,8.2194,8.2194,8.2194,0.0,0.0,8.2194,8.2194,8.2194,8.2194,8.2194,8.2194,8.2194,8.2194,8.2194,8.2194,8.2194,8.2194,8.2194,8.2194,8.2194,8.2194,8.2215,8.22,8.411,8.6993,8.699,8.6986,8.6986,8.6986,8.6986,8.6986,8.6986,8.6986,8.6986,8.6986,8.6986,8.6986,8.6986,8.6986,8.717,8.8051,8.7647,8.7206,8.8051,8.7647,8.6986,8.6986,8.6986,8.6986,8.6986,8.6986,8.6986,8.6986,8.6986,8.6986,8.6986,8.6986,8.6986,8.6986,8.6986,8.6986,8.6986,8.6986,8.6986,8.6986,8.6986,8.6986,8.6986,8.6986,8.6986,8.6986,8.6986,8.6986,8.6986,8.6986,8.6986,8.6986,8.6986,8.6986,8.6986,8.6986,8.6986,8.6986,8.6986,8.6986]},{"header":{"parameterUnit":"m.s-1","parameterCategory":1,"la1":30.6,"la2":29.2853,"lo1":-89.7004,"lo2":-87.6739,"dy":0.0162,"dx":0.0183,"nx":112,"ny":82,"refTime":"2023-04-12T06:00:00:Z","depth":0,"parameterNumber":3,"parameterNumberName":"V-component_of_WINDS"},"data":[0.0,0.0,0.0,0.0,0.0,0.0,0.0,0.0,0.0,0.0,0.0,0.0,0.0,0.0,0.0,0.0,0.0,0.0,0.0,0.0,0.0,0.0,0.0,0.0,0.0,0.0,0.0,0.0,0.0,0.0,0.0,0.0,0.0,0.0,0.0,0.0,0.0,0.0,0.0,0.0,0.0,0.0,0.0,0.0,0.0,0.0,0.0,0.0,0.0,0.0,0.0,0.0,0.0,0.0,0.0,0.0,0.0,0.0,0.0,0.0,0.0,0.0,0.0,0.0,0.0,0.0,0.0,0.0,0.0,0.0,0.0,0.0,0.0,0.0,0.0,0.0,0.0,0.0,0.0,0.0,0.0,0.0,0.0,0.0,0.0,0.0,0.0,0.0,0.0,0.0,0.0,0.0,0.0,0.0,0.0,0.0,0.0,0.0,0.0,0.0,0.0,0.0,0.0,0.0,0.0,0.0,0.0,0.0,0.0,0.0,0.0,0.0,0.0,0.0,0.0,0.0,0.0,0.0,0.0,0.0,0.0,0.0,0.0,0.0,0.0,0.0,0.0,0.0,0.0,0.0,0.0,0.0,0.0,0.0,0.0,0.0,0.0,0.0,0.0,0.0,0.0,0.0,0.0,0.0,0.0,0.0,0.0,0.0,0.0,0.0,0.0,0.0,0.0,0.0,0.0,0.0,0.0,0.0,0.0,0.0,0.0,0.0,0.0,0.0,0.0,0.0,0.0,0.0,0.0,0.0,0.0,0.0,0.0,0.0,0.0,0.0,0.0,0.0,0.0,0.0,0.0,0.0,0.0,0.0,0.0,0.0,0.0,0.0,0.0,0.0,0.0,0.0,0.0,0.0,0.0,0.0,0.0,0.0,0.0,0.0,0.0,0.0,0.0,0.0,0.0,0.0,0.0,0.0,0.0,0.0,0.0,0.0,0.0,0.0,0.0,0.0,0.0,0.0,0.0,0.0,0.0,0.0,0.0,0.0,0.0,0.0,0.0,0.0,0.0,0.0,0.0,0.0,0.0,0.0,0.0,0.0,0.0,0.0,0.0,0.0,0.0,0.0,0.0,0.0,0.0,0.0,0.0,0.0,0.0,0.0,0.0,0.0,0.0,0.0,0.0,0.0,0.0,0.0,0.0,0.0,0.0,0.0,0.0,0.0,0.0,0.0,0.0,0.0,0.0,0.0,0.0,0.0,0.0,0.0,0.0,0.0,0.0,0.0,0.0,0.0,0.0,0.0,0.0,0.0,0.0,0.0,0.0,0.0,0.0,0.0,0.0,0.0,0.0,0.0,0.0,0.0,0.0,0.0,0.0,0.0,0.0,0.0,0.0,0.0,0.0,0.0,0.0,0.0,0.0,0.0,0.0,0.0,0.0,0.0,0.0,0.0,0.0,0.0,0.0,0.0,0.0,0.0,0.0,0.0,0.0,0.0,0.0,0.0,0.0,0.0,0.0,0.0,0.0,0.0,0.0,0.0,0.0,0.0,0.0,0.0,0.0,0.0,0.0,0.0,0.0,0.0,0.0,0.0,0.0,0.0,0.0,0.0,0.0,0.0,0.0,0.0,0.0,0.0,0.0,0.0,0.0,0.0,0.0,0.0,0.0,0.0,0.0,0.0,0.0,0.0,0.0,0.0,0.0,0.0,0.0,0.0,0.0,0.0,0.0,0.0,0.0,0.0,0.0,0.0,0.0,0.0,0.0,0.0,0.0,0.0,0.0,0.0,0.0,0.0,0.0,0.0,0.0,0.0,0.0,0.0,0.0,0.0,0.0,0.0,0.0,0.0,0.0,0.0,0.0,0.0,0.0,0.0,0.0,0.0,0.0,0.0,0.0,0.0,0.0,0.0,0.0,0.0,0.0,0.0,0.0,0.0,0.0,0.0,0.0,0.0,0.0,0.0,0.0,0.0,0.0,0.0,0.0,0.0,0.0,0.0,0.0,0.0,0.0,0.0,0.0,0.0,0.0,0.0,0.0,0.0,0.0,0.0,0.0,0.0,0.0,0.0,0.0,0.0,0.0,0.0,0.0,0.0,0.0,0.0,0.0,0.0,0.0,0.0,0.0,0.0,0.0,0.0,0.0,0.0,0.0,0.0,0.0,0.0,0.0,0.0,0.0,0.0,0.0,0.0,0.0,0.0,0.0,0.0,0.0,0.0,0.0,0.0,0.0,0.0,0.0,0.0,0.0,0.0,0.0,0.0,0.0,0.0,0.0,0.0,0.0,0.0,0.0,0.0,0.0,0.0,0.0,0.0,0.0,0.0,0.0,0.0,0.0,0.0,0.0,0.0,0.0,0.0,0.0,0.0,0.0,0.0,0.0,0.0,0.0,0.0,0.0,0.0,0.0,0.0,0.0,0.0,0.0,0.0,0.0,0.0,0.0,0.0,0.0,0.0,0.0,0.0,0.0,0.0,0.0,0.0,0.0,0.0,0.0,0.0,0.0,0.0,0.0,0.0,0.0,0.0,0.0,0.0,0.0,0.0,0.0,0.0,0.0,0.0,0.0,0.0,0.0,0.0,0.0,0.0,0.0,0.0,0.0,0.0,0.0,0.0,0.0,0.0,0.0,0.0,0.0,0.0,0.0,0.0,0.0,0.0,0.0,0.0,0.0,0.0,0.0,0.0,0.0,0.0,0.0,0.0,0.0,0.0,0.0,0.0,0.0,0.0,0.0,0.0,0.0,0.0,0.0,0.0,0.0,0.0,0.0,0.0,0.0,0.0,0.0,0.0,0.0,0.0,0.0,0.0,0.0,0.0,0.0,0.0,0.0,0.0,0.0,0.0,0.0,0.0,0.0,0.0,0.0,0.0,0.0,0.0,0.0,0.0,0.0,0.0,0.0,0.0,0.0,0.0,0.0,0.0,0.0,0.0,0.0,0.0,0.0,0.0,0.0,0.0,0.0,0.0,0.0,0.0,0.0,0.0,0.0,0.0,0.0,0.0,0.0,0.0,0.0,0.0,0.0,0.0,0.0,0.0,0.0,0.0,0.0,0.0,0.0,0.0,0.0,0.0,0.0,0.0,0.0,0.0,0.0,0.0,0.0,0.0,0.0,0.0,0.0,0.0,0.0,0.0,0.0,0.0,0.0,0.0,0.0,0.0,0.0,0.0,0.0,0.0,0.0,0.0,0.0,0.0,0.0,0.0,0.0,0.0,0.0,0.0,0.0,0.0,0.0,0.0,0.0,0.0,0.0,0.0,0.0,0.0,0.0,0.0,0.0,0.0,0.0,0.0,0.0,0.0,0.0,0.0,0.0,0.0,0.0,0.0,0.0,0.0,0.0,0.0,0.0,0.0,0.0,0.0,0.0,0.0,0.0,0.0,0.0,0.0,0.0,0.0,0.0,0.0,0.0,0.0,0.0,0.0,0.0,0.0,0.0,0.2081,0.2423,0.0146,0.0,0.0,0.0,0.0,0.0,0.0,0.0,0.0,0.0,0.0,0.0,0.0,0.0,0.0,0.0,0.0,0.0,0.0,0.0,0.0,0.0,0.0,0.0,0.0,0.0,0.0,0.0,0.0,0.0,0.0,0.0,0.0,0.0,0.0,0.0,0.0,0.0,0.0,0.0,0.0,0.0,0.0,0.0,0.0,0.0,0.0,0.0,0.0,0.0,0.0,0.0,0.0,0.0,0.0,0.0,0.0,0.0,0.0,0.0,0.0,0.0,0.0,0.0,0.0,0.0,0.0,0.0,0.0,0.0,0.0,0.0,0.0,0.0,0.0,0.0,0.0,0.0,0.0,0.0,0.0,0.0,0.0,0.0,0.0,0.0,0.0,0.0,0.0,0.0,0.0,0.0,0.0,0.0,0.0,0.0,0.0,0.0,0.0,0.0,0.0,0.0,0.0,0.0,0.0,0.0032,0.0113,0.0113,0.0097,0.0065,0.6565,0.7634,0.0,0.0,0.0,0.0,0.0,0.0,0.0,0.0,0.0,0.0,0.0,0.0,0.0,0.0,0.0,0.0,0.0,0.0,0.0,0.0,0.0,0.0,0.0,0.0,0.0,0.0,0.0,0.0,0.0,0.0,0.0,0.0,0.0,0.0,0.0,0.0,0.0,0.0,0.0,0.0,0.0,0.0,0.0,0.0,0.0,0.0,0.0,0.0,0.0,0.0,0.0,0.0,0.0,0.0,0.0,0.0,0.0,0.0,0.0,0.0,0.0,0.0,0.0,0.0,0.0,0.0,0.0,0.0,0.0,0.0,0.0,0.0,0.0,0.0,0.0,0.0,0.0,0.0,0.0,0.0,0.0,0.0,0.0,0.0,0.0,0.0,0.0,0.0,0.0,0.0,0.0,0.0,0.0,0.0,0.0,0.0,0.0,0.0,0.0,0.0,0.0,0.0,0.0,0.0,0.0,0.1932,0.7007,0.7542,0.6523,0.4027,0.5754,0.7131,0.7529,0.0,0.0,0.0,0.0,0.0,0.0,0.0,0.0,0.0,0.0,0.0,0.0,0.0,0.0,0.0,0.0,0.0,0.0,0.0,0.0,0.0,0.0,0.0,0.0,0.0,0.0,0.0,0.0,0.0,0.0,0.0,0.0,0.0,0.0,0.0,0.0,0.0,0.0,0.0,0.0,0.0,0.0,0.0,0.0,0.0,0.0,0.0,0.0,0.0,0.0,0.0,0.0,0.0,0.0,0.0,0.0,0.0,0.0,0.0,0.0,0.0,0.0,0.0,0.0,0.0,0.0,0.0,0.0,0.0,0.0,0.0,0.0,0.0,0.0,0.0,0.0,0.0,0.0,0.0,0.0,0.0,0.0,0.0,0.0,0.0,0.0,0.0,0.0,0.0,0.0,0.0,0.0,0.0,0.0,0.0,0.0,0.0,0.0,0.0,0.0,0.0,0.0,0.0,0.0,0.1644,0.5972,0.8996,0.9928,0.803,0.7644,0.8429,1.0567,0.0,0.0,0.0,0.0,0.0,0.0,0.0,0.0,0.0,0.0,0.0,0.0,0.0,0.0,0.0,0.0,0.0,0.0,0.0,0.0,0.0,0.0,0.0,0.0,0.0,0.0,0.0,0.0,0.0,0.0,0.0,0.0,0.0,0.0,0.0,0.0,0.0,0.0,0.0,0.0,0.0,0.0,0.0,0.0,0.0,0.0,0.0,0.0,0.0,0.0,0.0,0.0,0.0,0.0,0.0,0.0,0.0,0.0,0.0,0.0,0.0,0.0,0.0,0.0,0.0,0.0,0.0,0.0,0.0,0.0,0.0,0.0,0.0,0.0,0.0,0.0,0.0,0.0,0.0,0.0,0.0,0.0,0.0,0.0,0.0,0.0,0.0,0.0,0.0,0.0,0.0,0.0,0.0,0.0,0.0,0.0,0.0,0.0,0.0,0.0,0.0,0.0,0.0,0.0636,0.0945,0.0574,0.6663,1.0967,1.1526,1.1063,1.0746,1.0756,0.0,0.0,0.0,0.0,0.0,0.0,0.0,0.0,0.0,0.0,0.0,0.0,0.0,0.0,0.0,0.0,0.0,0.0,0.0,0.0,0.0,0.0,0.0,0.0,0.0,0.0,0.0,0.0,0.0,0.0,0.0,0.0,0.0,0.0,0.0,0.0,0.0,0.0,0.0,0.0,0.0,0.0,0.0,0.0,0.0,0.0,0.0,0.0,0.0,0.0,0.0,0.0,0.0,0.0,0.0,0.0,0.0,0.0,0.0,0.0,0.6998,0.0,0.0,0.0,0.0,0.0,0.0,0.0,0.0,0.0,0.0,0.0,0.0,0.0,0.0,0.0,0.0,0.0,0.0,0.0,0.0,0.0,0.0,0.0,0.0,0.0,0.0,0.0,0.0,0.0,0.0,0.0,0.0,0.0,0.0,0.0,0.0,0.0,0.0,0.0,0.0,0.0,0.0,0.5347,0.7958,0.4883,0.8525,1.1196,1.1289,1.1172,1.1097,1.1097,0.0,0.0,0.0,0.0,0.0,0.0,0.0,0.0,0.0,0.0,0.0,0.0,0.0,0.0,0.0,0.0,0.0,0.0,0.0,0.0,0.0,0.0,0.0,0.0,0.0,0.0,0.0,0.0,0.0,0.0,0.0,0.0,0.0,0.0,0.0,0.0,0.0,0.0,0.0,0.0,0.0,0.0,0.0,0.0,0.0,0.0,0.0,0.0,0.0,0.0,0.0,0.0,0.0,0.0,0.0,0.0,0.0,0.0,0.0,0.0,0.0,0.8987,0.0,0.0,0.0,0.0,0.0,0.0,0.0,0.0,0.0,0.0,0.0,0.0,0.0,0.0,0.0,0.0,0.0,0.0,0.0,0.0,0.0,0.0,0.0,0.0,0.0,0.0,0.0,0.0,0.0,0.0,0.0,0.0,0.0,0.0,0.0,0.0,0.0,0.0,0.0,0.0,0.557,0.7479,0.8754,0.8594,1.0296,1.1433,1.1399,1.1305,1.1263,1.1291,1.124,0.0,0.0,0.0,0.0,0.0,0.0,0.0,0.0,0.0,0.0,0.0,0.0,0.0,0.0,0.0,0.0,0.0,0.0,0.0,0.0,0.0,0.0,0.0,0.0,0.0,0.0,0.0,0.0,0.0,0.0,0.0,0.0,0.0,0.0,0.0,0.0,0.0,0.0,0.0,0.0,0.0,0.0,0.0,0.0,0.0,0.0,0.0,0.0,0.0,0.0,0.0,0.0,0.0,0.9347,0.9258,0.8991,0.8991,0.9005,0.9057,0.9058,0.9182,0.9404,0.0,0.0,0.0,0.0,0.0,0.0,0.0,0.0,0.0,0.0,0.0,0.0,0.0,0.0,0.0,0.0,0.0,0.0,0.0,0.0,0.0,0.0,0.0,0.0,0.0,0.6304,0.5518,0.0,0.0,0.0,0.0,0.0,0.0,0.0,0.0,0.0,0.0,0.0,0.0,1.1586,0.8858,0.8115,1.136,1.1689,1.1697,1.1688,1.1538,1.1453,1.1529,1.1424,1.1342,0.0,0.0,0.0,0.0,0.0,0.0,0.0,0.0,0.0,0.0,0.0,0.0,0.0,0.0,0.0,0.0,0.0,0.0,0.0,0.0,0.0,0.0,0.0,0.0,0.0,0.0,0.0,0.0,0.0,0.0,0.0,0.0,0.8424,0.8465,0.0,0.0,0.0,0.0,0.0,0.0,0.0,0.0,0.0,0.0,0.0,0.0,0.0,0.0,0.9307,0.9328,0.9348,0.9383,0.9397,0.9382,0.9338,0.9338,0.9454,0.9678,0.9672,0.0,0.9404,0.946,0.0,0.0,0.0,0.0,0.0,0.0,0.0,0.0,0.0,0.0,0.0,0.0,0.0,0.0,0.0,0.0,0.0,0.0,0.0,0.0,0.0,0.0,1.0542,0.9895,0.9874,0.995,0.0,0.782,0.6736,0.8877,0.0,0.0,0.0,0.0,0.0,0.0,0.0,0.0,1.1566,1.1474,1.1354,1.2046,1.206,1.2041,1.2035,1.2016,1.1998,1.2009,1.1989,1.1902,1.173,1.1608,0.0,0.0,0.0,0.0,0.0,0.0,0.0,0.0,0.0,0.0,0.0,0.0,0.0,0.0,0.0,0.0,0.0,0.0,0.0,0.0,0.0,0.0,0.0,0.0,0.0,0.0,0.0,0.0,0.0,0.8471,0.8526,0.8601,0.8608,0.8669,0.0,0.0,0.0,0.0,0.0,0.0,0.0,0.0,0.0,0.9308,0.9308,0.9342,0.9396,0.9396,0.9477,0.9632,0.9632,0.9623,0.9616,0.9616,0.9684,0.9822,1.0155,1.0155,0.9887,0.973,0.9695,0.9733,0.0,0.0,0.0,0.0,0.0,0.9907,0.9903,0.9905,0.0,0.0,0.0,0.0,0.0,0.0,0.0,0.0,0.0,0.0,0.0,0.0,0.0,1.0706,1.0825,1.1029,1.1176,0.9857,0.9113,0.0,0.9756,0.8795,0.9015,0.0,0.0,0.0,0.0,0.0,1.1911,1.207,1.2043,1.213,1.2123,1.2098,1.2098,1.2098,1.2098,1.2098,1.2098,1.207,1.1965,1.1916,1.1855,0.0,0.0,0.0,0.0,0.0,0.0,0.0,0.0,0.0,0.0,0.0,0.0,0.0,0.0,0.0,0.0,0.0,0.0,0.0,0.0,0.0,0.0,0.0,0.0,0.0,0.0,0.0,0.0,0.8587,0.8642,0.8743,0.8757,0.8811,0.0,0.0,0.0,0.0,0.0,0.0,0.9254,0.9349,0.943,0.9504,0.9511,0.9545,0.9627,0.9627,0.9735,0.9922,0.9891,0.9897,0.992,0.9841,0.9888,1.0063,1.0508,1.0582,1.0386,1.0084,1.0002,1.0077,1.0087,1.0174,1.0291,1.0304,1.0299,1.0299,1.0299,1.0299,1.0299,1.0299,0.0,1.0353,1.0353,0.0,0.0,0.0,0.0,1.0643,1.0778,1.0945,1.1038,1.0982,1.1084,1.122,1.1295,1.1298,1.1284,0.0,1.1169,1.1251,1.1559,0.0,0.0,0.0,0.0,1.2195,1.2217,1.2184,1.2154,1.2207,1.2195,1.2195,1.2195,1.2195,1.2195,1.2195,1.2195,1.2193,1.2159,1.2159,1.2139,1.2098,0.0,0.0,0.0,0.0,0.0,0.0,0.0,0.0,0.0,0.0,0.0,0.0,0.0,0.0,0.0,0.0,0.0,0.0,0.0,0.0,0.0,0.0,0.0,0.0,0.0,0.0,0.0,0.0,0.0,0.8885,0.8885,0.0,0.0,0.0,0.0,0.9362,0.9382,0.9382,0.9382,0.9389,0.9525,0.9773,0.978,0.9937,1.0252,1.0252,1.0258,1.0272,1.0145,1.0152,1.0261,0.9952,1.0117,1.0656,1.0688,1.0682,1.0663,1.0465,1.0333,1.028,1.0283,1.0294,1.0306,1.0299,1.0299,1.0299,1.0299,1.0299,1.0299,1.0299,1.0387,1.0496,1.0496,1.0667,0.0,0.0,1.1016,1.1159,1.1166,1.119,1.1196,1.1186,1.1193,1.1274,1.1513,1.1581,1.1493,0.0,1.1402,1.1581,1.1599,0.0,1.2096,1.2096,1.2091,1.2152,1.2283,1.2296,1.2332,1.2467,1.2481,1.2481,1.2481,1.2481,1.2481,1.2481,1.2481,1.242,1.2303,1.2296,1.2228,1.2104,1.2084,0.0,0.0,0.0,0.0,0.0,0.0,0.0,0.0,0.0,0.0,0.0,0.0,0.0,0.0,0.0,0.0,0.0,0.0,0.0,0.0,0.0,0.0,0.0,0.0,0.0,0.0,0.0,0.0,0.9076,0.909,0.0,0.0,0.9328,0.9349,0.9389,0.9557,0.9666,0.9666,0.9864,1.0027,1.0114,1.0114,1.0184,1.0292,1.0299,1.0324,1.0364,1.0315,1.0385,1.0552,1.0425,1.0706,1.1266,1.1091,1.1052,1.107,1.0965,1.0712,1.0438,1.0419,1.0475,1.0561,1.0561,1.0561,1.0575,1.066,1.0694,1.0708,1.0836,1.0914,1.0961,1.0961,1.1019,1.1084,1.1084,1.1142,1.12,1.12,1.1325,1.1457,1.1457,1.1624,1.1805,1.1896,1.1923,1.1889,1.1798,1.1866,1.1923,1.1923,1.2093,1.2228,1.2228,1.2303,1.2366,1.242,1.2427,1.2447,1.2494,1.2501,1.2501,1.2501,1.2501,1.2501,1.2501,1.2501,1.2481,1.2427,1.2427,1.24,1.2364,1.2276,1.2228,0.0,0.0,0.0,0.0,0.0,0.0,0.0,0.0,0.0,0.0,0.0,0.0,0.0,0.0,0.0,0.0,0.0,0.0,0.0,0.0,0.0,0.0,0.0,0.0,0.0,0.0,0.9123,0.9247,0.9275,0.9322,0.9457,0.9503,0.9551,0.9605,0.9836,0.9978,0.9978,1.0184,1.0319,1.0367,1.0367,1.0394,1.0426,1.0431,1.045,1.0495,1.0508,1.0565,1.0698,1.0697,1.1036,1.1591,1.1414,1.1317,1.1289,1.123,1.1025,1.0735,1.0741,1.0795,1.0867,1.0867,1.0867,1.0887,1.0965,1.1006,1.1019,1.1166,1.12,1.12,1.12,1.125,1.1332,1.1332,1.1424,1.1499,1.1499,1.1637,1.1769,1.1769,1.1936,1.2111,1.2166,1.2179,1.2174,1.2241,1.2207,1.2179,1.2179,1.2283,1.2359,1.2359,1.244,1.2501,1.2501,1.2501,1.2501,1.2501,1.2501,1.2501,1.2501,1.2501,1.2501,1.2501,1.2501,1.2501,1.2501,1.2501,1.2501,1.2501,1.2413,1.2358,1.231,0.0,0.0,0.0,0.0,0.0,0.0,0.0,0.0,0.0,0.0,0.0,0.0,0.0,0.0,0.0,0.0,0.0,0.0,0.0,0.0,0.0,0.0,0.0,0.922,0.9315,0.9402,0.9409,0.9409,0.947,0.9612,0.9739,0.9866,0.9999,1.0186,1.0306,1.0306,1.0313,1.0381,1.05,1.053,1.0582,1.0714,1.0712,1.0711,1.0717,1.0706,1.072,1.0737,1.0737,1.1044,1.1625,1.1614,1.1493,1.132,1.1244,1.1227,1.1227,1.1206,1.12,1.12,1.12,1.12,1.1213,1.1213,1.122,1.1227,1.1227,1.1227,1.1227,1.1227,1.1413,1.1615,1.1615,1.1862,1.2098,1.2098,1.2104,1.2104,1.2104,1.2111,1.2152,1.2283,1.2317,1.2338,1.2474,1.2393,1.2317,1.2317,1.2413,1.2501,1.2501,1.2501,0.0,1.2501,1.2501,1.2501,1.2508,1.2508,1.2508,1.2508,1.2508,1.2508,1.2501,1.2501,1.2501,1.2501,1.2501,1.2501,1.2501,1.2501,1.2433,1.2317,0.0,0.0,0.0,0.0,0.0,0.0,0.0,0.0,0.0,0.0,0.0,0.0,0.0,0.0,0.0,0.0,0.0,0.0,0.0,0.0,0.0,0.0,0.9496,0.9369,0.9383,0.9477,0.9658,0.9685,0.9802,1.0089,1.015,1.0184,1.0215,1.0367,1.0449,1.0449,1.0626,1.0752,1.0786,1.0921,1.1029,1.106,1.0974,1.096,1.107,1.0821,1.0927,1.1345,1.1351,1.1573,1.1963,1.1852,1.1844,1.1874,1.1862,1.1853,1.1805,1.137,1.12,1.12,1.12,1.1318,1.1497,1.1497,1.1651,1.1853,1.1853,1.1853,1.1853,1.1853,1.1889,1.1957,1.1957,1.2036,1.2098,1.2098,1.2161,1.2249,1.2249,1.2324,1.2393,1.2433,1.244,1.2454,1.2494,1.2467,1.244,1.244,1.2474,1.2501,1.2501,1.2501,0.0,1.2501,1.2501,1.2542,1.2638,1.2644,1.2644,1.2644,1.2644,1.2597,1.2508,1.2501,1.2501,1.2501,1.2501,1.2501,1.2501,1.2501,1.2481,0.0,0.0,0.0,0.0,0.0,0.0,0.0,0.0,0.0,0.0,0.0,0.0,0.0,0.0,0.0,0.0,0.0,0.0,0.0,0.0,0.0,0.0,0.9678,0.9773,0.9776,0.97,0.9732,0.9985,1.0012,1.0086,1.0279,1.0347,1.0408,1.046,1.0586,1.0694,1.0788,1.0941,1.1036,1.1036,1.1135,1.12,1.12,1.1123,1.112,1.119,1.1115,1.1386,1.1977,1.1987,1.2043,0.0,1.207,1.2062,1.2097,1.2106,1.2098,0.0,0.0,0.0,0.0,0.0,1.1689,1.1803,1.1803,1.1936,1.2098,1.2098,1.2098,1.2098,1.2098,1.2145,1.2174,1.2174,1.2222,1.2262,1.2262,1.233,1.2379,1.2379,1.244,1.2501,1.2501,1.2501,1.2501,1.2501,0.0,0.0,1.2563,1.2542,1.2501,1.2501,1.2556,1.2577,1.2577,1.2651,1.2745,1.282,1.2827,1.2827,1.2827,1.2827,0.0,0.0,0.0,1.2664,1.2584,1.2577,0.0,0.0,0.0,1.2501,1.2501,0.0,0.0,0.0,1.2203,1.2196,0.0,0.0,0.0,0.0,0.0,0.0,0.0,0.0,0.0,0.0,0.0,0.0,0.0,0.0,0.0,0.0,0.9954,1.0096,1.0299,1.0172,1.0116,1.0306,1.0319,1.0333,1.0351,1.0483,1.0609,1.0741,1.086,1.1012,1.1193,0.0,0.0,0.0,0.0,1.1264,1.1277,1.1257,1.1245,1.1245,1.1561,1.1981,1.2492,1.2489,1.2386,1.2231,1.2212,1.2189,1.2152,1.2152,1.2152,1.2145,1.2111,1.2098,1.2098,1.2098,1.2111,1.2125,1.2125,0.0,0.0,1.2152,1.2152,1.2152,1.2152,1.2222,1.2318,1.2318,1.2406,1.2501,1.2501,1.2501,1.2501,1.2501,1.2501,1.2501,1.2501,1.2501,1.2508,1.2522,1.2528,1.2576,1.2712,1.263,1.2535,1.2549,1.2671,1.2739,1.2739,1.2894,1.3009,1.3023,0.0,0.0,1.3023,1.3023,1.3016,1.3003,1.3003,1.2921,1.2739,1.2739,1.2672,1.2556,1.2535,1.2528,1.2528,1.2508,1.2501,1.2501,1.2501,1.2501,0.0,0.0,0.0,0.0,0.0,0.0,0.0,0.0,0.0,0.0,0.0,0.0,0.0,0.0,0.0,1.0168,1.0231,1.0283,1.0449,1.0426,1.0419,1.0462,1.0469,1.0548,1.0765,1.0813,1.0904,1.108,1.1138,1.1166,1.1193,1.1298,0.0,1.1525,1.1622,1.1707,1.1755,1.1606,1.1521,1.154,0.0,0.0,1.2485,1.2333,1.2322,1.2451,1.234,1.2331,1.242,1.242,1.242,1.2393,1.2174,1.2098,1.2098,1.2098,1.2179,1.2262,1.2262,1.2337,1.242,1.242,1.242,1.242,1.242,1.2433,0.0,1.2461,1.2481,1.2501,1.2501,1.2501,1.2501,1.2501,1.2501,1.2501,1.2501,1.2501,1.2535,1.2644,1.2665,1.2719,1.2908,1.2786,1.2732,1.2874,1.2935,1.2935,1.2935,1.2982,1.3043,1.3139,1.3152,1.3152,1.3152,1.3152,1.3125,1.3009,1.3003,1.2989,1.2935,1.2935,1.2921,1.2894,1.2733,1.2665,1.2665,1.2543,1.2501,1.2501,1.2501,1.2501,0.0,0.0,0.0,0.0,0.0,0.0,0.0,0.0,0.0,0.0,0.0,0.9846,0.0,0.0,1.02,1.0381,1.0401,1.0466,1.0674,1.0701,1.0701,1.0701,1.0701,1.0789,1.1036,1.1056,1.1118,1.1284,1.1366,1.1423,1.1491,1.1665,1.178,1.1855,1.1849,1.1868,1.1904,1.169,1.1679,1.1859,1.2284,1.25,1.25,1.2396,1.2402,1.2493,1.2435,1.2443,1.2501,1.2501,1.2501,1.2488,1.2358,1.2303,1.2303,1.2303,1.2332,1.2393,1.2393,1.244,1.2501,1.2501,1.2501,1.2501,1.2501,1.2501,1.2501,1.2501,1.2501,1.2501,1.2501,1.2501,1.2501,1.2501,1.2562,1.2597,1.2597,1.2678,1.2772,1.2834,1.2847,1.2895,1.3064,1.3023,1.2956,1.2983,1.3064,1.3105,1.3105,1.3152,1.3227,1.3302,1.3309,1.3309,1.3309,1.3309,1.3275,1.3207,1.32,1.3166,1.3091,1.3105,1.3071,1.3003,1.2908,1.2847,1.2847,1.2786,1.2752,1.2752,1.2752,1.267,0.0,0.0,0.0,0.0,0.0,0.0,0.0,0.0,1.2031,1.0251,0.9974,1.0125,1.029,1.034,1.0394,1.0555,1.0582,1.0677,1.0914,1.0955,1.0968,1.0995,1.0975,1.1033,1.1227,1.125,1.1332,1.1463,1.1619,1.1737,1.1852,1.2011,1.2111,1.2127,1.2007,1.1983,1.2029,1.1859,1.1917,1.2181,1.2401,1.2501,1.2501,1.2501,1.2501,1.2501,1.2501,1.2501,1.2501,1.2501,1.2501,1.2501,1.2501,1.2501,1.2501,1.2501,1.2501,1.2501,1.2501,1.2501,1.2501,1.2501,1.2501,1.2501,1.2501,1.2501,1.2501,1.2501,1.2501,1.2508,1.2535,1.2549,1.2556,1.2583,1.2684,1.2753,1.2753,1.2894,1.3009,1.3037,1.3043,1.3091,1.3214,1.3234,1.32,1.3084,1.3166,1.3234,1.3234,1.3322,1.3403,1.3403,1.3403,1.3403,1.3403,1.3403,1.3403,1.3403,1.3403,1.3349,1.3241,1.3234,1.3186,1.3091,1.3057,1.3043,1.3043,1.3016,1.3003,1.3003,1.3003,1.2867,1.7956,1.817,1.8369,1.8244,1.8413,1.781,0.0,0.0,1.3679,1.0834,1.0258,1.0313,1.0439,1.0483,1.0561,1.0819,1.0867,1.0938,1.1135,1.1172,1.1203,1.1328,1.1237,1.1216,1.1366,1.1491,1.1608,1.1751,1.1925,1.2057,1.207,1.2091,1.2121,1.2181,1.2169,1.2249,1.2428,1.241,1.2416,1.2467,1.2488,1.2501,1.2501,1.2501,1.2501,1.2501,1.2501,1.2501,1.2501,1.2501,1.2501,1.2501,1.2501,1.2501,1.2501,1.2501,1.2501,1.2501,1.2501,1.2501,1.2501,1.2501,1.2501,1.2501,1.2501,1.2501,1.2501,1.2501,1.2501,1.2535,1.2651,1.2685,1.2719,1.2901,1.2962,1.2975,1.2975,1.2989,1.3037,1.3146,1.3173,1.322,1.3349,1.3376,1.337,1.3356,1.3363,1.3376,1.3376,1.339,1.3403,1.3403,1.3403,1.3403,1.3403,1.3403,1.3403,1.3403,1.3403,1.3397,1.3376,1.3376,1.337,1.3349,1.3241,1.3173,1.3186,1.3064,1.3003,1.3003,1.3003,1.2982,1.829,1.8503,1.8784,0.0,1.924,1.8907,1.6883,1.6519,1.5715,1.2576,1.1939,1.1656,1.0775,1.068,1.0765,0.0,1.0999,1.1124,1.1291,1.1369,1.1484,1.1615,1.1685,1.1692,1.1629,1.1789,1.1916,1.1977,1.2127,1.2215,1.2215,1.229,1.2345,1.2375,1.2375,1.2402,1.2501,1.2501,1.2501,1.2501,1.2501,1.2501,1.2501,1.2501,1.2501,1.2501,1.2501,1.2501,1.2501,1.2501,1.2501,1.2501,1.2501,1.2501,1.2501,1.2501,1.2501,1.2501,1.2501,1.2501,1.2501,1.2501,1.2501,1.2515,1.259,1.2617,1.2631,1.2765,1.2786,1.2806,1.2867,1.2868,1.2901,1.2982,1.3064,1.3125,1.3125,1.3173,1.3254,1.3315,1.3329,1.3356,1.3484,1.3511,1.3538,1.362,1.3566,1.3511,1.3511,1.3586,1.3633,1.3633,1.3633,1.3633,1.3633,1.3633,1.3633,1.3633,1.3633,1.3633,1.3633,1.3559,1.3511,1.3511,1.3383,1.3329,1.3329,1.3268,1.3234,1.3234,1.3234,1.3234,1.8718,0.0,0.0,1.9454,1.9706,1.9567,1.8257,1.758,1.6596,1.4338,1.356,1.2914,1.1698,1.1634,1.1595,1.1115,1.1192,1.1359,1.1491,1.2126,1.2405,1.1939,1.2521,1.2925,1.2783,1.2408,1.2166,1.2166,1.2283,1.2364,1.2364,1.2447,1.2501,1.2501,1.2501,1.2501,1.2501,1.2501,1.2501,1.2501,1.2501,1.2501,1.2501,1.2501,1.2529,1.2565,1.2565,1.2591,1.265,1.265,1.265,1.265,1.265,1.265,1.265,1.265,1.2603,1.255,1.261,1.265,1.265,1.265,1.265,1.267,1.2739,1.2773,1.282,1.2969,1.3003,1.3009,1.305,1.3057,1.3071,1.3091,1.318,1.3254,1.3254,1.3356,1.3464,1.3464,1.3498,1.3538,1.3647,1.3667,1.368,1.3781,1.3769,1.3715,1.3653,1.3734,1.3795,1.3795,1.3795,1.3795,1.3795,1.3795,1.3795,1.3795,1.3795,1.3795,1.3795,1.37,1.3667,1.3667,1.3559,1.3498,1.3498,1.3464,1.3464,1.3444,1.3417,1.3403,0.0,0.0,1.9773,1.9786,1.9985,1.9809,1.8409,1.6781,1.5624,1.5782,1.4739,1.3704,1.3461,1.368,1.3358,1.1664,1.1504,1.1635,1.1778,1.3644,1.4262,1.2314,1.3937,1.5206,0.0,1.3431,1.2284,1.2284,1.2413,1.2494,1.2494,1.2501,1.2501,1.2501,1.2501,1.2501,1.2501,1.2501,1.2501,1.2501,1.2501,1.2501,1.2501,1.2501,1.2566,1.2695,1.2695,1.2802,1.2989,1.2989,1.2989,1.2989,1.2989,1.2989,1.2989,1.2989,1.2854,1.2726,1.2915,1.2989,1.2989,1.2989,1.2989,1.2989,1.2989,1.2996,1.2996,1.3003,1.3003,1.303,1.3152,1.3186,1.3227,1.3349,1.339,1.3397,1.3397,1.3491,1.3578,1.3578,1.3693,1.3788,1.3788,1.3788,1.3795,1.3795,1.3966,1.4007,1.3808,1.3795,1.3795,1.3795,1.3795,1.3795,1.3795,1.3795,1.3795,1.3795,1.3795,1.3795,1.3795,1.3795,1.3788,1.3788,1.3788,1.3781,1.3781,1.3667,1.3578,1.3599,1.3471,1.3403,1.9852,0.0,2.0119,2.0334,2.0454,2.0447,2.0161,1.9814,1.9229,1.8167,1.7725,1.7139,1.5916,1.4831,1.3963,1.3467,1.3615,1.3843,1.3964,1.4706,1.5485,1.6146,1.5743,0.0,0.0,0.0,0.0,1.4416,1.4889,1.4384,1.2598,1.2501,1.2501,1.2501,1.2501,1.2501,1.2501,1.2501,1.2575,1.2696,1.2789,1.2824,1.2824,1.2824,1.2861,1.29,1.2889,1.2933,1.3009,1.3004,1.2997,1.3003,1.3003,1.3003,1.3009,1.3105,1.3091,1.3037,1.3016,1.3003,1.3003,1.3003,1.3003,1.3016,1.3111,1.3125,1.3146,1.3248,1.3275,1.3282,1.3308,1.3322,1.3336,1.339,1.3478,1.3532,1.3532,1.3647,1.3727,1.3727,1.3761,1.3829,1.3973,1.3994,1.4027,1.4129,1.4102,1.411,1.4136,1.4121,1.4121,1.4121,1.4121,1.4121,1.4121,1.4121,1.4121,1.4121,1.4121,1.4121,1.4121,1.4048,1.3994,1.3994,1.387,1.3795,1.3795,1.3747,1.3727,1.3727,1.3694,1.3674,2.0157,2.0292,2.0441,2.0643,2.0777,2.0924,2.1203,2.0953,2.0562,2.0145,1.9878,1.936,1.8178,1.7212,1.6408,1.582,1.594,1.615,1.6222,1.701,1.7752,1.835,1.7992,1.8203,0.0,0.0,0.0,1.5936,1.6258,1.5326,1.2637,1.2491,1.2492,1.2492,1.262,1.2661,1.2602,1.2656,1.2738,1.2873,1.2954,1.3011,1.2991,1.2997,1.3025,1.3066,1.3063,1.31,1.3135,1.3138,1.3132,1.3139,1.3139,1.3139,1.3152,1.3241,1.3275,1.3261,1.3173,1.3139,1.3139,1.3139,1.3139,1.3152,1.3248,1.3275,1.3295,1.337,1.3437,1.3464,1.3464,1.3519,1.3538,1.3538,1.3613,1.366,1.366,1.3796,1.3904,1.3904,1.3945,1.4013,1.4158,1.4171,1.4205,1.4285,1.4239,1.419,1.4285,1.4299,1.4299,1.4299,1.4299,1.4299,1.4299,1.4299,1.4299,1.4299,1.4299,1.4299,1.4299,1.4226,1.4171,1.4171,1.4033,1.3985,1.3985,1.3931,1.3904,1.3904,1.3822,1.3795,2.0237,2.0481,2.071,2.071,2.0922,2.1203,2.1529,2.0338,1.9723,2.1651,2.1209,2.0421,0.0,0.0,2.031,1.8545,1.8373,1.8451,1.8461,2.0273,2.0935,0.0,0.0,0.0,0.0,0.0,0.0,1.7105,0.0,1.5616,1.266,1.2942,1.3101,1.2872,1.3248,1.3356,1.3133,1.3266,1.335,1.335,1.3244,1.3191,1.3177,1.3063,1.3079,1.321,1.321,1.3272,1.3403,1.3403,1.3403,1.3403,1.3403,1.3403,1.3403,1.3403,1.3403,1.341,1.341,1.341,1.3403,1.3403,1.3403,1.3403,1.341,1.341,1.3417,1.3424,1.3505,1.362,1.362,1.37,1.3795,1.3795,1.3802,1.3808,1.3808,1.3973,1.4104,1.4104,1.4197,1.4299,1.4299,1.4299,1.4299,1.4299,1.4306,1.4306,1.4299,1.4299,1.4299,1.4299,1.4299,1.4299,1.4299,1.4299,1.4299,1.4299,1.4299,1.4299,1.4299,1.4299,1.4299,1.4299,1.4299,1.4299,1.4299,1.4178,1.4104,1.4104,1.3911,1.3822,2.0813,2.092,2.1002,2.1002,2.1232,2.1489,2.1585,2.1572,2.1753,2.2511,2.2612,2.2596,0.0,0.0,0.0,2.0452,2.0514,0.0,2.0735,2.1237,0.0,2.2949,0.0,2.218,2.3685,2.3672,0.0,0.0,2.253,1.9604,1.2865,1.9086,2.1246,1.7747,1.8886,1.8955,1.7722,1.7888,1.8,1.7961,1.6424,1.5679,1.5638,1.4031,1.3314,1.3355,1.3355,1.3376,1.3403,1.3403,1.3403,1.3403,1.3403,1.3403,1.3403,1.3403,1.345,1.3552,1.3552,1.3478,1.3403,1.3403,1.3403,1.3424,1.3518,1.3552,1.3572,1.3674,1.3714,1.3741,1.3741,1.3774,1.3795,1.3795,1.3911,1.4014,1.4014,1.4136,1.4245,1.4245,1.4272,1.4299,1.4299,1.4299,1.4299,1.4299,1.4387,1.4421,1.4312,1.4299,1.4299,1.4299,1.4299,1.4299,1.4299,1.4299,1.4299,1.4299,1.4299,1.4299,1.4299,1.4299,1.4299,1.4299,1.4299,1.4299,1.4299,1.4265,1.4245,1.4238,1.4204,1.4162,2.1069,2.1093,2.1136,2.1285,2.1462,2.1665,2.1903,2.2301,2.2716,2.3006,2.3407,0.0,0.0,0.0,0.0,0.0,0.0,0.0,2.2905,2.293,2.3339,0.0,2.3593,0.0,2.4488,2.4844,2.4978,0.0,2.4986,2.3122,1.8825,2.3561,2.4572,2.0585,2.1421,2.1178,1.9622,1.9734,1.9795,1.9775,1.8609,1.8046,1.8016,1.6796,1.6245,1.6195,0.0,1.4946,1.4871,1.3951,1.3573,1.3581,1.358,1.3572,1.3572,1.3572,1.3627,1.368,1.368,1.3647,1.3572,1.3572,1.3572,1.3586,1.3653,1.368,1.3693,1.3774,1.387,1.3918,1.3918,1.3972,1.4019,1.4019,1.4109,1.4192,1.4192,1.426,1.4299,1.4299,1.4299,1.4319,1.438,1.4394,1.4414,1.446,1.4541,1.4561,1.448,1.4473,1.4473,1.4473,1.4473,1.4473,1.4473,1.4473,1.4473,1.4473,1.4428,1.4394,1.4394,1.4333,1.4299,1.4299,1.4299,1.4299,1.4299,1.4299,1.4299,1.4299,1.4299,1.4299,2.1093,2.112,2.1245,2.1529,2.1649,2.1836,2.2352,2.2729,2.3037,2.3349,0.0,2.4209,2.4249,2.4444,2.4599,2.4599,0.0,2.4599,2.4599,2.4599,2.4599,2.4599,2.4589,2.4634,2.4721,2.5203,2.5537,2.5615,2.5629,2.5846,2.6361,2.6391,2.5159,2.2482,2.2579,2.2065,2.0777,2.0756,2.0756,2.0756,2.0512,2.0393,2.0375,2.0138,2.0012,1.993,0.0,0.0,1.7288,1.546,1.4735,1.4706,1.4394,1.4258,1.4223,1.3902,1.3808,1.385,1.385,1.3842,1.3849,1.3808,1.3795,1.3802,1.3822,1.385,1.3835,1.3849,1.4,1.4124,1.4124,1.4197,1.4299,1.4299,1.4299,1.4299,1.4299,1.4312,1.4326,1.4326,1.4346,1.4394,1.4523,1.4521,1.4561,1.4674,1.4714,1.4744,1.4744,1.473,1.4694,1.4694,1.4694,1.4694,1.4694,1.4694,1.4694,1.4694,1.4595,1.4521,1.4521,1.4399,1.436,1.436,1.436,1.4346,1.4326,1.4326,1.4319,1.4299,1.4299,1.4299,2.1093,2.1312,2.1529,2.1585,2.1927,2.2365,2.2729,2.302,0.0,0.0,2.4128,2.4275,2.4497,2.4572,2.4599,2.4599,0.0,0.0,0.0,0.0,2.4599,0.0,0.0,0.0,0.0,0.0,0.0,0.0,0.0,2.6285,2.6398,2.64,2.615,2.5609,2.5642,2.5535,2.527,2.527,2.527,2.5251,2.3703,2.2958,2.2912,2.1353,2.0639,2.0629,2.0287,0.0,2.0106,1.9723,1.9586,1.9389,1.7443,1.6684,1.6451,1.4515,1.3904,1.4056,1.4056,1.4116,1.4177,1.3883,1.3795,1.3822,1.3994,1.4056,1.4076,1.4183,1.4238,1.4258,1.4258,1.4278,1.4299,1.4299,1.4299,1.4299,1.4299,1.4394,1.4475,1.4475,1.4554,1.4649,1.4654,1.4676,1.4667,1.4687,1.4848,1.4953,1.4953,1.4798,1.4694,1.4694,1.4694,1.4694,1.4694,1.4694,1.4694,1.4694,1.4667,1.4676,1.4676,1.4633,1.462,1.462,1.462,1.4581,1.4475,1.4475,1.4414,1.4299,1.4299,1.4299,2.1312,2.1475,2.1679,2.194,2.2218,2.2522,2.2993,0.0,0.0,0.0,2.4311,2.4457,2.4572,2.4599,0.0,2.4599,2.4599,0.0,0.0,0.0,0.0,0.0,0.0,0.0,0.0,0.0,0.0,0.0,0.0,2.6395,2.6395,2.6395,2.6404,2.6406,2.6406,2.6466,2.6613,2.6613,2.6694,2.6874,2.5969,2.5531,2.5491,2.4576,2.4168,2.4116,2.3033,0.0,2.2492,2.1435,2.1001,2.0788,1.8463,1.7562,1.7286,1.4938,1.4129,1.419,1.419,1.426,1.4278,1.4107,1.406,1.4074,1.417,1.419,1.4226,1.4278,1.4299,1.4299,1.4299,1.4299,1.4299,1.4299,1.4353,1.4407,1.4407,1.45,1.4609,1.4609,1.467,1.4721,1.4848,1.4862,1.4882,1.4957,1.5031,1.5102,1.5102,1.5018,1.497,1.497,1.497,1.497,1.497,1.497,1.497,1.497,1.4903,1.4862,1.4862,1.4758,1.4694,1.4694,1.4694,1.4683,1.4609,1.4609,1.4575,1.4507,1.4507,1.4507,2.1529,2.1676,2.186,2.2281,2.2495,2.2735,2.3283,2.3647,0.0,0.0,2.4457,2.4599,2.4599,0.0,2.4599,0.0,2.4599,2.4599,2.4599,2.4827,2.5161,0.0,0.0,0.0,0.0,0.0,0.0,0.0,0.0,0.0,2.6386,2.6453,2.648,2.648,2.6566,2.668,2.6921,2.6921,2.7028,2.7309,2.7362,2.7382,2.7382,2.7459,2.7493,2.7407,2.5778,0.0,0.0,2.3354,2.2687,2.2477,2.016,1.929,1.8985,1.6649,1.5469,1.5058,1.5058,1.4712,1.4299,1.4299,1.4299,1.4299,1.4299,1.4299,1.4299,1.4299,1.4299,1.4299,1.4299,1.4326,1.4353,1.4387,1.4482,1.4541,1.4541,1.4656,1.4764,1.4764,1.4791,1.4852,1.5021,1.5041,1.5075,1.5191,1.5204,1.5204,1.5204,1.5204,1.5204,1.5204,1.5204,1.5204,1.5204,1.5204,1.5204,1.5204,1.5102,1.5041,1.5041,1.4903,1.4812,1.4812,1.4812,1.4798,1.4764,1.4764,1.4751,1.4694,1.4694,1.4694,2.1598,2.1954,2.2335,2.2388,2.2815,2.3309,2.3679,0.0,0.0,2.4511,2.4586,2.4599,2.4599,2.4599,0.0,0.0,0.0,2.4599,2.4599,2.554,2.627,2.6317,0.0,0.0,0.0,0.0,0.0,0.0,0.0,0.0,2.64,2.664,2.6767,2.6767,2.7061,2.7242,2.7248,2.7248,2.7262,2.7309,2.7556,2.7655,2.7669,2.797,2.8125,2.8112,2.7928,0.0,0.0,2.7628,2.7564,2.7306,2.4987,2.4061,2.3784,2.1436,1.9259,1.7479,1.7479,1.6078,1.4299,1.4299,1.4299,1.4299,1.4299,1.4299,1.4299,1.4299,1.4299,1.4299,1.4299,1.4394,1.4507,1.462,1.4667,1.4674,1.4674,1.4841,1.4973,1.4973,1.5075,1.517,1.5184,1.5184,1.5191,1.5204,1.5204,1.5204,1.5204,1.5204,1.5204,1.5204,1.5204,1.5204,1.5204,1.5204,1.5204,1.5204,1.5191,1.5184,1.5184,1.5147,1.514,1.514,1.514,1.5102,1.4973,1.4973,1.4875,1.4694,1.4694,1.4694,2.1796,2.2111,2.2442,2.2662,2.2989,2.3389,2.3719,0.0,2.4289,2.4532,2.4599,2.4599,2.4599,2.4599,2.4599,0.0,0.0,0.0,2.5573,2.6088,2.6386,2.6413,2.6401,0.0,0.0,0.0,0.0,0.0,0.0,0.0,2.6941,2.7048,2.7115,2.7115,2.7222,2.7389,2.7542,2.7542,2.7636,2.7831,2.7951,2.8005,2.8005,2.8146,2.82,2.82,2.82,0.0,0.0,2.82,2.82,2.7997,2.5792,2.4949,2.4673,2.2534,2.1166,2.0381,2.0381,1.9771,1.8982,1.8982,1.8982,1.8432,1.5356,1.4466,1.4541,1.4541,1.4541,1.4541,1.4541,1.4581,1.462,1.4681,1.4785,1.4875,1.4875,1.5021,1.5123,1.5123,1.517,1.5204,1.5204,1.5204,1.5204,1.5204,1.5204,1.5204,1.5204,1.5204,1.5204,1.5204,1.5204,1.5204,1.5204,1.5204,1.5204,1.5204,1.5204,1.5204,1.5204,1.5204,1.5204,1.5204,1.5204,1.5177,1.5123,1.5123,1.5089,1.5004,1.5004,1.5004,2.2047,2.2325,2.2619,2.2943,2.3233,2.3541,0.0,2.4128,2.4377,2.4559,2.4599,2.4599,2.4599,2.4599,2.4599,2.4599,2.4753,2.5225,2.627,2.6414,2.6402,0.0,0.0,0.0,0.0,0.0,0.0,0.0,0.0,0.0,0.0,2.7523,2.7523,2.7422,2.7502,2.767,2.785,2.785,2.7978,2.82,2.82,2.82,2.82,2.82,2.8245,2.831,0.0,0.0,0.0,2.8451,2.8451,2.8276,2.6833,2.6249,2.6076,2.4661,2.371,2.3145,2.3145,2.2212,2.1018,2.1018,2.0542,1.9342,1.573,1.5185,1.5636,1.4915,1.4694,1.4708,1.4771,1.4785,1.4798,1.4839,1.4957,1.5055,1.5055,1.5136,1.5204,1.5204,1.5204,1.5204,1.5204,1.5204,1.5204,1.5204,1.5204,1.5204,1.5204,1.5204,1.5204,1.5204,1.5204,1.5204,1.5204,1.5204,1.5204,1.5204,1.5204,1.5204,1.5204,1.5204,1.5204,1.5204,1.5204,1.5204,1.5204,1.5204,1.5204,1.5204,1.5204,1.5204,2.2321,2.2649,2.2974,2.3229,2.3541,2.3866,2.4128,2.4404,2.4599,2.4599,2.4599,2.4599,2.4599,2.4599,2.4599,2.4599,2.509,2.5689,2.6317,2.6408,2.6407,0.0,0.0,0.0,0.0,0.0,0.0,0.0,0.0,0.0,0.0,2.8018,2.8045,2.7709,2.8018,2.82,2.8179,2.8179,2.82,2.82,2.82,2.82,2.82,2.82,2.8342,0.0,0.0,0.0,0.0,2.899,2.899,2.899,2.8969,2.8958,2.8958,2.8934,2.7497,2.5563,2.5563,2.2434,1.8448,1.8448,1.6917,1.5063,1.501,1.6575,1.7848,1.5386,1.4694,1.4751,1.4953,1.4993,1.5027,1.517,1.5204,1.5204,1.5204,1.5204,1.5204,1.5204,1.5204,1.5204,1.5204,1.5204,1.5204,1.5204,1.5204,1.5204,1.5204,1.5204,1.5204,1.5204,1.5204,1.5204,1.5204,1.5204,1.5204,1.5204,1.5204,1.5204,1.5204,1.5204,1.5204,1.5204,1.5204,1.5204,1.5204,1.5204,1.5204,1.5204,1.5204,1.5204,2.2321,2.2775,2.3189,2.3283,2.3683,2.4088,2.4182,2.4404,2.4599,2.4599,2.4599,2.4599,2.4599,2.4599,2.4599,2.4599,2.5461,2.6095,0.0,0.0,0.0,2.6397,0.0,0.0,0.0,0.0,0.0,0.0,0.0,0.0,0.0,2.8138,2.8138,2.8045,2.8138,2.82,2.82,2.82,2.82,2.8213,2.8406,2.8457,2.8492,2.8671,0.0,0.0,0.0,0.0,0.0,2.899,2.9004,2.9026,2.9251,2.9331,2.9363,2.9553,2.9153,2.8548,2.8548,2.7554,2.6252,2.6252,2.5771,2.4878,2.3162,1.9642,1.6046,1.5271,1.5045,1.5052,1.5129,1.5136,1.515,1.5197,1.5204,1.5204,1.5204,1.5204,1.5204,1.5204,1.5204,1.5204,1.5204,1.5204,1.5204,1.5204,1.5204,1.5204,1.5204,1.5204,1.5204,1.5204,1.5204,1.5204,1.5204,1.5204,1.5204,1.5204,1.5204,1.5204,1.5204,1.5204,1.5204,1.5204,1.5204,1.5204,1.5204,1.5204,1.5204,1.5204,1.5204,1.5204,2.2498,2.2953,2.3336,2.3474,2.3848,2.4235,2.4324,2.4484,2.4599,2.4599,2.4599,2.4599,2.4599,2.4599,2.4745,2.5208,2.5783,2.6142,2.6038,0.0,0.0,0.0,0.0,0.0,0.0,0.0,0.0,0.0,0.0,0.0,0.0,2.82,2.82,2.82,2.82,2.82,2.82,2.8299,2.8366,2.8345,2.8631,2.8743,2.8756,2.8908,0.0,0.0,0.0,0.0,0.0,2.9334,2.9332,2.9367,2.956,2.964,2.9663,2.9846,2.9891,2.9891,2.9891,2.9287,2.8492,2.8501,2.786,2.6831,2.5264,2.0968,1.6588,1.6588,1.5917,1.5204,1.5204,1.5204,1.5204,1.5204,1.5204,1.5204,1.5204,1.5204,1.5204,1.5204,1.5204,1.5204,1.5204,1.5204,1.5204,1.5204,1.5204,1.5204,1.5204,1.5204,1.5204,1.5204,1.5204,1.5204,1.5204,1.5204,1.5204,1.5204,1.5204,1.5204,1.5204,1.5204,1.5204,1.5204,1.5204,1.5204,1.5204,1.5204,1.5204,1.5204,1.5204,1.5204,0.0,2.3126,2.3403,2.3719,2.4026,2.4284,2.4532,2.4599,0.0,2.4599,2.4599,2.4599,2.4599,2.4599,2.4992,2.6135,2.6038,2.592,2.6328,2.6383,0.0,0.0,0.0,0.0,0.0,0.0,0.0,0.0,0.0,0.0,0.0,2.82,2.8213,2.824,2.824,2.824,2.824,2.8484,2.8644,2.8623,2.8916,2.9028,2.9028,2.9063,0.0,0.0,0.0,0.0,0.0,2.9891,2.9891,2.9891,2.9891,2.9891,2.9891,2.9891,2.9891,2.9891,2.9891,2.8376,2.6466,2.6465,2.4899,2.3037,2.3037,2.1221,1.9172,1.9172,1.7491,1.5713,1.5713,1.5713,1.5713,1.5713,1.5713,1.5666,1.5509,1.5462,1.5415,1.5228,1.5204,1.5204,1.5204,1.5204,1.5204,1.5204,1.5204,1.5204,1.5204,1.5204,1.5204,1.5204,1.5204,1.5204,1.5204,1.5204,1.5204,1.5204,1.5204,1.5204,1.5204,1.5204,1.5204,1.5204,1.5204,1.5204,1.5204,1.5204,1.5204,1.5204,1.5204,1.5204,2.3056,0.0,2.3705,2.379,2.4155,2.4519,0.0,2.4599,0.0,0.0,0.0,2.4599,2.4599,2.4599,2.4799,2.5396,2.5675,2.5882,2.6068,0.0,0.0,0.0,0.0,0.0,0.0,0.0,0.0,0.0,0.0,0.0,0.0,2.82,2.8299,2.8484,2.8519,2.8519,2.8519,2.877,2.8916,2.8916,2.9232,2.9379,2.9392,2.9584,0.0,0.0,0.0,0.0,2.9891,2.9891,2.9891,2.9891,2.9891,2.9891,2.9891,2.9891,2.9891,2.9891,2.9891,2.9515,2.9014,2.9021,2.8652,2.8166,2.8166,2.5104,2.1659,2.1659,2.1221,2.0783,2.0783,2.0783,2.0783,2.0783,2.0783,2.0275,1.8438,1.8019,1.7468,1.5573,1.5204,1.5204,1.5204,1.5204,1.5204,1.5204,1.5204,1.5204,1.5204,1.5204,1.5204,1.5204,1.5204,1.5204,1.5204,1.5204,1.5204,1.5204,1.5204,1.5204,1.5204,1.5204,1.5204,1.5204,1.5204,1.5204,1.5204,1.5204,1.5204,1.5204,1.5204,1.5204,2.3176,2.3541,2.3826,2.3959,2.4284,2.4599,2.4599,0.0,0.0,0.0,0.0,0.0,2.4599,0.0,0.0,2.5402,2.5717,2.5995,0.0,0.0,0.0,0.0,0.0,0.0,0.0,0.0,0.0,0.0,0.0,0.0,0.0,2.8326,2.8452,2.8604,2.8871,2.8938,2.8783,2.9077,2.9223,2.9223,2.9539,2.9686,2.9686,2.9824,2.9891,0.0,0.0,0.0,2.9891,2.9891,2.9891,2.9891,2.9891,2.9891,2.9891,2.9891,2.9891,2.9891,2.9891,2.9891,2.9891,2.9891,2.9891,2.9891,2.9891,2.8031,2.5662,2.4534,2.3381,2.2234,2.1152,2.0852,2.0552,1.9427,1.9149,1.8786,1.7491,1.7188,1.6799,1.5462,1.5204,1.5204,1.5204,1.5204,1.5204,1.5204,1.5204,1.5204,1.5204,1.5204,1.5204,1.5204,1.5204,1.5204,1.5204,1.5204,1.5204,1.5204,1.5204,1.5204,1.5204,1.5204,1.5204,1.5204,1.5204,1.5204,1.5204,1.5204,1.5204,1.5204,1.5204,1.5204,2.33,2.3581,2.3852,2.4128,2.4404,2.4599,2.4599,0.0,0.0,0.0,0.0,0.0,0.0,0.0,0.0,0.0,0.0,0.0,0.0,0.0,0.0,0.0,0.0,0.0,0.0,0.0,0.0,0.0,0.0,0.0,0.0,2.8492,2.8644,2.8738,2.9219,2.9379,2.9135,2.9419,2.9575,2.9553,2.9793,2.9891,2.9891,2.9891,2.9891,0.0,0.0,0.0,2.9891,2.9891,2.9891,2.9891,2.9891,2.9891,2.9891,2.9891,2.9891,2.9891,2.9891,2.9891,2.9891,2.9891,2.9891,2.9891,2.9891,2.9891,2.9451,2.7363,2.5241,2.3152,2.112,2.0566,2.0044,1.7949,1.7445,1.7328,1.6962,1.6869,1.6658,1.5901,1.6058,1.6198,1.583,1.576,1.576,1.576,1.5439,1.5204,1.5204,1.5204,1.5204,1.5204,1.5204,1.5204,1.5204,1.5204,1.5204,1.5204,1.5204,1.5204,1.5204,1.5204,1.5204,1.5204,1.5204,1.5204,1.5204,1.5204,1.5204,1.5204,1.5204,1.5204,2.3572,2.3759,2.3852,2.4128,2.4404,2.4599,0.0,0.0,0.0,0.0,0.0,0.0,0.0,0.0,0.0,0.0,0.0,0.0,0.0,0.0,0.0,0.0,0.0,0.0,0.0,0.0,0.0,0.0,0.0,0.0,0.0,2.8577,2.8831,2.9361,2.9454,2.9579,2.9757,2.9797,2.9824,2.9824,2.9878,2.9891,2.9891,2.9891,2.9891,0.0,0.0,2.9891,2.9891,2.9891,2.9891,2.9891,2.9891,2.9891,2.9891,2.9891,2.9891,2.9891,2.9891,2.9891,2.9891,2.9891,2.9891,2.9891,2.9891,2.9891,2.9824,2.9429,2.907,2.8674,2.8324,2.8211,2.8108,2.7725,2.7634,2.708,2.4968,2.4501,2.3289,1.9141,1.9974,2.0737,1.8685,1.8337,1.8337,1.8337,1.6542,1.5204,1.5204,1.5204,1.5204,1.5204,1.5204,1.5204,1.5204,1.5204,1.5204,1.5204,1.5204,1.5204,1.5204,1.5204,1.5204,1.5204,1.5204,1.5204,1.5204,1.5204,1.5204,1.5204,1.5204,1.5204,2.3683,2.3839,2.3989,2.4332,2.4506,2.4599,0.0,0.0,0.0,0.0,0.0,0.0,0.0,0.0,0.0,0.0,0.0,0.0,0.0,0.0,0.0,0.0,0.0,0.0,0.0,0.0,0.0,0.0,0.0,0.0,0.0,0.0,2.9205,2.9495,2.9633,2.978,2.9891,2.9891,2.9891,2.9891,2.9891,2.9891,2.9891,2.9891,2.9891,2.9891,0.0,2.9891,2.9891,2.9891,2.9891,2.9891,2.9891,2.9891,2.9891,2.9891,2.9891,2.9891,2.9891,2.9891,2.9891,2.9891,2.9891,2.9891,2.9891,2.9891,2.9891,2.9891,2.9891,2.9586,2.8256,2.7905,2.7567,2.6229,2.5912,2.5593,2.4466,2.4204,2.3541,2.1291,2.1751,2.2142,2.1037,2.0852,2.0852,2.0852,1.9868,1.867,1.7375,1.7188,1.6682,1.5345,1.5204,1.5204,1.5204,1.5204,1.5204,1.5204,1.5204,1.5204,1.5204,1.5204,1.5204,1.5204,1.5204,1.5204,1.5204,1.5204,1.5204,1.5204,1.5204,1.5204,2.3652,2.386,2.4103,2.4501,0.0,0.0,0.0,0.0,0.0,0.0,0.0,0.0,0.0,0.0,0.0,0.0,0.0,0.0,0.0,0.0,0.0,0.0,0.0,0.0,0.0,0.0,0.0,0.0,0.0,0.0,0.0,0.0,2.9535,2.9579,2.9806,2.9891,2.9891,2.9891,2.9891,2.9891,2.9891,2.9891,2.9891,2.9891,2.9891,2.9891,2.9891,2.9891,2.9891,2.9891,2.9891,2.9891,2.9891,2.9891,2.9891,2.9891,2.9891,2.9891,2.9891,2.9891,2.9891,2.9891,2.9891,2.9891,2.9891,2.9891,2.9891,2.9891,2.9891,2.9451,2.7567,2.7057,2.6604,2.4694,2.4227,2.4227,2.4227,2.4227,2.4044,2.3473,2.3838,2.4044,2.3473,2.3358,2.3358,2.3358,2.2877,2.182,1.9974,1.9743,1.901,1.7102,1.6915,1.6682,1.6104,1.5526,1.5204,1.5204,1.5204,1.5204,1.5204,1.5204,1.5204,1.5204,1.5204,1.5204,1.5204,1.5204,1.5204,1.5204,1.5204,1.5204,2.3483,2.3757,2.4103,0.0,0.0,0.0,0.0,0.0,0.0,0.0,0.0,0.0,0.0,0.0,0.0,0.0,0.0,0.0,0.0,0.0,0.0,0.0,0.0,0.0,0.0,0.0,0.0,0.0,0.0,0.0,0.0,0.0,0.0,2.9851,2.9878,2.9891,2.9891,2.9891,2.9891,2.9891,2.9891,2.9891,2.9891,2.9891,2.9891,2.9891,2.9891,2.9891,2.9891,2.9891,2.9891,2.9891,2.9891,2.9891,2.9891,2.9891,2.9891,2.9891,2.9891,2.9891,2.9891,2.9891,2.9891,2.9891,2.9891,2.9891,2.9891,2.9891,2.9891,2.9869,2.9689,2.9644,2.9586,2.9407,2.9362,2.9362,2.9362,2.9362,2.8697,2.6388,2.7792,2.8652,2.632,2.5934,2.5934,2.5934,2.3976,2.2441,2.2257,2.2234,2.2165,2.1981,2.1958,2.106,1.8824,1.6518,1.5204,1.5204,1.5204,1.5204,1.5204,1.5204,1.5204,1.5204,1.5204,1.5204,1.5204,1.5204,1.5204,1.5204,1.5204,1.5204,2.378,2.409,0.0,0.0,0.0,0.0,0.0,0.0,0.0,0.0,0.0,0.0,0.0,0.0,0.0,0.0,0.0,0.0,0.0,0.0,0.0,0.0,0.0,0.0,0.0,0.0,0.0,0.0,0.0,0.0,0.0,0.0,0.0,2.9891,2.9891,2.9891,2.9891,2.9891,2.9891,2.9891,2.9891,2.9891,2.9891,2.9891,2.9891,2.9891,2.9891,2.9891,2.9891,2.9891,2.9891,2.9891,2.9891,2.9891,2.9891,2.9891,2.9891,2.9891,2.9891,2.9891,2.9891,2.9891,2.9891,2.9891,2.9891,2.9891,2.9891,2.9891,2.9891,2.9891,2.9891,2.9891,2.9891,2.9891,2.9891,2.9891,2.9891,2.9891,2.9609,2.8674,2.9272,2.9599,2.8674,2.8504,2.8504,2.8504,2.7702,2.6524,2.499,2.4808,2.4215,2.2647,2.251,2.2142,2.1267,2.0298,1.9103,1.76,1.6058,1.5204,1.5204,1.5204,1.5204,1.5204,1.5204,1.5204,1.5204,1.5204,1.5204,1.5204,1.5204,1.5204,2.3921,2.4249,2.4599,0.0,0.0,0.0,0.0,0.0,0.0,0.0,0.0,0.0,0.0,0.0,0.0,0.0,0.0,0.0,0.0,0.0,0.0,0.0,0.0,0.0,0.0,0.0,0.0,0.0,0.0,0.0,0.0,0.0,0.0,0.0,2.9891,2.9891,2.9891,2.9891,2.9891,2.9891,2.9891,2.9891,2.9891,2.9891,2.9891,2.9891,2.9891,2.9891,2.9891,2.9891,2.9891,2.9891,2.9891,2.9891,2.9891,2.9891,2.9891,2.9891,2.9891,2.9891,2.9891,2.9891,2.9891,2.9891,2.9891,2.9891,2.9891,2.9891,2.9891,2.9891,2.9891,2.9891,2.9891,2.9891,2.9891,2.9891,2.9891,2.9891,2.9891,2.9891,2.9891,2.9891,2.9891,2.9891,2.9891,2.9891,2.9891,2.9294,2.7589,2.7374,2.6717,2.5013,2.4146,2.3678,2.3735,2.2969,2.1797,2.0136,1.8438,1.6799,1.5251,1.5204,1.5204,1.5204,1.5204,1.5204,1.5204,1.5204,1.5204,1.5204,1.5204,1.5204,2.3799,2.4194,0.0,0.0,0.0,0.0,0.0,0.0,0.0,0.0,0.0,0.0,0.0,0.0,0.0,0.0,0.0,0.0,0.0,0.0,0.0,0.0,0.0,0.0,0.0,0.0,0.0,0.0,0.0,0.0,0.0,0.0,0.0,0.0,2.9891,2.9891,2.9891,2.9891,2.9891,2.9891,2.9891,2.9891,2.9891,2.9891,2.9891,2.9891,2.9891,2.9891,2.9891,2.9891,2.9891,2.9891,2.9891,2.9891,2.9891,2.9891,2.9891,2.9891,2.9891,2.9891,2.9891,2.9891,2.9891,2.9891,2.9891,2.9891,2.9891,2.9891,2.9891,2.9891,2.9891,2.9891,2.9891,2.9891,2.9891,2.9891,2.9891,2.9891,2.9891,2.9891,2.9891,2.9891,2.9891,2.9891,2.9891,2.9891,2.9891,2.9891,2.9891,2.9891,2.9891,2.9891,2.7702,2.6229,2.6229,2.3976,2.2556,2.2533,2.2533,2.0344,1.5439,1.5228,1.5228,1.5204,1.5204,1.5204,1.5204,1.5204,1.5204,1.5204,1.5204,1.5204,2.4209,2.4477,0.0,0.0,0.0,0.0,0.0,0.0,0.0,0.0,0.0,0.0,0.0,0.0,0.0,0.0,0.0,0.0,0.0,0.0,0.0,0.0,0.0,0.0,0.0,0.0,0.0,0.0,0.0,0.0,0.0,0.0,0.0,0.0,2.9891,2.9891,2.9891,2.9891,2.9891,2.9891,2.9891,2.9891,2.9891,2.9891,2.9891,2.9891,2.9891,2.9891,2.9891,2.9891,2.9891,2.9891,2.9891,2.9891,2.9891,2.9891,2.9891,2.9891,2.9891,2.9891,2.9891,2.9891,2.9891,2.9891,2.9891,2.9891,2.9891,2.9891,2.9891,2.9891,2.9891,2.9891,2.9891,2.9891,2.9891,2.9891,2.9891,2.9891,2.9891,2.9891,2.9891,2.9891,2.9891,2.9891,2.9891,2.9891,2.9891,2.9891,2.9891,2.9891,2.9891,2.9891,2.9249,2.8809,2.8809,2.8143,2.6966,2.5218,2.5104,2.2923,1.8019,1.781,1.6986,1.5228,1.5204,1.5204,1.5204,1.5204,1.5204,1.5204,1.5204,1.5204,2.4429,0.0,0.0,0.0,0.0,0.0,0.0,0.0,0.0,0.0,0.0,0.0,0.0,0.0,0.0,0.0,0.0,0.0,0.0,0.0,0.0,0.0,0.0,0.0,0.0,0.0,0.0,0.0,0.0,0.0,0.0,0.0,0.0,0.0,2.9891,2.9891,2.9891,2.9891,2.9891,2.9891,2.9891,2.9891,2.9891,2.9891,2.9891,2.9891,2.9891,2.9891,2.9891,2.9891,2.9891,2.9891,2.9891,2.9891,2.9891,2.9891,2.9891,2.9891,2.9891,2.9891,2.9891,2.9891,2.9891,2.9891,2.9891,2.9891,2.9891,2.9891,2.9891,2.9891,2.9891,2.9891,2.9891,2.9891,2.9891,2.9891,2.9891,2.9891,2.9891,2.9891,2.9891,2.9891,2.9891,2.9891,2.9891,2.9891,2.9891,2.9891,2.9891,2.9891,2.9891,2.9891,2.9891,2.9891,2.9891,2.9891,2.9272,2.7747,2.768,2.5468,2.0529,2.0321,1.9172,1.6729,1.6658,1.6175,1.5204,1.5204,1.5204,1.5204,1.5204,1.5204,2.4501,0.0,0.0,0.0,0.0,0.0,0.0,0.0,0.0,0.0,0.0,0.0,0.0,0.0,0.0,0.0,0.0,0.0,0.0,0.0,0.0,0.0,0.0,0.0,0.0,0.0,0.0,0.0,0.0,0.0,0.0,0.0,0.0,2.9891,2.9891,2.9891,2.9891,2.9891,2.9891,0.0,2.9891,2.9891,2.9891,2.9891,2.9891,2.9891,2.9891,2.9891,2.9891,2.9891,2.9891,2.9891,2.9891,2.9891,2.9891,2.9891,2.9891,2.9891,2.9891,2.9891,2.9891,2.9891,2.9891,2.9891,2.9891,2.9891,2.9891,2.9891,2.9891,2.9891,2.9891,2.9891,2.9891,2.9891,2.9891,2.9891,2.9891,2.9891,2.9891,2.9891,2.9891,2.9891,2.9891,2.9891,2.9891,2.9891,2.9891,2.9891,2.9891,2.9891,2.9891,2.9891,2.9891,2.9891,2.9891,2.9918,2.9953,2.9953,2.9958,2.7958,2.3444,2.276,2.1267,1.8615,1.8562,1.7468,1.5224,1.5238,1.5245,1.5245,1.5245,1.5245,0.0,2.4599,0.0,0.0,0.0,0.0,0.0,0.0,0.0,0.0,0.0,0.0,0.0,0.0,0.0,0.0,0.0,0.0,0.0,0.0,0.0,0.0,0.0,0.0,0.0,0.0,0.0,0.0,0.0,0.0,2.9891,2.9891,0.0,2.9891,2.9891,2.9891,2.9891,2.9891,2.9891,0.0,2.9891,2.9891,2.9891,2.9891,2.9891,2.9891,2.9891,2.9891,2.9891,2.9891,2.9891,2.9891,2.9891,2.9891,2.9891,2.9891,2.9891,2.9891,2.9891,2.9891,2.9891,2.9891,2.9891,2.9891,2.9891,2.9891,2.9891,2.9891,2.9891,2.9891,2.9891,2.9891,2.9891,2.9891,2.9891,2.9891,2.9891,2.9891,2.9891,2.9891,2.9891,2.9891,2.9891,2.9891,2.9891,2.9891,2.9891,2.9891,2.9891,2.9891,2.9891,2.9891,2.9891,2.9891,2.9891,3.0127,3.0283,3.0283,3.0497,3.0136,2.9075,2.4824,2.0437,1.6081,1.6092,1.5903,1.5364,1.5462,1.5516,1.5516,1.5516,1.5516,0.0,0.0,0.0,0.0,0.0,0.0,0.0,0.0,0.0,0.0,0.0,0.0,0.0,0.0,0.0,0.0,0.0,0.0,0.0,0.0,0.0,0.0,0.0,0.0,0.0,0.0,0.0,0.0,0.0,2.9891,2.9891,2.9891,2.9891,2.9891,2.9891,2.9891,2.9891,2.9891,2.9891,2.9891,2.9891,2.9891,2.9891,2.9891,2.9891,2.9891,2.9891,2.9891,2.9891,2.9891,2.9891,2.9891,2.9891,2.9891,2.9891,2.9891,2.9891,2.9891,2.9891,2.9891,2.9891,2.9891,2.9891,2.9891,2.9891,2.9891,2.9891,2.9891,2.9891,2.9891,2.9891,2.9891,2.9931,3.01,3.002,2.9891,2.9891,2.9891,2.9891,2.9891,2.9891,2.9891,2.9891,3.0034,3.015,3.015,3.0247,3.0341,3.0341,3.0341,3.0341,3.0341,3.0341,3.0341,3.0341,3.0497,3.0591,3.0591,3.0715,3.0274,2.909,2.6249,2.3497,2.0955,1.9746,1.8557,1.7358,1.6166,1.5593,1.5593,1.5593,1.5593,0.0,0.0,0.0,0.0,0.0,0.0,0.0,0.0,0.0,0.0,0.0,0.0,0.0,0.0,0.0,0.0,0.0,0.0,0.0,0.0,0.0,0.0,0.0,0.0,0.0,0.0,0.0,0.0,0.0,2.9891,2.9891,2.9891,2.9891,2.9891,2.9891,2.9891,2.9891,2.9891,2.9891,2.9891,2.9891,2.9891,2.9891,2.9891,2.9891,2.9891,2.9891,2.9891,2.9891,2.9891,2.9891,2.9891,2.9891,2.9891,2.9891,2.9891,2.9891,2.9891,2.9891,2.9891,2.9891,2.9891,2.9891,2.9891,2.9891,2.9949,2.9985,2.9993,3.0011,3.006,3.006,3.006,3.0127,3.0404,3.027,3.006,3.006,3.006,3.006,3.006,3.006,3.006,3.006,3.0297,3.0457,3.0457,3.0658,3.0795,3.0795,3.0795,3.0795,3.0795,3.0795,3.0795,3.0795,3.0835,3.0862,3.0862,3.0915,3.0033,2.799,2.7896,2.7896,2.7896,2.4854,2.2291,2.0213,1.8086,1.7029,1.7029,1.7029,1.6787,0.0,0.0,0.0,0.0,0.0,0.0,0.0,0.0,0.0,0.0,0.0,0.0,0.0,0.0,0.0,0.0,0.0,0.0,0.0,0.0,0.0,0.0,0.0,0.0,0.0,0.0,0.0,0.0,2.9891,2.9891,2.9891,2.9891,2.9891,2.9891,2.9891,2.9891,2.9891,2.9891,2.9891,2.9891,2.9891,2.9891,2.9891,2.9891,2.9891,2.9891,2.9891,2.9891,2.9891,2.9891,2.9891,2.9891,2.9891,2.9891,2.9891,2.9891,2.9891,2.9891,2.9891,2.9891,2.9891,2.9891,2.9891,2.9891,2.9891,3.0097,3.0326,3.0327,3.0495,3.0675,3.0675,3.0675,3.0688,3.0751,3.0702,3.0675,3.0675,3.0675,3.0675,3.0675,3.0675,3.0675,3.0675,3.0715,3.0765,3.0765,3.0791,3.0795,3.0795,3.0795,3.0795,3.0795,3.0795,3.0795,3.0795,3.0999,3.1146,3.1146,3.141,3.1425,3.1094,3.1094,3.1094,3.1094,2.6191,2.3472,2.3137,2.2925,2.2795,2.2795,2.2795,2.1579,2.4599,2.4599,2.4669,0.0,2.5699,0.0,0.0,0.0,0.0,0.0,0.0,0.0,0.0,0.0,0.0,0.0,0.0,0.0,0.0,0.0,0.0,0.0,0.0,0.0,0.0,0.0,0.0,0.0,2.9891,2.9891,2.9891,2.9891,2.9891,2.9891,2.9891,2.9891,2.9891,2.9891,2.9891,2.9891,2.9891,2.9891,2.9891,2.9891,2.9891,2.9891,2.9891,2.9891,2.9891,2.9891,2.9891,2.9891,2.9891,2.9891,2.9891,2.9891,2.9891,2.9891,2.9891,2.9891,2.9913,3.0119,3.0178,3.02,3.0348,3.051,3.0628,3.0634,3.0712,3.0808,3.0796,3.0803,3.0839,3.0999,3.1012,3.1089,3.1249,3.1045,3.0795,3.0795,3.0795,3.0795,3.0795,3.0929,3.1012,3.1012,3.1183,3.1299,3.1299,3.1299,3.1299,3.1299,3.1299,3.1299,3.1299,3.1396,3.1476,3.1476,3.162,3.1687,3.1687,3.1687,3.1687,3.1687,2.7949,2.6002,2.5978,2.458,2.3904,2.3904,2.3904,2.3286,0.0,0.0,2.4594,2.4588,2.55,2.6399,0.0,0.0,0.0,0.0,0.0,0.0,0.0,0.0,0.0,0.0,0.0,0.0,0.0,0.0,0.0,0.0,0.0,0.0,0.0,0.0,0.0,0.0,2.9891,2.9891,2.9891,2.9891,2.9891,2.9891,2.9891,2.9891,2.9891,2.9891,2.9891,2.9891,2.9891,2.9891,2.9891,2.9891,2.9891,2.9891,2.9891,2.9891,2.9891,2.9891,2.9891,2.9891,2.9891,2.9891,2.9891,2.9891,2.9891,2.9904,3.0011,3.0029,3.0075,3.0407,3.0506,3.054,3.0749,3.0854,3.0902,3.0909,3.0967,3.1033,3.1042,3.1022,3.1096,3.1269,3.1343,3.1396,3.1647,3.1353,3.1045,3.1045,3.1045,3.1045,3.1045,3.1196,3.1343,3.1343,3.153,3.1687,3.1687,3.1687,3.1687,3.1687,3.1687,3.1687,3.1687,3.1687,3.1687,3.1687,3.1687,3.1687,3.1687,3.1687,3.1687,3.1687,2.9768,2.8799,2.8799,2.6819,2.5867,2.5867,2.5867,2.5529,0.0,2.4587,0.0,2.4602,2.5499,0.0,0.0,0.0,0.0,0.0,0.0,0.0,0.0,0.0,0.0,0.0,0.0,0.0,0.0,0.0,0.0,0.0,0.0,0.0,0.0,0.0,0.0,0.0,2.9891,2.9891,2.9891,2.9891,2.9891,2.9891,2.9891,2.9891,2.9891,2.9891,2.9891,2.9891,2.9891,2.9891,2.9891,2.9891,2.9891,2.9891,2.9891,2.9891,2.9891,2.9891,2.9891,2.9891,2.9891,2.9891,2.9891,2.9891,2.9891,2.9944,3.0259,3.0383,3.0429,3.068,3.0767,3.0768,3.0805,3.0983,3.1188,3.1194,3.14,3.1664,3.1637,3.166,3.166,3.166,3.1674,3.1674,3.1687,3.1674,3.1647,3.1647,3.1647,3.1647,3.1647,3.166,3.1674,3.1674,3.1687,3.1687,3.1687,3.1687,3.1687,3.1687,3.1687,3.1687,3.1687,3.1687,3.1687,3.1687,3.1687,3.1687,3.1687,3.1687,3.1687,3.1687,3.1569,3.1497,3.1497,3.1355,3.1307,3.1307,3.1307,2.9959,0.0,0.0,0.0,2.5546,2.608,2.6397,2.6392,2.6406,2.654,2.7034,2.7208,2.7456,0.0,0.0,0.0,0.0,0.0,0.0,0.0,0.0,0.0,0.0,0.0,0.0,0.0,0.0,0.0,0.0,0.0,2.9891,2.9891,2.9891,2.9891,2.9891,2.9891,2.9891,2.9891,2.9891,2.9891,2.9891,2.9891,2.9891,2.9891,2.9891,2.9891,2.9891,2.9891,2.9891,2.9891,2.9891,2.9891,2.9891,2.9891,2.9891,2.994,3.0127,3.023,3.0262,3.0556,3.0668,3.0692,3.0975,3.1055,3.1099,3.1315,3.1447,3.1532,3.1532,3.1616,3.1687,3.1687,3.1687,3.1687,3.1687,3.1687,3.1687,3.1687,3.1687,3.1687,3.1687,3.1687,3.1687,3.1687,3.1687,3.1687,3.1687,3.1687,3.1687,3.1687,3.1687,3.1687,3.1687,3.1687,3.1687,3.1687,3.1687,3.1687,3.1687,3.1687,3.1687,3.1687,3.1687,3.1687,3.1687,3.1687,3.1687,3.1687,3.1687,3.1687,3.1687,3.1687,3.1199,2.4604,0.0,0.0,0.0,0.0,2.6388,2.6386,0.0,2.6667,2.7181,2.7369,2.7583,2.8119,2.82,2.82,0.0,0.0,0.0,0.0,0.0,0.0,0.0,0.0,0.0,0.0,0.0,0.0,0.0,0.0,0.0,2.9891,2.9891,2.9891,2.9891,2.9891,2.9891,2.9891,2.9891,2.9891,2.9891,2.9891,2.9891,2.9891,2.9891,2.9891,2.9891,2.9891,2.9891,2.9891,2.9891,2.9891,2.9904,3.002,3.006,3.01,3.0417,3.0518,3.0568,3.0844,3.0941,3.0989,3.1267,3.1376,3.14,3.164,3.1687,3.1687,3.1687,3.1687,3.1687,3.1687,3.1687,3.1687,3.1687,3.1687,3.1687,3.1687,3.1687,3.1687,3.1687,3.1687,3.1687,3.1687,3.1687,3.1687,3.1687,3.1687,3.1687,3.1687,3.1687,3.1687,3.1687,3.1687,3.1687,3.1687,3.1687,3.1687,3.1687,3.1687,3.1687,3.1687,3.1687,3.1687,3.1687,3.1687,3.1687,3.1687,3.1687,3.1687,3.1687,3.1687,3.1687,0.0,0.0,0.0,0.0,0.0,0.0,2.6406,0.0,2.6907,2.7242,2.7516,2.7789,2.8146,2.82,2.82,2.82,2.82,2.82,0.0,0.0,0.0,0.0,0.0,0.0,0.0,0.0,0.0,0.0,2.9891,2.9891,2.9891,2.9891,2.9891,2.9891,2.9891,2.9891,2.9891,2.9891,2.9891,2.9891,2.9891,2.9891,2.9891,2.9891,2.9891,2.9891,2.9891,2.9891,2.9891,2.9891,2.9927,2.9953,3.027,3.0413,3.043,3.0702,3.0823,3.0853,3.1126,3.1212,3.1268,3.1579,3.1687,3.1687,3.1687,3.1687,3.1687,3.1687,3.1687,3.1687,3.1687,3.1687,3.1687,3.1687,3.1687,3.1687,3.1687,3.1687,3.1687,3.1687,3.1687,3.1687,3.1687,3.1687,3.1687,3.1687,3.1687,3.1687,3.1687,3.1687,3.1687,3.1687,3.1687,3.1687,3.1687,3.1687,3.1687,3.1687,3.1687,3.1687,3.1687,3.1687,3.1687,3.1687,3.1687,3.1687,3.1687,3.1687,3.1687,3.1687,3.1687,3.1687,2.6103,0.0,0.0,0.0,0.0,0.0,0.0,0.0,2.7042,2.7432,2.7612,2.7789,2.8146,2.82,2.82,2.82,2.82,2.82,2.82,2.8438,0.0,0.0,0.0,0.0,0.0,0.0,0.0,0.0,2.9891,2.9891,2.9891,2.9891,2.9891,2.9891,2.9891,2.9891,2.9891,2.9891,2.9891,2.9891,2.9891,2.9891,2.9891,2.9891,2.9891,2.9891,2.9891,2.9891,2.9891,2.9891,3.0047,3.027,3.035,3.0511,3.0715,3.0996,3.1102,3.1129,3.1457,3.1546,3.1579,3.1664,3.1687,3.1687,3.1687,3.1687,3.1687,3.1687,3.1687,3.1687,3.1687,3.1687,3.1687,3.1687,3.1687,3.1687,3.1687,3.1687,3.1687,3.1687,3.1687,3.1687,3.1687,3.1687,3.1687,3.1687,3.1687,3.1687,3.1687,3.1687,3.1687,3.1687,3.1687,3.1687,3.1687,3.1687,3.1687,3.1687,3.1687,3.1687,3.1687,3.1687,3.1687,3.1687,3.1687,3.1687,3.1687,3.1687,3.1687,3.1687,3.1687,3.1687,0.0,0.0,0.0,0.0,0.0,0.0,2.6406,2.6707,2.7095,0.0,2.776,2.7978,2.8152,2.82,2.82,2.82,2.82,2.82,2.82,2.8532,2.8823,2.8975,0.0,0.0,0.0,2.9891,2.9891,2.9891,2.9891,2.9891,2.9891,2.9891,2.9891,2.9891,2.9891,2.9891,2.9891,2.9891,2.9891,2.9891,2.9891,2.9891,2.9891,2.9891,2.9891,2.9891,2.9891,2.9891,2.9904,3.0047,3.023,3.0413,3.0511,3.0738,3.1009,3.1303,3.1406,3.144,3.1644,3.1687,3.1687,3.1687,3.1687,3.1687,3.1687,3.1687,3.1687,3.1687,3.1687,3.1687,3.1687,3.1687,3.1687,3.1687,3.1687,3.1687,3.1687,3.1687,3.1687,3.1687,3.1687,3.1687,3.1687,3.1687,3.1687,3.1687,3.1687,3.1687,3.1687,3.1687,3.1687,3.1687,3.1687,3.1687,3.1687,3.1687,3.1687,3.1687,3.1687,3.1687,3.1687,3.1687,3.1687,3.1687,3.1687,3.1687,3.1687,3.1687,3.1687,3.1687,3.1687,3.1687,0.0,0.0,0.0,0.0,0.0,0.0,2.6393,2.7102,2.7731,0.0,2.8344,2.8775,2.8284,2.8389,2.8558,2.8558,2.8347,2.82,2.82,2.8657,2.9001,2.9001,2.953,2.9891,2.9891,2.9891,2.9891,2.9891,2.9891,2.9891,2.9891,2.9891,2.9891,2.9891,2.9891,2.9891,2.9891,2.9891,2.9891,2.9891,2.9891,2.9891,2.9891,2.9891,2.9891,2.9891,2.9891,2.9891,2.994,3.0257,3.0426,3.0457,3.0751,3.1022,3.1279,3.1594,3.1687,3.1687,3.1687,3.1687,3.1687,3.1687,3.1687,3.1687,3.1687,3.1687,3.1687,3.1687,3.1687,3.1687,3.1687,3.1687,3.1687,3.1687,3.1687,3.1687,3.1687,3.1687,3.1687,3.1687,3.1687,3.1687,3.1687,3.1687,3.1687,3.1687,3.1687,3.1687,3.1687,3.1687,3.1687,3.1687,3.1687,3.1687,3.1687,3.1687,3.1687,3.1687,3.1687,3.1687,3.1687,3.1687,3.1687,3.1687,3.1687,3.1687,3.1687,3.1687,3.1687,3.1687,3.1687,3.1687,0.0,0.0,0.0,0.0,0.0,0.0,2.6401,2.954,3.1631,0.0,3.0942,3.2361,2.8859,2.9607,3.0786,3.0786,2.9328,2.82,2.82,2.8657,2.9001,2.9001,2.953,2.9891,2.9891,2.9891,2.9891,2.9891,2.9891,2.9891,2.9891,2.9891,2.9891,2.9891,2.9891,2.9891,2.9891,2.9891,2.9891,2.9891,2.9891,2.9891,2.9891,2.9891,2.9891,2.9891,2.9891,2.9891,2.994,3.0257,3.0524,3.0742,3.1022,3.1316,3.1607,3.1674,3.1687,3.1687,3.1687,3.1687,3.1687,3.1687,3.1687,3.1687,3.1687,3.1687,3.1687,3.1687,3.1687,3.1687,3.1687,3.1687,3.1687,3.1687,3.1687,3.1687,3.1687,3.1687,3.1687,3.1687,3.1687,3.1687,3.1687,3.1687,3.1687,3.1687,3.1687,3.1687,3.1687,3.1687,3.1687,3.1687,3.1687,3.1687,3.1687,3.1687,3.1687,3.1687,3.1687,3.1687,3.1687,3.1687,3.1687,3.1687,3.1687,3.1687,3.1687,3.1687,3.1687,3.1687,3.1687,3.1687,0.0,0.0,0.0,2.6406,0.0,0.0,0.0,3.1231,3.3618,2.9129,3.078,3.2402,3.0197,2.9795,3.0156,3.1241,2.9607,2.82,2.82,2.8559,2.885,2.8975,2.941,2.9753,2.9878,2.9891,2.9891,2.9891,2.9891,2.9891,2.9891,2.9891,2.9891,2.9891,2.9891,2.9891,2.9891,2.9891,2.9891,2.9891,2.9891,2.9891,2.9891,2.9891,2.9891,2.9891,2.9891,2.9891,2.9953,3.0417,3.0684,3.0822,3.1092,3.141,3.1687,3.1687,3.1687,3.1687,3.1687,3.1687,3.1687,3.1687,3.1687,3.1687,3.1687,3.1687,3.1687,3.1687,3.1687,3.1687,3.1687,3.1687,3.1687,3.1687,3.1687,3.1687,3.1687,3.1687,3.1687,3.1687,3.1687,3.1687,3.1687,3.1687,3.1687,3.1687,3.1687,3.1687,3.1687,3.1687,3.1687,3.1687,3.1687,3.1687,3.1687,3.1687,3.1687,3.1687,3.1687,3.1687,3.1687,3.1687,3.1687,3.1687,3.1687,3.1687,3.1687,3.1687,3.1687,3.1687,3.1687,3.1687,0.0,0.0,0.0,0.0,0.0,3.5195,0.0,0.0,0.0,3.0312,3.1161,3.2386,3.1537,0.0,0.0,3.1667,0.0,0.0,0.0,2.8607,0.0,2.8948,2.9299,2.9606,2.9864,2.9891,2.9891,2.9891,2.9891,2.9891,2.9891,2.9891,2.9891,2.9891,2.9891,2.9891,2.9891,2.9891,2.9891,2.9891,2.9891,2.9891,2.9891,2.9891,2.9891,2.9891,2.9891,2.9891,2.9967,3.0555,3.0795,3.0822,3.1183,3.1463,3.1687,3.1687,3.1687,3.1687,3.1687,3.1687,3.1687,3.1687,3.1687,3.1687,3.1687,3.1687,3.1687,3.1687,3.1687,3.1687,3.1687,3.1687,3.1687,3.1687,3.1687,3.1687,3.1687,3.1687,3.1687,3.1687,3.1687,3.1687,3.1687,3.1687,3.1687,3.1687,3.1687,3.1687,3.1687,3.1687,3.1687,3.1687,3.1687,3.1687,3.1687,3.1687,3.1687,3.1687,3.1687,3.1687,3.1687,3.1687,3.1687,3.1687,3.1687,3.1687,3.1687,3.1687,3.1687,3.1687,3.1687,3.1687,0.0,0.0,0.0,0.0,2.7098,0.0,0.0,0.0,3.4688,3.4089,0.0,0.0,0.0,0.0,0.0,0.0,0.0,0.0,3.0712,2.9292,2.8425,2.8943,2.9299,2.9606,2.9864,2.9891,2.9891,2.9891,2.9891,2.9891,2.9891,2.9891,2.9891,2.9891,2.9891,2.9891,2.9891,2.9891,2.9891,2.9891,2.9891,2.9891,2.9891,2.9891,2.9891,2.9891,2.9891,2.9891,2.9967,3.0555,3.0795,3.0872,3.142,3.166,3.1687,3.1687,3.1687,3.1687,3.1687,3.1687,3.1687,3.1687,3.1687,3.1687,3.1687,3.1687,3.1687,3.1687,3.1687,3.1687,3.1687,3.1687,3.1687,3.1687,3.1687,3.1687,3.1687,3.1687,3.1687,3.1687,3.1687,3.1687,3.1687,3.1687,3.1687,3.1687,3.1687,3.1687,3.1687,3.1687,3.1687,3.1687,3.1687,3.1687,3.1687,3.1687,3.1687,3.1687,3.1687,3.1687,3.1687,3.1687,3.1687,3.1687,3.1687,3.1687,3.1687,3.1687,3.1687,3.1687,3.1687,3.1687,0.0,0.0,0.0,0.0,0.0,0.0,0.0,0.0,3.7057,0.0,0.0,0.0,0.0,0.0,0.0,0.0,3.3559,0.0,0.0,0.0,2.8406,0.0,0.0,0.0,2.9851,2.9891,2.9891,2.9891,2.9891,2.9891,2.9891,2.9891,2.9891,2.9891,2.9891,2.9891,2.9891,2.9891,2.9891,2.9891,2.9891,2.9891,2.9891,2.9891,2.9891,2.9891,2.9891,2.9891,2.9953,3.0562,3.0794,3.0849,3.146,3.1687,3.1687,3.1687,3.1687,3.1687,3.1687,3.1687,3.1687,3.1687,3.1687,3.1687,3.1687,3.1687,3.1687,3.1687,3.1687,3.1687,3.1687,3.1687,3.1687,3.1687,3.1687,3.1687,3.1687,3.1687,3.1687,3.1687,3.1687,3.1687,3.1687,3.1687,3.1687,3.1687,3.1687,3.1687,3.1687,3.1687,3.1687,3.1687,3.1687,3.1687,3.1687,3.1687,3.1687,3.1687,3.1687,3.1687,3.1687,3.1687,3.1687,3.1687,3.1687,3.1687,3.1687,3.1687,3.1687,3.1687,3.1687,3.1687,3.1056,0.0,0.0,0.0,0.0,0.0,0.0,0.0,0.0,0.0,0.0,0.0,0.0,0.0,0.0,0.0,0.0,3.1857,0.0,2.9126,0.0,0.0,0.0,0.0,0.0,2.9891,2.9891,2.9891,2.9891,2.9891,2.9891,2.9891,2.9891,2.9891,2.9891,2.9891,2.9891,2.9891,2.9891,2.9891,2.9891,2.9891,2.9891,2.9891,2.9891,2.9891,2.9891,2.9891,2.994,3.0555,3.0806,3.0849,3.146,3.1687,3.1687,3.1687,3.1687,3.1687,3.1687,3.1687,3.1687,3.1687,3.1687,3.1687,3.1687,3.1687,3.1687,3.1687,3.1687,3.1687,3.1687,3.1687,3.1687,3.1687,3.1687,3.1687,3.1687,3.1687,3.1687,3.1687,3.1687,3.1687,3.1687,3.1687,3.1687,3.1687,3.1687,3.1687,3.1687,3.1687,3.1687,3.1687,3.1687,3.1687,3.1687,3.1687,3.1687,3.1687,3.1687,3.1687,3.1687,3.1687,3.1687,3.1687,3.1687,3.1687,3.1687,3.1687,3.1687,3.1687,3.1687,3.1687,0.0,0.0,0.0,3.8727,0.0,0.0,0.0,0.0,4.031,0.0,0.0,0.0,0.0,0.0,0.0,0.0,0.0,0.0,0.0,0.0,0.0,0.0,0.0,0.0,0.0,2.9891,2.9891,2.9891,2.9891,2.9891,2.9891,2.9891,2.9891,2.9891,2.9891,2.9891,2.9891,2.9891,2.9891,2.9891,2.9891,2.9891,2.9891,2.9891,2.9891,2.9891,2.9891,2.9891,2.9949,3.0546,3.0795,3.0849,3.146,3.1687,3.1687,3.1687,3.1687,3.1687,3.1687,3.1687,3.1687,3.1687,3.1687,3.1687,3.1687,3.1687,3.1687,3.1687,3.1687,3.1687,3.1687,3.1687,3.1687,3.1687,3.1687,3.1687,3.1687,3.1687,3.1687,3.1687,3.1687,3.1687,3.1687,3.1687,3.1687,3.1687,3.1687,3.1687,3.1687,3.1687,3.1687,3.1687,3.1687,3.1687,3.1687,3.1687,3.1687,3.1687,3.1687,3.1687,3.1687,3.1687,3.1687,3.1687,3.1687,3.1687,3.1687,3.1687,3.1687,3.1687,3.1687,3.1687,0.0,0.0,3.5868,3.9453,0.0,0.0,0.0,0.0,0.0,0.0,0.0,0.0,0.0,0.0,0.0,0.0,0.0,0.0,0.0,0.0,0.0,0.0,0.0,0.0,0.0,0.0,2.9891,2.9891,2.9891,2.9891,2.9891,2.9891,2.9891,2.9891,2.9891,2.9891,2.9891,2.9891,2.9891,2.9891,2.9891,2.9891,2.9891,2.9891,2.9891,2.9891,2.9891,2.9891,2.9949,3.0555,3.0802,3.086,3.1452,3.1687,3.1687,3.1687,3.1687,3.1687,3.1687,3.1687,3.1687,3.1687,3.1687,3.1687,3.1687,3.1687,3.1687,3.1687,3.1687,3.1687,3.1687,3.1687,3.1687,3.1687,3.1687,3.1687,3.1687,3.1687,3.1687,3.1687,3.1687,3.1687,3.1687,3.1687,3.1687,3.1687,3.1687,3.1687,3.1687,3.1687,3.1687,3.1687,3.1687,3.1687,3.1687,3.1687,3.1687,3.1687,3.1687,3.1687,3.1687,3.1687,3.1687,3.1687,3.1687,3.1687,3.1687,3.1687,3.1687,3.1687,3.1687,3.1687,3.9069,3.9308,0.0,4.0235,4.0556,0.0,4.1128,0.0,0.0,0.0,0.0,0.0,0.0,0.0,0.0,0.0,0.0,0.0,0.0,2.9055,0.0,0.0,0.0,0.0,0.0,2.9838,2.9891,2.9891,2.9891,2.9891,0.0,0.0,2.9891,2.9891,2.9891,2.9891,2.9891,2.9891,2.9891,2.9891,2.9891,2.9891,2.9891,2.9891,2.9891,2.9891,2.9891,2.9891,2.9949,3.0555,3.0795,3.0859,3.1447,3.1687,3.1687,3.1687,3.1687,3.1687,3.1687,3.1687,3.1687,3.1687,3.1687,3.1687,3.1687,3.1687,3.1754,3.2075,3.1928,3.1767,3.2075,3.1928,3.1687,3.1687,3.1687,3.1687,3.1687,3.1687,3.1687,3.1687,3.1687,3.1687,3.1687,3.1687,3.1687,3.1687,3.1687,3.1687,3.1687,3.1687,3.1687,3.1687,3.1687,3.1687,3.1687,3.1687,3.1687,3.1687,3.1687,3.1687,3.1687,3.1687,3.1687,3.1687,3.1687,3.1687,3.1687,3.1687,3.1687,3.1687,3.1687,3.1687]}]]